<?xml version='1.0' encoding='UTF-8'?>
<gpx version="1.1" creator="https://www.komoot.de" xmlns="http://www.topografix.com/GPX/1/1" xmlns:xsi="http://www.w3.org/2001/XMLSchema-instance" xsi:schemaLocation="http://www.topografix.com/GPX/1/1 http://www.topografix.com/GPX/1/1/gpx.xsd">
  <metadata>
    <name>58_670AspOltigenKilbergLiest</name>
    <author>
      <link href="https://www.komoot.de">
        <text>komoot</text>
        <type>text/html</type>
      </link>
    </author>
  </metadata>
  <trk>
    <name>58_670AspOltigenKilbergLiest</name>
    <trkseg>
      <trkpt lat="47.540953" lon="7.871170">
        <ele>343.441917</ele>
        <time>2021-11-14T20:46:46.258Z</time>
      </trkpt>
      <trkpt lat="47.540933" lon="7.871187">
        <ele>343.441917</ele>
        <time>2021-11-14T20:46:46.749Z</time>
      </trkpt>
      <trkpt lat="47.540894" lon="7.871220">
        <ele>343.441917</ele>
        <time>2021-11-14T20:46:47.877Z</time>
      </trkpt>
      <trkpt lat="47.540693" lon="7.871390">
        <ele>343.441917</ele>
        <time>2021-11-14T20:46:53.241Z</time>
      </trkpt>
      <trkpt lat="47.540463" lon="7.871584">
        <ele>343.441917</ele>
        <time>2021-11-14T20:46:59.436Z</time>
      </trkpt>
      <trkpt lat="47.540265" lon="7.871808">
        <ele>343.441917</ele>
        <time>2021-11-14T20:47:04.929Z</time>
      </trkpt>
      <trkpt lat="47.540216" lon="7.871851">
        <ele>343.441917</ele>
        <time>2021-11-14T20:47:06.384Z</time>
      </trkpt>
      <trkpt lat="47.540034" lon="7.871970">
        <ele>343.717151</ele>
        <time>2021-11-14T20:47:10.919Z</time>
      </trkpt>
      <trkpt lat="47.539930" lon="7.872041">
        <ele>343.902759</ele>
        <time>2021-11-14T20:47:13.530Z</time>
      </trkpt>
      <trkpt lat="47.539841" lon="7.872151">
        <ele>344.090631</ele>
        <time>2021-11-14T20:47:16.539Z</time>
      </trkpt>
      <trkpt lat="47.539678" lon="7.872430">
        <ele>344.494357</ele>
        <time>2021-11-14T20:47:22.081Z</time>
      </trkpt>
      <trkpt lat="47.539222" lon="7.873416">
        <ele>345.802121</ele>
        <time>2021-11-14T20:47:39.623Z</time>
      </trkpt>
      <trkpt lat="47.538278" lon="7.874319">
        <ele>347.153365</ele>
        <time>2021-11-14T20:47:59.277Z</time>
      </trkpt>
      <trkpt lat="47.537716" lon="7.874966">
        <ele>347.878718</ele>
        <time>2021-11-14T20:48:13.252Z</time>
      </trkpt>
      <trkpt lat="47.537261" lon="7.875237">
        <ele>348.665385</ele>
        <time>2021-11-14T20:48:22.769Z</time>
      </trkpt>
      <trkpt lat="47.537182" lon="7.875293">
        <ele>348.890616</ele>
        <time>2021-11-14T20:48:24.757Z</time>
      </trkpt>
      <trkpt lat="47.536921" lon="7.875537">
        <ele>349.684336</ele>
        <time>2021-11-14T20:48:30.724Z</time>
      </trkpt>
      <trkpt lat="47.536757" lon="7.875759">
        <ele>350.255687</ele>
        <time>2021-11-14T20:48:35.326Z</time>
      </trkpt>
      <trkpt lat="47.536632" lon="7.875912">
        <ele>350.672703</ele>
        <time>2021-11-14T20:48:38.494Z</time>
      </trkpt>
      <trkpt lat="47.536444" lon="7.876177">
        <ele>351.340116</ele>
        <time>2021-11-14T20:48:45.456Z</time>
      </trkpt>
      <trkpt lat="47.535851" lon="7.877319">
        <ele>354.894640</ele>
        <time>2021-11-14T20:49:16.770Z</time>
      </trkpt>
      <trkpt lat="47.535770" lon="7.877432">
        <ele>355.474573</ele>
        <time>2021-11-14T20:49:20.949Z</time>
      </trkpt>
      <trkpt lat="47.535635" lon="7.877484">
        <ele>356.201585</ele>
        <time>2021-11-14T20:49:26.817Z</time>
      </trkpt>
      <trkpt lat="47.535551" lon="7.877487">
        <ele>356.639514</ele>
        <time>2021-11-14T20:49:28.725Z</time>
      </trkpt>
      <trkpt lat="47.535322" lon="7.877590">
        <ele>357.886860</ele>
        <time>2021-11-14T20:49:38.777Z</time>
      </trkpt>
      <trkpt lat="47.535088" lon="7.877742">
        <ele>359.218576</ele>
        <time>2021-11-14T20:49:46.609Z</time>
      </trkpt>
      <trkpt lat="47.534855" lon="7.878090">
        <ele>360.943164</ele>
        <time>2021-11-14T20:49:58.592Z</time>
      </trkpt>
      <trkpt lat="47.534778" lon="7.878270">
        <ele>361.692984</ele>
        <time>2021-11-14T20:50:05.899Z</time>
      </trkpt>
      <trkpt lat="47.534825" lon="7.878414">
        <ele>362.246862</ele>
        <time>2021-11-14T20:50:08.525Z</time>
      </trkpt>
      <trkpt lat="47.534946" lon="7.878790">
        <ele>363.513145</ele>
        <time>2021-11-14T20:50:20.573Z</time>
      </trkpt>
      <trkpt lat="47.534908" lon="7.878975">
        <ele>364.101014</ele>
        <time>2021-11-14T20:50:24.631Z</time>
      </trkpt>
      <trkpt lat="47.534616" lon="7.879490">
        <ele>366.145533</ele>
        <time>2021-11-14T20:50:41.578Z</time>
      </trkpt>
      <trkpt lat="47.533892" lon="7.880353">
        <ele>370.304521</ele>
        <time>2021-11-14T20:51:09.317Z</time>
      </trkpt>
      <trkpt lat="47.533606" lon="7.880961">
        <ele>371.145376</ele>
        <time>2021-11-14T20:51:21.626Z</time>
      </trkpt>
      <trkpt lat="47.533374" lon="7.881639">
        <ele>372.007896</ele>
        <time>2021-11-14T20:51:32.671Z</time>
      </trkpt>
      <trkpt lat="47.533014" lon="7.882949">
        <ele>373.210103</ele>
        <time>2021-11-14T20:51:50.586Z</time>
      </trkpt>
      <trkpt lat="47.532859" lon="7.883508">
        <ele>372.977252</ele>
        <time>2021-11-14T20:51:56.464Z</time>
      </trkpt>
      <trkpt lat="47.532713" lon="7.884122">
        <ele>372.726421</ele>
        <time>2021-11-14T20:52:02.162Z</time>
      </trkpt>
      <trkpt lat="47.532699" lon="7.884224">
        <ele>372.686315</ele>
        <time>2021-11-14T20:52:03.116Z</time>
      </trkpt>
      <trkpt lat="47.532670" lon="7.884773">
        <ele>372.474126</ele>
        <time>2021-11-14T20:52:07.609Z</time>
      </trkpt>
      <trkpt lat="47.532658" lon="7.884989">
        <ele>372.390616</ele>
        <time>2021-11-14T20:52:09.221Z</time>
      </trkpt>
      <trkpt lat="47.532650" lon="7.885569">
        <ele>371.936304</ele>
        <time>2021-11-14T20:52:13.724Z</time>
      </trkpt>
      <trkpt lat="47.532505" lon="7.887120">
        <ele>370.159108</ele>
        <time>2021-11-14T20:52:25.675Z</time>
      </trkpt>
      <trkpt lat="47.532288" lon="7.887728">
        <ele>369.378534</ele>
        <time>2021-11-14T20:52:30.862Z</time>
      </trkpt>
      <trkpt lat="47.532011" lon="7.888896">
        <ele>368.244030</ele>
        <time>2021-11-14T20:52:40.113Z</time>
      </trkpt>
      <trkpt lat="47.531843" lon="7.889349">
        <ele>367.780593</ele>
        <time>2021-11-14T20:52:44.147Z</time>
      </trkpt>
      <trkpt lat="47.531667" lon="7.889615">
        <ele>367.446641</ele>
        <time>2021-11-14T20:52:47.188Z</time>
      </trkpt>
      <trkpt lat="47.531571" lon="7.889760">
        <ele>367.264544</ele>
        <time>2021-11-14T20:52:48.896Z</time>
      </trkpt>
      <trkpt lat="47.531560" lon="7.889776">
        <ele>367.244068</ele>
        <time>2021-11-14T20:52:49.055Z</time>
      </trkpt>
      <trkpt lat="47.531265" lon="7.889937">
        <ele>366.886821</ele>
        <time>2021-11-14T20:52:53.079Z</time>
      </trkpt>
      <trkpt lat="47.531076" lon="7.890029">
        <ele>366.962863</ele>
        <time>2021-11-14T20:52:55.849Z</time>
      </trkpt>
      <trkpt lat="47.530606" lon="7.890373">
        <ele>367.163247</ele>
        <time>2021-11-14T20:53:03.789Z</time>
      </trkpt>
      <trkpt lat="47.530322" lon="7.890690">
        <ele>367.299175</ele>
        <time>2021-11-14T20:53:09.779Z</time>
      </trkpt>
      <trkpt lat="47.529972" lon="7.891210">
        <ele>367.488664</ele>
        <time>2021-11-14T20:53:18.824Z</time>
      </trkpt>
      <trkpt lat="47.529714" lon="7.891609">
        <ele>367.754936</ele>
        <time>2021-11-14T20:53:26.157Z</time>
      </trkpt>
      <trkpt lat="47.529695" lon="7.891638">
        <ele>367.783685</ele>
        <time>2021-11-14T20:53:27.144Z</time>
      </trkpt>
      <trkpt lat="47.529235" lon="7.892158">
        <ele>368.393452</ele>
        <time>2021-11-14T20:53:38.077Z</time>
      </trkpt>
      <trkpt lat="47.528331" lon="7.892682">
        <ele>369.416363</ele>
        <time>2021-11-14T20:53:56.780Z</time>
      </trkpt>
      <trkpt lat="47.528003" lon="7.892732">
        <ele>369.995572</ele>
        <time>2021-11-14T20:54:02.486Z</time>
      </trkpt>
      <trkpt lat="47.527498" lon="7.892650">
        <ele>370.934053</ele>
        <time>2021-11-14T20:54:11.959Z</time>
      </trkpt>
      <trkpt lat="47.527011" lon="7.893061">
        <ele>371.969515</ele>
        <time>2021-11-14T20:54:25.151Z</time>
      </trkpt>
      <trkpt lat="47.526709" lon="7.893617">
        <ele>372.899425</ele>
        <time>2021-11-14T20:54:37.683Z</time>
      </trkpt>
      <trkpt lat="47.526504" lon="7.894030">
        <ele>373.853716</ele>
        <time>2021-11-14T20:54:47.864Z</time>
      </trkpt>
      <trkpt lat="47.526451" lon="7.893983">
        <ele>374.024039</ele>
        <time>2021-11-14T20:54:49.253Z</time>
      </trkpt>
      <trkpt lat="47.526401" lon="7.893964">
        <ele>374.166361</ele>
        <time>2021-11-14T20:54:50.071Z</time>
      </trkpt>
      <trkpt lat="47.526335" lon="7.893960">
        <ele>374.348484</ele>
        <time>2021-11-14T20:54:52.144Z</time>
      </trkpt>
      <trkpt lat="47.526257" lon="7.894278">
        <ele>374.978371</ele>
        <time>2021-11-14T20:54:58.356Z</time>
      </trkpt>
      <trkpt lat="47.525725" lon="7.895110">
        <ele>377.111640</ele>
        <time>2021-11-14T20:55:17.438Z</time>
      </trkpt>
      <trkpt lat="47.525603" lon="7.895265">
        <ele>377.554834</ele>
        <time>2021-11-14T20:55:23.054Z</time>
      </trkpt>
      <trkpt lat="47.525631" lon="7.895442">
        <ele>377.793409</ele>
        <time>2021-11-14T20:55:25.903Z</time>
      </trkpt>
      <trkpt lat="47.525631" lon="7.895583">
        <ele>377.887281</ele>
        <time>2021-11-14T20:55:27.095Z</time>
      </trkpt>
      <trkpt lat="47.525622" lon="7.895944">
        <ele>378.127784</ele>
        <time>2021-11-14T20:55:34.531Z</time>
      </trkpt>
      <trkpt lat="47.525590" lon="7.896117">
        <ele>378.247203</ele>
        <time>2021-11-14T20:55:36.084Z</time>
      </trkpt>
      <trkpt lat="47.525518" lon="7.896336">
        <ele>378.409367</ele>
        <time>2021-11-14T20:55:40.891Z</time>
      </trkpt>
      <trkpt lat="47.524834" lon="7.897636">
        <ele>379.506575</ele>
        <time>2021-11-14T20:55:57.815Z</time>
      </trkpt>
      <trkpt lat="47.524617" lon="7.898216">
        <ele>379.546184</ele>
        <time>2021-11-14T20:56:03.988Z</time>
      </trkpt>
      <trkpt lat="47.524360" lon="7.898951">
        <ele>379.590378</ele>
        <time>2021-11-14T20:56:11.529Z</time>
      </trkpt>
      <trkpt lat="47.524309" lon="7.899115">
        <ele>379.600019</ele>
        <time>2021-11-14T20:56:13.443Z</time>
      </trkpt>
      <trkpt lat="47.523896" lon="7.900001">
        <ele>379.780091</ele>
        <time>2021-11-14T20:56:25.365Z</time>
      </trkpt>
      <trkpt lat="47.523861" lon="7.900049">
        <ele>379.895639</ele>
        <time>2021-11-14T20:56:26.345Z</time>
      </trkpt>
      <trkpt lat="47.523890" lon="7.900131">
        <ele>380.047044</ele>
        <time>2021-11-14T20:56:27.299Z</time>
      </trkpt>
      <trkpt lat="47.523945" lon="7.900256">
        <ele>380.291074</ele>
        <time>2021-11-14T20:56:28.890Z</time>
      </trkpt>
      <trkpt lat="47.523989" lon="7.900340">
        <ele>380.464959</ele>
        <time>2021-11-14T20:56:29.940Z</time>
      </trkpt>
      <trkpt lat="47.523957" lon="7.900371">
        <ele>380.557581</ele>
        <time>2021-11-14T20:56:30.645Z</time>
      </trkpt>
      <trkpt lat="47.523878" lon="7.900445">
        <ele>380.784002</ele>
        <time>2021-11-14T20:56:32.762Z</time>
      </trkpt>
      <trkpt lat="47.523739" lon="7.900557">
        <ele>381.167299</ele>
        <time>2021-11-14T20:56:35.693Z</time>
      </trkpt>
      <trkpt lat="47.523648" lon="7.900606">
        <ele>381.401838</ele>
        <time>2021-11-14T20:56:37.872Z</time>
      </trkpt>
      <trkpt lat="47.523620" lon="7.900698">
        <ele>381.566897</ele>
        <time>2021-11-14T20:56:39.836Z</time>
      </trkpt>
      <trkpt lat="47.523567" lon="7.900820">
        <ele>381.804176</ele>
        <time>2021-11-14T20:56:41.933Z</time>
      </trkpt>
      <trkpt lat="47.523433" lon="7.901043">
        <ele>382.292433</ele>
        <time>2021-11-14T20:56:47.177Z</time>
      </trkpt>
      <trkpt lat="47.523340" lon="7.901197">
        <ele>382.630360</ele>
        <time>2021-11-14T20:56:51.219Z</time>
      </trkpt>
      <trkpt lat="47.523036" lon="7.901580">
        <ele>383.597142</ele>
        <time>2021-11-14T20:57:02.915Z</time>
      </trkpt>
      <trkpt lat="47.522688" lon="7.901843">
        <ele>384.914998</ele>
        <time>2021-11-14T20:57:15.233Z</time>
      </trkpt>
      <trkpt lat="47.522554" lon="7.901999">
        <ele>385.615384</ele>
        <time>2021-11-14T20:57:21.554Z</time>
      </trkpt>
      <trkpt lat="47.522260" lon="7.902356">
        <ele>387.177649</ele>
        <time>2021-11-14T20:57:33.927Z</time>
      </trkpt>
      <trkpt lat="47.522132" lon="7.902476">
        <ele>387.800143</ele>
        <time>2021-11-14T20:57:38.485Z</time>
      </trkpt>
      <trkpt lat="47.522065" lon="7.902526">
        <ele>388.108429</ele>
        <time>2021-11-14T20:57:40.680Z</time>
      </trkpt>
      <trkpt lat="47.522038" lon="7.902562">
        <ele>388.257718</ele>
        <time>2021-11-14T20:57:42.184Z</time>
      </trkpt>
      <trkpt lat="47.522013" lon="7.902637">
        <ele>388.489802</ele>
        <time>2021-11-14T20:57:44.317Z</time>
      </trkpt>
      <trkpt lat="47.521792" lon="7.903347">
        <ele>390.659145</ele>
        <time>2021-11-14T20:58:00.385Z</time>
      </trkpt>
      <trkpt lat="47.521297" lon="7.904312">
        <ele>392.946299</ele>
        <time>2021-11-14T20:58:24.388Z</time>
      </trkpt>
      <trkpt lat="47.520989" lon="7.905130">
        <ele>394.478809</ele>
        <time>2021-11-14T20:58:39.802Z</time>
      </trkpt>
      <trkpt lat="47.520678" lon="7.906050">
        <ele>395.802804</ele>
        <time>2021-11-14T20:58:53.272Z</time>
      </trkpt>
      <trkpt lat="47.520566" lon="7.906668">
        <ele>395.916917</ele>
        <time>2021-11-14T20:59:00.292Z</time>
      </trkpt>
      <trkpt lat="47.520528" lon="7.906930">
        <ele>395.964707</ele>
        <time>2021-11-14T20:59:03.552Z</time>
      </trkpt>
      <trkpt lat="47.520515" lon="7.907103">
        <ele>395.995750</ele>
        <time>2021-11-14T20:59:05.350Z</time>
      </trkpt>
      <trkpt lat="47.520506" lon="7.907236">
        <ele>396.019588</ele>
        <time>2021-11-14T20:59:06.426Z</time>
      </trkpt>
      <trkpt lat="47.520551" lon="7.907422">
        <ele>396.054823</ele>
        <time>2021-11-14T20:59:08.836Z</time>
      </trkpt>
      <trkpt lat="47.520733" lon="7.907655">
        <ele>396.118358</ele>
        <time>2021-11-14T20:59:12.023Z</time>
      </trkpt>
      <trkpt lat="47.520738" lon="7.907839">
        <ele>396.151199</ele>
        <time>2021-11-14T20:59:14.166Z</time>
      </trkpt>
      <trkpt lat="47.520493" lon="7.908683">
        <ele>396.356056</ele>
        <time>2021-11-14T20:59:22.345Z</time>
      </trkpt>
      <trkpt lat="47.519997" lon="7.910833">
        <ele>396.994960</ele>
        <time>2021-11-14T20:59:48.292Z</time>
      </trkpt>
      <trkpt lat="47.519891" lon="7.911129">
        <ele>397.236918</ele>
        <time>2021-11-14T20:59:52.881Z</time>
      </trkpt>
      <trkpt lat="47.519720" lon="7.911522">
        <ele>397.574541</ele>
        <time>2021-11-14T20:59:58.966Z</time>
      </trkpt>
      <trkpt lat="47.519421" lon="7.912098">
        <ele>398.099201</ele>
        <time>2021-11-14T21:00:08.532Z</time>
      </trkpt>
      <trkpt lat="47.517688" lon="7.914418">
        <ele>400.572741</ele>
        <time>2021-11-14T21:00:53.111Z</time>
      </trkpt>
      <trkpt lat="47.517281" lon="7.915238">
        <ele>401.232841</ele>
        <time>2021-11-14T21:01:06.124Z</time>
      </trkpt>
      <trkpt lat="47.517140" lon="7.915259">
        <ele>401.364063</ele>
        <time>2021-11-14T21:01:08.625Z</time>
      </trkpt>
      <trkpt lat="47.516806" lon="7.914896">
        <ele>401.747712</ele>
        <time>2021-11-14T21:01:16.200Z</time>
      </trkpt>
      <trkpt lat="47.516748" lon="7.914873">
        <ele>401.803311</ele>
        <time>2021-11-14T21:01:17.371Z</time>
      </trkpt>
      <trkpt lat="47.516662" lon="7.914835">
        <ele>401.886416</ele>
        <time>2021-11-14T21:01:19.163Z</time>
      </trkpt>
      <trkpt lat="47.516626" lon="7.914830">
        <ele>401.919897</ele>
        <time>2021-11-14T21:01:19.858Z</time>
      </trkpt>
      <trkpt lat="47.516590" lon="7.914840">
        <ele>401.953814</ele>
        <time>2021-11-14T21:01:20.453Z</time>
      </trkpt>
      <trkpt lat="47.516569" lon="7.914864">
        <ele>401.978378</ele>
        <time>2021-11-14T21:01:20.988Z</time>
      </trkpt>
      <trkpt lat="47.516544" lon="7.914936">
        <ele>402.029008</ele>
        <time>2021-11-14T21:01:21.834Z</time>
      </trkpt>
      <trkpt lat="47.516391" lon="7.915243">
        <ele>402.267615</ele>
        <time>2021-11-14T21:01:26.627Z</time>
      </trkpt>
      <trkpt lat="47.515014" lon="7.917030">
        <ele>403.979039</ele>
        <time>2021-11-14T21:02:00.404Z</time>
      </trkpt>
      <trkpt lat="47.514635" lon="7.917349">
        <ele>404.569305</ele>
        <time>2021-11-14T21:02:08.522Z</time>
      </trkpt>
      <trkpt lat="47.514561" lon="7.917409">
        <ele>404.701417</ele>
        <time>2021-11-14T21:02:10.414Z</time>
      </trkpt>
      <trkpt lat="47.514255" lon="7.917714">
        <ele>405.279034</ele>
        <time>2021-11-14T21:02:17.883Z</time>
      </trkpt>
      <trkpt lat="47.513378" lon="7.918393">
        <ele>406.828734</ele>
        <time>2021-11-14T21:02:39.610Z</time>
      </trkpt>
      <trkpt lat="47.513160" lon="7.918764">
        <ele>407.687436</ele>
        <time>2021-11-14T21:02:47.111Z</time>
      </trkpt>
      <trkpt lat="47.513058" lon="7.918896">
        <ele>408.072167</ele>
        <time>2021-11-14T21:02:50.267Z</time>
      </trkpt>
      <trkpt lat="47.512938" lon="7.919052">
        <ele>408.525685</ele>
        <time>2021-11-14T21:02:54.046Z</time>
      </trkpt>
      <trkpt lat="47.512664" lon="7.919306">
        <ele>409.443769</ele>
        <time>2021-11-14T21:03:02.269Z</time>
      </trkpt>
      <trkpt lat="47.512255" lon="7.919538">
        <ele>410.687632</ele>
        <time>2021-11-14T21:03:14.194Z</time>
      </trkpt>
      <trkpt lat="47.512085" lon="7.919732">
        <ele>411.297191</ele>
        <time>2021-11-14T21:03:20.403Z</time>
      </trkpt>
      <trkpt lat="47.511964" lon="7.919989">
        <ele>411.898112</ele>
        <time>2021-11-14T21:03:26.883Z</time>
      </trkpt>
      <trkpt lat="47.511883" lon="7.920133">
        <ele>412.300143</ele>
        <time>2021-11-14T21:03:30.897Z</time>
      </trkpt>
      <trkpt lat="47.511632" lon="7.920105">
        <ele>413.155270</ele>
        <time>2021-11-14T21:03:39.878Z</time>
      </trkpt>
      <trkpt lat="47.511375" lon="7.920079">
        <ele>414.030400</ele>
        <time>2021-11-14T21:03:48.374Z</time>
      </trkpt>
      <trkpt lat="47.510704" lon="7.919944">
        <ele>416.330908</ele>
        <time>2021-11-14T21:04:10.882Z</time>
      </trkpt>
      <trkpt lat="47.510627" lon="7.919935">
        <ele>416.593310</ele>
        <time>2021-11-14T21:04:13.218Z</time>
      </trkpt>
      <trkpt lat="47.510551" lon="7.919925">
        <ele>416.852519</ele>
        <time>2021-11-14T21:04:16.328Z</time>
      </trkpt>
      <trkpt lat="47.509902" lon="7.920009">
        <ele>419.233438</ele>
        <time>2021-11-14T21:04:36.925Z</time>
      </trkpt>
      <trkpt lat="47.509811" lon="7.920040">
        <ele>419.608829</ele>
        <time>2021-11-14T21:04:40.909Z</time>
      </trkpt>
      <trkpt lat="47.509809" lon="7.920155">
        <ele>419.921208</ele>
        <time>2021-11-14T21:04:42.503Z</time>
      </trkpt>
      <trkpt lat="47.509746" lon="7.920320">
        <ele>420.435884</ele>
        <time>2021-11-14T21:04:45.743Z</time>
      </trkpt>
      <trkpt lat="47.509586" lon="7.920497">
        <ele>421.238841</ele>
        <time>2021-11-14T21:04:54.121Z</time>
      </trkpt>
      <trkpt lat="47.509370" lon="7.920707">
        <ele>422.277688</ele>
        <time>2021-11-14T21:05:02.429Z</time>
      </trkpt>
      <trkpt lat="47.509138" lon="7.920939">
        <ele>423.403189</ele>
        <time>2021-11-14T21:05:11.391Z</time>
      </trkpt>
      <trkpt lat="47.508613" lon="7.921495">
        <ele>426.048536</ele>
        <time>2021-11-14T21:05:30.971Z</time>
      </trkpt>
      <trkpt lat="47.508585" lon="7.921587">
        <ele>426.344937</ele>
        <time>2021-11-14T21:05:31.903Z</time>
      </trkpt>
      <trkpt lat="47.508464" lon="7.921688">
        <ele>426.948984</ele>
        <time>2021-11-14T21:05:38.209Z</time>
      </trkpt>
      <trkpt lat="47.508248" lon="7.921916">
        <ele>428.102580</ele>
        <time>2021-11-14T21:05:45.795Z</time>
      </trkpt>
      <trkpt lat="47.508175" lon="7.922172">
        <ele>428.918807</ele>
        <time>2021-11-14T21:05:52.355Z</time>
      </trkpt>
      <trkpt lat="47.508171" lon="7.922196">
        <ele>428.991418</ele>
        <time>2021-11-14T21:05:54.194Z</time>
      </trkpt>
      <trkpt lat="47.508141" lon="7.922350">
        <ele>429.462210</ele>
        <time>2021-11-14T21:05:56.766Z</time>
      </trkpt>
      <trkpt lat="47.508128" lon="7.922441">
        <ele>429.735424</ele>
        <time>2021-11-14T21:05:59.562Z</time>
      </trkpt>
      <trkpt lat="47.508064" lon="7.922687">
        <ele>430.509762</ele>
        <time>2021-11-14T21:06:06.072Z</time>
      </trkpt>
      <trkpt lat="47.507981" lon="7.923001">
        <ele>431.500205</ele>
        <time>2021-11-14T21:06:14.386Z</time>
      </trkpt>
      <trkpt lat="47.507956" lon="7.923075">
        <ele>431.743242</ele>
        <time>2021-11-14T21:06:16.377Z</time>
      </trkpt>
      <trkpt lat="47.507876" lon="7.923234">
        <ele>432.325612</ele>
        <time>2021-11-14T21:06:20.701Z</time>
      </trkpt>
      <trkpt lat="47.507823" lon="7.923307">
        <ele>432.640410</ele>
        <time>2021-11-14T21:06:22.435Z</time>
      </trkpt>
      <trkpt lat="47.507715" lon="7.923412">
        <ele>433.202274</ele>
        <time>2021-11-14T21:06:27.151Z</time>
      </trkpt>
      <trkpt lat="47.507337" lon="7.923777">
        <ele>433.385584</ele>
        <time>2021-11-14T21:06:35.525Z</time>
      </trkpt>
      <trkpt lat="47.507226" lon="7.923898">
        <ele>433.441281</ele>
        <time>2021-11-14T21:06:39.117Z</time>
      </trkpt>
      <trkpt lat="47.507191" lon="7.924066">
        <ele>433.489265</ele>
        <time>2021-11-14T21:06:40.665Z</time>
      </trkpt>
      <trkpt lat="47.506562" lon="7.924949">
        <ele>433.839511</ele>
        <time>2021-11-14T21:06:53.564Z</time>
      </trkpt>
      <trkpt lat="47.506019" lon="7.926055">
        <ele>433.052173</ele>
        <time>2021-11-14T21:07:03.345Z</time>
      </trkpt>
      <trkpt lat="47.505768" lon="7.926636">
        <ele>432.467448</ele>
        <time>2021-11-14T21:07:08.425Z</time>
      </trkpt>
      <trkpt lat="47.505699" lon="7.926906">
        <ele>432.222694</ele>
        <time>2021-11-14T21:07:11.490Z</time>
      </trkpt>
      <trkpt lat="47.505690" lon="7.927200">
        <ele>431.973168</ele>
        <time>2021-11-14T21:07:13.645Z</time>
      </trkpt>
      <trkpt lat="47.505748" lon="7.927310">
        <ele>431.854857</ele>
        <time>2021-11-14T21:07:15.815Z</time>
      </trkpt>
      <trkpt lat="47.505858" lon="7.927551">
        <ele>431.724230</ele>
        <time>2021-11-14T21:07:18.579Z</time>
      </trkpt>
      <trkpt lat="47.505881" lon="7.927601">
        <ele>431.765437</ele>
        <time>2021-11-14T21:07:19.576Z</time>
      </trkpt>
      <trkpt lat="47.505868" lon="7.927611">
        <ele>431.780210</ele>
        <time>2021-11-14T21:07:19.804Z</time>
      </trkpt>
      <trkpt lat="47.505814" lon="7.927657">
        <ele>431.843037</ele>
        <time>2021-11-14T21:07:21.665Z</time>
      </trkpt>
      <trkpt lat="47.505253" lon="7.928170">
        <ele>432.507988</ele>
        <time>2021-11-14T21:07:33.485Z</time>
      </trkpt>
      <trkpt lat="47.504799" lon="7.928777">
        <ele>433.124897</ele>
        <time>2021-11-14T21:07:44.144Z</time>
      </trkpt>
      <trkpt lat="47.504724" lon="7.928871">
        <ele>433.223995</ele>
        <time>2021-11-14T21:07:47.781Z</time>
      </trkpt>
      <trkpt lat="47.504650" lon="7.928941">
        <ele>433.312552</ele>
        <time>2021-11-14T21:07:50.314Z</time>
      </trkpt>
      <trkpt lat="47.504005" lon="7.929312">
        <ele>434.035206</ele>
        <time>2021-11-14T21:08:04.755Z</time>
      </trkpt>
      <trkpt lat="47.503815" lon="7.929426">
        <ele>434.251750</ele>
        <time>2021-11-14T21:08:07.715Z</time>
      </trkpt>
      <trkpt lat="47.503598" lon="7.929585">
        <ele>434.507495</ele>
        <time>2021-11-14T21:08:12.991Z</time>
      </trkpt>
      <trkpt lat="47.503528" lon="7.929650">
        <ele>434.594775</ele>
        <time>2021-11-14T21:08:14.062Z</time>
      </trkpt>
      <trkpt lat="47.503485" lon="7.929688">
        <ele>434.647671</ele>
        <time>2021-11-14T21:08:15.574Z</time>
      </trkpt>
      <trkpt lat="47.503014" lon="7.930220">
        <ele>435.273445</ele>
        <time>2021-11-14T21:08:25.486Z</time>
      </trkpt>
      <trkpt lat="47.502761" lon="7.930610">
        <ele>435.594548</ele>
        <time>2021-11-14T21:08:31.840Z</time>
      </trkpt>
      <trkpt lat="47.502613" lon="7.930856">
        <ele>435.773908</ele>
        <time>2021-11-14T21:08:35.637Z</time>
      </trkpt>
      <trkpt lat="47.502400" lon="7.931256">
        <ele>436.051230</ele>
        <time>2021-11-14T21:08:42.441Z</time>
      </trkpt>
      <trkpt lat="47.502023" lon="7.932158">
        <ele>436.628759</ele>
        <time>2021-11-14T21:08:55.428Z</time>
      </trkpt>
      <trkpt lat="47.501901" lon="7.932351">
        <ele>436.772677</ele>
        <time>2021-11-14T21:08:59.186Z</time>
      </trkpt>
      <trkpt lat="47.501794" lon="7.932466">
        <ele>436.860235</ele>
        <time>2021-11-14T21:09:01.065Z</time>
      </trkpt>
      <trkpt lat="47.501463" lon="7.932668">
        <ele>437.022465</ele>
        <time>2021-11-14T21:09:07.205Z</time>
      </trkpt>
      <trkpt lat="47.501075" lon="7.932885">
        <ele>437.210407</ele>
        <time>2021-11-14T21:09:14.744Z</time>
      </trkpt>
      <trkpt lat="47.500990" lon="7.932950">
        <ele>437.253759</ele>
        <time>2021-11-14T21:09:16.562Z</time>
      </trkpt>
      <trkpt lat="47.500843" lon="7.933102">
        <ele>437.335010</ele>
        <time>2021-11-14T21:09:19.441Z</time>
      </trkpt>
      <trkpt lat="47.500435" lon="7.933872">
        <ele>437.634575</ele>
        <time>2021-11-14T21:09:29.272Z</time>
      </trkpt>
      <trkpt lat="47.500386" lon="7.933937">
        <ele>437.680716</ele>
        <time>2021-11-14T21:09:30.131Z</time>
      </trkpt>
      <trkpt lat="47.500352" lon="7.933976">
        <ele>437.723658</ele>
        <time>2021-11-14T21:09:30.893Z</time>
      </trkpt>
      <trkpt lat="47.500275" lon="7.934029">
        <ele>437.808432</ele>
        <time>2021-11-14T21:09:32.001Z</time>
      </trkpt>
      <trkpt lat="47.500208" lon="7.934071">
        <ele>437.881070</ele>
        <time>2021-11-14T21:09:33.235Z</time>
      </trkpt>
      <trkpt lat="47.500193" lon="7.934023">
        <ele>437.916739</ele>
        <time>2021-11-14T21:09:33.713Z</time>
      </trkpt>
      <trkpt lat="47.500169" lon="7.933984">
        <ele>437.952318</ele>
        <time>2021-11-14T21:09:34.146Z</time>
      </trkpt>
      <trkpt lat="47.500138" lon="7.933956">
        <ele>437.988573</ele>
        <time>2021-11-14T21:09:34.690Z</time>
      </trkpt>
      <trkpt lat="47.500067" lon="7.933946">
        <ele>438.059773</ele>
        <time>2021-11-14T21:09:35.638Z</time>
      </trkpt>
      <trkpt lat="47.500034" lon="7.933965">
        <ele>438.095121</ele>
        <time>2021-11-14T21:09:36.457Z</time>
      </trkpt>
      <trkpt lat="47.499993" lon="7.933864">
        <ele>438.174592</ele>
        <time>2021-11-14T21:09:37.999Z</time>
      </trkpt>
      <trkpt lat="47.499822" lon="7.933272">
        <ele>438.608828</ele>
        <time>2021-11-14T21:09:45.979Z</time>
      </trkpt>
      <trkpt lat="47.499538" lon="7.932868">
        <ele>439.002056</ele>
        <time>2021-11-14T21:09:53.961Z</time>
      </trkpt>
      <trkpt lat="47.499421" lon="7.932805">
        <ele>439.126346</ele>
        <time>2021-11-14T21:09:57.015Z</time>
      </trkpt>
      <trkpt lat="47.499354" lon="7.932769">
        <ele>439.197504</ele>
        <time>2021-11-14T21:09:58.742Z</time>
      </trkpt>
      <trkpt lat="47.499088" lon="7.932741">
        <ele>439.478649</ele>
        <time>2021-11-14T21:10:04.619Z</time>
      </trkpt>
      <trkpt lat="47.498997" lon="7.932758">
        <ele>439.649192</ele>
        <time>2021-11-14T21:10:06.657Z</time>
      </trkpt>
      <trkpt lat="47.498925" lon="7.932781">
        <ele>439.786147</ele>
        <time>2021-11-14T21:10:08.364Z</time>
      </trkpt>
      <trkpt lat="47.498481" lon="7.933011">
        <ele>440.660796</ele>
        <time>2021-11-14T21:10:17.618Z</time>
      </trkpt>
      <trkpt lat="47.498431" lon="7.932995">
        <ele>440.755911</ele>
        <time>2021-11-14T21:10:18.840Z</time>
      </trkpt>
      <trkpt lat="47.498391" lon="7.932972">
        <ele>440.835700</ele>
        <time>2021-11-14T21:10:19.759Z</time>
      </trkpt>
      <trkpt lat="47.498196" lon="7.932613">
        <ele>441.414352</ele>
        <time>2021-11-14T21:10:26.483Z</time>
      </trkpt>
      <trkpt lat="47.498138" lon="7.932522">
        <ele>441.571507</ele>
        <time>2021-11-14T21:10:28.483Z</time>
      </trkpt>
      <trkpt lat="47.498068" lon="7.932426">
        <ele>441.748942</ele>
        <time>2021-11-14T21:10:30.930Z</time>
      </trkpt>
      <trkpt lat="47.497907" lon="7.932254">
        <ele>442.118129</ele>
        <time>2021-11-14T21:10:35.632Z</time>
      </trkpt>
      <trkpt lat="47.497676" lon="7.932013">
        <ele>442.643613</ele>
        <time>2021-11-14T21:10:42.111Z</time>
      </trkpt>
      <trkpt lat="47.497430" lon="7.931757">
        <ele>443.112273</ele>
        <time>2021-11-14T21:10:49.702Z</time>
      </trkpt>
      <trkpt lat="47.497221" lon="7.931528">
        <ele>443.489599</ele>
        <time>2021-11-14T21:10:55.699Z</time>
      </trkpt>
      <trkpt lat="47.497104" lon="7.931414">
        <ele>443.692857</ele>
        <time>2021-11-14T21:10:58.494Z</time>
      </trkpt>
      <trkpt lat="47.496998" lon="7.931330">
        <ele>443.867326</ele>
        <time>2021-11-14T21:11:00.902Z</time>
      </trkpt>
      <trkpt lat="47.496424" lon="7.931075">
        <ele>444.736939</ele>
        <time>2021-11-14T21:11:11.654Z</time>
      </trkpt>
      <trkpt lat="47.496205" lon="7.930904">
        <ele>445.096230</ele>
        <time>2021-11-14T21:11:15.674Z</time>
      </trkpt>
      <trkpt lat="47.496162" lon="7.930842">
        <ele>445.183338</ele>
        <time>2021-11-14T21:11:17.241Z</time>
      </trkpt>
      <trkpt lat="47.496117" lon="7.930763">
        <ele>445.284641</ele>
        <time>2021-11-14T21:11:18.506Z</time>
      </trkpt>
      <trkpt lat="47.496051" lon="7.930607">
        <ele>445.503746</ele>
        <time>2021-11-14T21:11:21.287Z</time>
      </trkpt>
      <trkpt lat="47.495985" lon="7.930428">
        <ele>445.823579</ele>
        <time>2021-11-14T21:11:24.123Z</time>
      </trkpt>
      <trkpt lat="47.495905" lon="7.930196">
        <ele>446.232104</ele>
        <time>2021-11-14T21:11:28.319Z</time>
      </trkpt>
      <trkpt lat="47.495801" lon="7.929891">
        <ele>446.767944</ele>
        <time>2021-11-14T21:11:33.780Z</time>
      </trkpt>
      <trkpt lat="47.495622" lon="7.929400">
        <ele>447.642997</ele>
        <time>2021-11-14T21:11:42.392Z</time>
      </trkpt>
      <trkpt lat="47.495562" lon="7.929221">
        <ele>447.956398</ele>
        <time>2021-11-14T21:11:45.348Z</time>
      </trkpt>
      <trkpt lat="47.495530" lon="7.929063">
        <ele>448.215105</ele>
        <time>2021-11-14T21:11:47.826Z</time>
      </trkpt>
      <trkpt lat="47.495455" lon="7.928595">
        <ele>448.969500</ele>
        <time>2021-11-14T21:11:56.652Z</time>
      </trkpt>
      <trkpt lat="47.495268" lon="7.927740">
        <ele>450.893413</ele>
        <time>2021-11-14T21:12:13.665Z</time>
      </trkpt>
      <trkpt lat="47.495031" lon="7.927006">
        <ele>452.986665</ele>
        <time>2021-11-14T21:12:30.567Z</time>
      </trkpt>
      <trkpt lat="47.494945" lon="7.926765">
        <ele>453.687963</ele>
        <time>2021-11-14T21:12:37.211Z</time>
      </trkpt>
      <trkpt lat="47.494515" lon="7.925509">
        <ele>457.228501</ele>
        <time>2021-11-14T21:13:05.629Z</time>
      </trkpt>
      <trkpt lat="47.494438" lon="7.925289">
        <ele>457.806600</ele>
        <time>2021-11-14T21:13:11.063Z</time>
      </trkpt>
      <trkpt lat="47.494034" lon="7.924101">
        <ele>460.909815</ele>
        <time>2021-11-14T21:13:36.126Z</time>
      </trkpt>
      <trkpt lat="47.493708" lon="7.923049">
        <ele>463.692629</ele>
        <time>2021-11-14T21:13:57.698Z</time>
      </trkpt>
      <trkpt lat="47.493397" lon="7.921760">
        <ele>467.156491</ele>
        <time>2021-11-14T21:14:24.678Z</time>
      </trkpt>
      <trkpt lat="47.493307" lon="7.921373">
        <ele>468.192280</ele>
        <time>2021-11-14T21:14:33.172Z</time>
      </trkpt>
      <trkpt lat="47.493236" lon="7.921091">
        <ele>468.953888</ele>
        <time>2021-11-14T21:14:39.553Z</time>
      </trkpt>
      <trkpt lat="47.493132" lon="7.920716">
        <ele>470.136147</ele>
        <time>2021-11-14T21:14:48.603Z</time>
      </trkpt>
      <trkpt lat="47.492813" lon="7.919900">
        <ele>473.137873</ele>
        <time>2021-11-14T21:15:10.086Z</time>
      </trkpt>
      <trkpt lat="47.492584" lon="7.919482">
        <ele>474.851332</ele>
        <time>2021-11-14T21:15:22.858Z</time>
      </trkpt>
      <trkpt lat="47.492227" lon="7.918989">
        <ele>477.152273</ele>
        <time>2021-11-14T21:15:39.760Z</time>
      </trkpt>
      <trkpt lat="47.491324" lon="7.917985">
        <ele>481.771612</ele>
        <time>2021-11-14T21:16:16.545Z</time>
      </trkpt>
      <trkpt lat="47.490822" lon="7.917158">
        <ele>484.773372</ele>
        <time>2021-11-14T21:16:38.704Z</time>
      </trkpt>
      <trkpt lat="47.490607" lon="7.916690">
        <ele>485.849910</ele>
        <time>2021-11-14T21:16:48.903Z</time>
      </trkpt>
      <trkpt lat="47.490429" lon="7.916164">
        <ele>486.870993</ele>
        <time>2021-11-14T21:16:58.772Z</time>
      </trkpt>
      <trkpt lat="47.490283" lon="7.915612">
        <ele>487.899897</ele>
        <time>2021-11-14T21:17:08.600Z</time>
      </trkpt>
      <trkpt lat="47.489987" lon="7.914083">
        <ele>490.686815</ele>
        <time>2021-11-14T21:17:34.380Z</time>
      </trkpt>
      <trkpt lat="47.489951" lon="7.913893">
        <ele>491.038276</ele>
        <time>2021-11-14T21:17:37.374Z</time>
      </trkpt>
      <trkpt lat="47.489922" lon="7.913738">
        <ele>491.324734</ele>
        <time>2021-11-14T21:17:39.879Z</time>
      </trkpt>
      <trkpt lat="47.489843" lon="7.913398">
        <ele>491.965110</ele>
        <time>2021-11-14T21:17:45.226Z</time>
      </trkpt>
      <trkpt lat="47.489607" lon="7.912646">
        <ele>493.441908</ele>
        <time>2021-11-14T21:17:59.455Z</time>
      </trkpt>
      <trkpt lat="47.489216" lon="7.911685">
        <ele>496.003852</ele>
        <time>2021-11-14T21:18:21.769Z</time>
      </trkpt>
      <trkpt lat="47.489040" lon="7.911300">
        <ele>497.280107</ele>
        <time>2021-11-14T21:18:31.236Z</time>
      </trkpt>
      <trkpt lat="47.488908" lon="7.911009">
        <ele>498.242422</ele>
        <time>2021-11-14T21:18:39.796Z</time>
      </trkpt>
      <trkpt lat="47.488699" lon="7.910498">
        <ele>499.882449</ele>
        <time>2021-11-14T21:18:53.459Z</time>
      </trkpt>
      <trkpt lat="47.488366" lon="7.909318">
        <ele>503.063699</ele>
        <time>2021-11-14T21:19:19.332Z</time>
      </trkpt>
      <trkpt lat="47.488241" lon="7.908835">
        <ele>504.206102</ele>
        <time>2021-11-14T21:19:28.519Z</time>
      </trkpt>
      <trkpt lat="47.488185" lon="7.908663">
        <ele>504.627810</ele>
        <time>2021-11-14T21:19:32.570Z</time>
      </trkpt>
      <trkpt lat="47.488080" lon="7.908344">
        <ele>505.411556</ele>
        <time>2021-11-14T21:19:38.532Z</time>
      </trkpt>
      <trkpt lat="47.487763" lon="7.907711">
        <ele>507.151818</ele>
        <time>2021-11-14T21:19:53.589Z</time>
      </trkpt>
      <trkpt lat="47.487587" lon="7.907459">
        <ele>508.043239</ele>
        <time>2021-11-14T21:20:00.049Z</time>
      </trkpt>
      <trkpt lat="47.487378" lon="7.907191">
        <ele>509.171565</ele>
        <time>2021-11-14T21:20:07.247Z</time>
      </trkpt>
      <trkpt lat="47.487197" lon="7.906946">
        <ele>510.172391</ele>
        <time>2021-11-14T21:20:13.388Z</time>
      </trkpt>
      <trkpt lat="47.486969" lon="7.906583">
        <ele>511.538784</ele>
        <time>2021-11-14T21:20:21.697Z</time>
      </trkpt>
      <trkpt lat="47.486769" lon="7.905976">
        <ele>513.400698</ele>
        <time>2021-11-14T21:20:37.726Z</time>
      </trkpt>
      <trkpt lat="47.486724" lon="7.905485">
        <ele>514.766844</ele>
        <time>2021-11-14T21:20:50.398Z</time>
      </trkpt>
      <trkpt lat="47.486755" lon="7.904487">
        <ele>518.818626</ele>
        <time>2021-11-14T21:21:17.263Z</time>
      </trkpt>
      <trkpt lat="47.486721" lon="7.904326">
        <ele>519.516020</ele>
        <time>2021-11-14T21:21:22.280Z</time>
      </trkpt>
      <trkpt lat="47.486688" lon="7.904238">
        <ele>519.932119</ele>
        <time>2021-11-14T21:21:25.435Z</time>
      </trkpt>
      <trkpt lat="47.486480" lon="7.904016">
        <ele>521.501175</ele>
        <time>2021-11-14T21:21:34.539Z</time>
      </trkpt>
      <trkpt lat="47.486247" lon="7.904043">
        <ele>522.931085</ele>
        <time>2021-11-14T21:21:43.205Z</time>
      </trkpt>
      <trkpt lat="47.486049" lon="7.904262">
        <ele>524.443486</ele>
        <time>2021-11-14T21:21:54.602Z</time>
      </trkpt>
      <trkpt lat="47.485593" lon="7.905145">
        <ele>527.459508</ele>
        <time>2021-11-14T21:22:24.368Z</time>
      </trkpt>
      <trkpt lat="47.485331" lon="7.905337">
        <ele>528.340017</ele>
        <time>2021-11-14T21:22:32.952Z</time>
      </trkpt>
      <trkpt lat="47.485073" lon="7.905345">
        <ele>529.117193</ele>
        <time>2021-11-14T21:22:39.565Z</time>
      </trkpt>
      <trkpt lat="47.485049" lon="7.905336">
        <ele>529.191758</ele>
        <time>2021-11-14T21:22:41.162Z</time>
      </trkpt>
      <trkpt lat="47.484936" lon="7.905289">
        <ele>529.545262</ele>
        <time>2021-11-14T21:22:43.790Z</time>
      </trkpt>
      <trkpt lat="47.484713" lon="7.905133">
        <ele>530.288126</ele>
        <time>2021-11-14T21:22:49.410Z</time>
      </trkpt>
      <trkpt lat="47.484481" lon="7.904947">
        <ele>531.082789</ele>
        <time>2021-11-14T21:22:52.787Z</time>
      </trkpt>
      <trkpt lat="47.484248" lon="7.904856">
        <ele>530.719995</ele>
        <time>2021-11-14T21:22:55.815Z</time>
      </trkpt>
      <trkpt lat="47.484124" lon="7.904824">
        <ele>530.207149</ele>
        <time>2021-11-14T21:22:57.293Z</time>
      </trkpt>
      <trkpt lat="47.484064" lon="7.904808">
        <ele>529.958750</ele>
        <time>2021-11-14T21:22:57.961Z</time>
      </trkpt>
      <trkpt lat="47.484005" lon="7.904793">
        <ele>529.714840</ele>
        <time>2021-11-14T21:22:58.693Z</time>
      </trkpt>
      <trkpt lat="47.483385" lon="7.904708">
        <ele>527.177921</ele>
        <time>2021-11-14T21:23:05.147Z</time>
      </trkpt>
      <trkpt lat="47.483329" lon="7.904705">
        <ele>526.949607</ele>
        <time>2021-11-14T21:23:05.654Z</time>
      </trkpt>
      <trkpt lat="47.483101" lon="7.904680">
        <ele>526.018107</ele>
        <time>2021-11-14T21:23:07.784Z</time>
      </trkpt>
      <trkpt lat="47.482433" lon="7.904538">
        <ele>522.769127</ele>
        <time>2021-11-14T21:23:13.755Z</time>
      </trkpt>
      <trkpt lat="47.482157" lon="7.904346">
        <ele>520.698162</ele>
        <time>2021-11-14T21:23:16.468Z</time>
      </trkpt>
      <trkpt lat="47.481709" lon="7.903892">
        <ele>517.010953</ele>
        <time>2021-11-14T21:23:21.307Z</time>
      </trkpt>
      <trkpt lat="47.481588" lon="7.903776">
        <ele>516.031923</ele>
        <time>2021-11-14T21:23:22.593Z</time>
      </trkpt>
      <trkpt lat="47.481478" lon="7.903693">
        <ele>515.193455</ele>
        <time>2021-11-14T21:23:23.725Z</time>
      </trkpt>
      <trkpt lat="47.480980" lon="7.903461">
        <ele>511.684232</ele>
        <time>2021-11-14T21:23:28.556Z</time>
      </trkpt>
      <trkpt lat="47.478367" lon="7.903166">
        <ele>497.460878</ele>
        <time>2021-11-14T21:23:53.189Z</time>
      </trkpt>
      <trkpt lat="47.478182" lon="7.903109">
        <ele>496.351703</ele>
        <time>2021-11-14T21:23:54.932Z</time>
      </trkpt>
      <trkpt lat="47.478118" lon="7.903075">
        <ele>495.952565</ele>
        <time>2021-11-14T21:23:55.530Z</time>
      </trkpt>
      <trkpt lat="47.476982" lon="7.902234">
        <ele>488.297057</ele>
        <time>2021-11-14T21:24:07.024Z</time>
      </trkpt>
      <trkpt lat="47.476536" lon="7.901977">
        <ele>485.321176</ele>
        <time>2021-11-14T21:24:11.392Z</time>
      </trkpt>
      <trkpt lat="47.476364" lon="7.901870">
        <ele>484.161084</ele>
        <time>2021-11-14T21:24:13.087Z</time>
      </trkpt>
      <trkpt lat="47.475300" lon="7.901112">
        <ele>477.319758</ele>
        <time>2021-11-14T21:24:23.995Z</time>
      </trkpt>
      <trkpt lat="47.475163" lon="7.901034">
        <ele>476.525508</ele>
        <time>2021-11-14T21:24:25.322Z</time>
      </trkpt>
      <trkpt lat="47.474888" lon="7.900841">
        <ele>474.878659</ele>
        <time>2021-11-14T21:24:28.174Z</time>
      </trkpt>
      <trkpt lat="47.474617" lon="7.900560">
        <ele>473.088112</ele>
        <time>2021-11-14T21:24:31.303Z</time>
      </trkpt>
      <trkpt lat="47.474336" lon="7.900125">
        <ele>470.894631</ele>
        <time>2021-11-14T21:24:35.145Z</time>
      </trkpt>
      <trkpt lat="47.474186" lon="7.899915">
        <ele>469.908222</ele>
        <time>2021-11-14T21:24:37.080Z</time>
      </trkpt>
      <trkpt lat="47.474087" lon="7.899774">
        <ele>469.251842</ele>
        <time>2021-11-14T21:24:38.391Z</time>
      </trkpt>
      <trkpt lat="47.473931" lon="7.899567">
        <ele>468.250915</ele>
        <time>2021-11-14T21:24:40.351Z</time>
      </trkpt>
      <trkpt lat="47.473317" lon="7.898945">
        <ele>464.696508</ele>
        <time>2021-11-14T21:24:47.591Z</time>
      </trkpt>
      <trkpt lat="47.471910" lon="7.898392">
        <ele>457.332785</ele>
        <time>2021-11-14T21:25:01.185Z</time>
      </trkpt>
      <trkpt lat="47.471825" lon="7.898370">
        <ele>456.883982</ele>
        <time>2021-11-14T21:25:01.973Z</time>
      </trkpt>
      <trkpt lat="47.471597" lon="7.898344">
        <ele>455.694630</ele>
        <time>2021-11-14T21:25:04.125Z</time>
      </trkpt>
      <trkpt lat="47.471002" lon="7.898222">
        <ele>452.721361</ele>
        <time>2021-11-14T21:25:09.720Z</time>
      </trkpt>
      <trkpt lat="47.469999" lon="7.897879">
        <ele>449.240029</ele>
        <time>2021-11-14T21:25:19.720Z</time>
      </trkpt>
      <trkpt lat="47.469806" lon="7.897795">
        <ele>448.559692</ele>
        <time>2021-11-14T21:25:21.861Z</time>
      </trkpt>
      <trkpt lat="47.469534" lon="7.897638">
        <ele>447.572320</ele>
        <time>2021-11-14T21:25:25.080Z</time>
      </trkpt>
      <trkpt lat="47.469456" lon="7.897860">
        <ele>447.000372</ele>
        <time>2021-11-14T21:25:27.148Z</time>
      </trkpt>
      <trkpt lat="47.469155" lon="7.898409">
        <ele>446.739881</ele>
        <time>2021-11-14T21:25:32.653Z</time>
      </trkpt>
      <trkpt lat="47.469026" lon="7.898570">
        <ele>446.673140</ele>
        <time>2021-11-14T21:25:34.818Z</time>
      </trkpt>
      <trkpt lat="47.468974" lon="7.898632">
        <ele>446.646730</ele>
        <time>2021-11-14T21:25:35.753Z</time>
      </trkpt>
      <trkpt lat="47.468719" lon="7.898908">
        <ele>446.521785</ele>
        <time>2021-11-14T21:25:39.834Z</time>
      </trkpt>
      <trkpt lat="47.468595" lon="7.899046">
        <ele>446.460424</ele>
        <time>2021-11-14T21:25:41.975Z</time>
      </trkpt>
      <trkpt lat="47.468210" lon="7.899465">
        <ele>446.271419</ele>
        <time>2021-11-14T21:25:50.307Z</time>
      </trkpt>
      <trkpt lat="47.467978" lon="7.899694">
        <ele>446.378086</ele>
        <time>2021-11-14T21:25:55.044Z</time>
      </trkpt>
      <trkpt lat="47.467778" lon="7.899859">
        <ele>446.705692</ele>
        <time>2021-11-14T21:25:59.415Z</time>
      </trkpt>
      <trkpt lat="47.467497" lon="7.900103">
        <ele>447.171827</ele>
        <time>2021-11-14T21:26:05.509Z</time>
      </trkpt>
      <trkpt lat="47.467245" lon="7.900444">
        <ele>447.660417</ele>
        <time>2021-11-14T21:26:12.383Z</time>
      </trkpt>
      <trkpt lat="47.467108" lon="7.900644">
        <ele>447.935777</ele>
        <time>2021-11-14T21:26:16.470Z</time>
      </trkpt>
      <trkpt lat="47.466605" lon="7.901426">
        <ele>449.093595</ele>
        <time>2021-11-14T21:26:33.362Z</time>
      </trkpt>
      <trkpt lat="47.466371" lon="7.901784">
        <ele>449.851601</ele>
        <time>2021-11-14T21:26:41.492Z</time>
      </trkpt>
      <trkpt lat="47.465938" lon="7.902461">
        <ele>451.270245</ele>
        <time>2021-11-14T21:26:56.935Z</time>
      </trkpt>
      <trkpt lat="47.465643" lon="7.902890">
        <ele>452.201727</ele>
        <time>2021-11-14T21:27:06.942Z</time>
      </trkpt>
      <trkpt lat="47.465577" lon="7.902991">
        <ele>452.415554</ele>
        <time>2021-11-14T21:27:09.257Z</time>
      </trkpt>
      <trkpt lat="47.465231" lon="7.903593">
        <ele>453.528796</ele>
        <time>2021-11-14T21:27:21.364Z</time>
      </trkpt>
      <trkpt lat="47.463753" lon="7.907066">
        <ele>459.481956</ele>
        <time>2021-11-14T21:28:24.213Z</time>
      </trkpt>
      <trkpt lat="47.463375" lon="7.907958">
        <ele>461.147340</ele>
        <time>2021-11-14T21:28:43.832Z</time>
      </trkpt>
      <trkpt lat="47.463144" lon="7.908499">
        <ele>462.185262</ele>
        <time>2021-11-14T21:28:55.467Z</time>
      </trkpt>
      <trkpt lat="47.463026" lon="7.908779">
        <ele>462.720466</ele>
        <time>2021-11-14T21:29:01.858Z</time>
      </trkpt>
      <trkpt lat="47.461915" lon="7.911456">
        <ele>466.369315</ele>
        <time>2021-11-14T21:29:47.360Z</time>
      </trkpt>
      <trkpt lat="47.461598" lon="7.912222">
        <ele>467.098121</ele>
        <time>2021-11-14T21:29:57.071Z</time>
      </trkpt>
      <trkpt lat="47.461501" lon="7.912447">
        <ele>467.267325</ele>
        <time>2021-11-14T21:30:00.593Z</time>
      </trkpt>
      <trkpt lat="47.461343" lon="7.912835">
        <ele>467.554526</ele>
        <time>2021-11-14T21:30:05.736Z</time>
      </trkpt>
      <trkpt lat="47.461328" lon="7.912870">
        <ele>467.580802</ele>
        <time>2021-11-14T21:30:06.339Z</time>
      </trkpt>
      <trkpt lat="47.461271" lon="7.913000">
        <ele>467.679049</ele>
        <time>2021-11-14T21:30:07.889Z</time>
      </trkpt>
      <trkpt lat="47.461207" lon="7.913109">
        <ele>467.770590</ele>
        <time>2021-11-14T21:30:09.303Z</time>
      </trkpt>
      <trkpt lat="47.461143" lon="7.913171">
        <ele>467.842341</ele>
        <time>2021-11-14T21:30:10.478Z</time>
      </trkpt>
      <trkpt lat="47.461110" lon="7.913192">
        <ele>467.876034</ele>
        <time>2021-11-14T21:30:11.467Z</time>
      </trkpt>
      <trkpt lat="47.460750" lon="7.913229">
        <ele>468.214479</ele>
        <time>2021-11-14T21:30:17.778Z</time>
      </trkpt>
      <trkpt lat="47.460713" lon="7.913273">
        <ele>468.259004</ele>
        <time>2021-11-14T21:30:18.990Z</time>
      </trkpt>
      <trkpt lat="47.460667" lon="7.913326">
        <ele>468.313691</ele>
        <time>2021-11-14T21:30:19.882Z</time>
      </trkpt>
      <trkpt lat="47.460392" lon="7.913767">
        <ele>468.694103</ele>
        <time>2021-11-14T21:30:27.860Z</time>
      </trkpt>
      <trkpt lat="47.460317" lon="7.913896">
        <ele>468.848807</ele>
        <time>2021-11-14T21:30:30.205Z</time>
      </trkpt>
      <trkpt lat="47.460275" lon="7.913960">
        <ele>468.967123</ele>
        <time>2021-11-14T21:30:31.605Z</time>
      </trkpt>
      <trkpt lat="47.460201" lon="7.914138">
        <ele>469.244317</ele>
        <time>2021-11-14T21:30:35.333Z</time>
      </trkpt>
      <trkpt lat="47.460176" lon="7.914247">
        <ele>469.397005</ele>
        <time>2021-11-14T21:30:37.124Z</time>
      </trkpt>
      <trkpt lat="47.460169" lon="7.914287">
        <ele>469.451815</ele>
        <time>2021-11-14T21:30:37.728Z</time>
      </trkpt>
      <trkpt lat="47.460149" lon="7.914781">
        <ele>470.108307</ele>
        <time>2021-11-14T21:30:45.928Z</time>
      </trkpt>
      <trkpt lat="47.460145" lon="7.914955">
        <ele>470.339261</ele>
        <time>2021-11-14T21:30:48.304Z</time>
      </trkpt>
      <trkpt lat="47.460128" lon="7.915061">
        <ele>470.483778</ele>
        <time>2021-11-14T21:30:50.353Z</time>
      </trkpt>
      <trkpt lat="47.460080" lon="7.915335">
        <ele>470.859257</ele>
        <time>2021-11-14T21:30:54.581Z</time>
      </trkpt>
      <trkpt lat="47.459932" lon="7.915673">
        <ele>471.393452</ele>
        <time>2021-11-14T21:31:00.135Z</time>
      </trkpt>
      <trkpt lat="47.459878" lon="7.915750">
        <ele>471.540623</ele>
        <time>2021-11-14T21:31:01.990Z</time>
      </trkpt>
      <trkpt lat="47.459714" lon="7.915951">
        <ele>471.958520</ele>
        <time>2021-11-14T21:31:07.107Z</time>
      </trkpt>
      <trkpt lat="47.459166" lon="7.916411">
        <ele>473.407457</ele>
        <time>2021-11-14T21:31:21.464Z</time>
      </trkpt>
      <trkpt lat="47.458642" lon="7.917084">
        <ele>475.088451</ele>
        <time>2021-11-14T21:31:38.463Z</time>
      </trkpt>
      <trkpt lat="47.458598" lon="7.917139">
        <ele>475.227993</ele>
        <time>2021-11-14T21:31:40.175Z</time>
      </trkpt>
      <trkpt lat="47.458522" lon="7.917237">
        <ele>475.472220</ele>
        <time>2021-11-14T21:31:42.857Z</time>
      </trkpt>
      <trkpt lat="47.458384" lon="7.917415">
        <ele>475.915743</ele>
        <time>2021-11-14T21:31:46.632Z</time>
      </trkpt>
      <trkpt lat="47.458100" lon="7.917739">
        <ele>476.838947</ele>
        <time>2021-11-14T21:31:56.017Z</time>
      </trkpt>
      <trkpt lat="47.457956" lon="7.917906">
        <ele>477.454897</ele>
        <time>2021-11-14T21:32:01.345Z</time>
      </trkpt>
      <trkpt lat="47.457642" lon="7.918271">
        <ele>478.799202</ele>
        <time>2021-11-14T21:32:11.871Z</time>
      </trkpt>
      <trkpt lat="47.457242" lon="7.918756">
        <ele>480.540238</ele>
        <time>2021-11-14T21:32:26.128Z</time>
      </trkpt>
      <trkpt lat="47.456987" lon="7.919065">
        <ele>481.649881</ele>
        <time>2021-11-14T21:32:35.241Z</time>
      </trkpt>
      <trkpt lat="47.456385" lon="7.919748">
        <ele>484.875776</ele>
        <time>2021-11-14T21:32:59.800Z</time>
      </trkpt>
      <trkpt lat="47.456129" lon="7.920029">
        <ele>486.428126</ele>
        <time>2021-11-14T21:33:11.061Z</time>
      </trkpt>
      <trkpt lat="47.456040" lon="7.920152">
        <ele>487.021257</ele>
        <time>2021-11-14T21:33:15.447Z</time>
      </trkpt>
      <trkpt lat="47.455957" lon="7.920269">
        <ele>487.579582</ele>
        <time>2021-11-14T21:33:19.827Z</time>
      </trkpt>
      <trkpt lat="47.455855" lon="7.920456">
        <ele>488.370622</ele>
        <time>2021-11-14T21:33:24.905Z</time>
      </trkpt>
      <trkpt lat="47.455748" lon="7.920682">
        <ele>489.278985</ele>
        <time>2021-11-14T21:33:32.078Z</time>
      </trkpt>
      <trkpt lat="47.455440" lon="7.921283">
        <ele>491.741074</ele>
        <time>2021-11-14T21:33:49.622Z</time>
      </trkpt>
      <trkpt lat="47.454712" lon="7.922385">
        <ele>496.467388</ele>
        <time>2021-11-14T21:34:27.387Z</time>
      </trkpt>
      <trkpt lat="47.453985" lon="7.923101">
        <ele>500.292380</ele>
        <time>2021-11-14T21:34:52.185Z</time>
      </trkpt>
      <trkpt lat="47.453705" lon="7.923389">
        <ele>501.577293</ele>
        <time>2021-11-14T21:35:01.394Z</time>
      </trkpt>
      <trkpt lat="47.453630" lon="7.923466">
        <ele>501.921259</ele>
        <time>2021-11-14T21:35:04.379Z</time>
      </trkpt>
      <trkpt lat="47.453323" lon="7.923836">
        <ele>503.413273</ele>
        <time>2021-11-14T21:35:17.535Z</time>
      </trkpt>
      <trkpt lat="47.453061" lon="7.924274">
        <ele>504.902993</ele>
        <time>2021-11-14T21:35:29.857Z</time>
      </trkpt>
      <trkpt lat="47.452895" lon="7.924692">
        <ele>506.137905</ele>
        <time>2021-11-14T21:35:39.476Z</time>
      </trkpt>
      <trkpt lat="47.452841" lon="7.924858">
        <ele>506.565332</ele>
        <time>2021-11-14T21:35:42.692Z</time>
      </trkpt>
      <trkpt lat="47.452775" lon="7.925095">
        <ele>507.090242</ele>
        <time>2021-11-14T21:35:47.512Z</time>
      </trkpt>
      <trkpt lat="47.452753" lon="7.925193">
        <ele>507.301711</ele>
        <time>2021-11-14T21:35:49.769Z</time>
      </trkpt>
      <trkpt lat="47.452688" lon="7.925482">
        <ele>507.925446</ele>
        <time>2021-11-14T21:35:55.397Z</time>
      </trkpt>
      <trkpt lat="47.452590" lon="7.926029">
        <ele>509.084324</ele>
        <time>2021-11-14T21:36:05.704Z</time>
      </trkpt>
      <trkpt lat="47.452413" lon="7.926831">
        <ele>510.812046</ele>
        <time>2021-11-14T21:36:21.497Z</time>
      </trkpt>
      <trkpt lat="47.451879" lon="7.928656">
        <ele>517.851014</ele>
        <time>2021-11-14T21:36:54.089Z</time>
      </trkpt>
      <trkpt lat="47.451867" lon="7.928698">
        <ele>518.035413</ele>
        <time>2021-11-14T21:36:55.468Z</time>
      </trkpt>
      <trkpt lat="47.451764" lon="7.929065">
        <ele>519.642426</ele>
        <time>2021-11-14T21:37:09.426Z</time>
      </trkpt>
      <trkpt lat="47.451446" lon="7.929790">
        <ele>523.582994</ele>
        <time>2021-11-14T21:37:42.345Z</time>
      </trkpt>
      <trkpt lat="47.451281" lon="7.930030">
        <ele>526.111952</ele>
        <time>2021-11-14T21:37:56.214Z</time>
      </trkpt>
      <trkpt lat="47.451050" lon="7.930364">
        <ele>529.642152</ele>
        <time>2021-11-14T21:38:19.178Z</time>
      </trkpt>
      <trkpt lat="47.451006" lon="7.930461">
        <ele>530.505223</ele>
        <time>2021-11-14T21:38:22.218Z</time>
      </trkpt>
      <trkpt lat="47.450968" lon="7.930596">
        <ele>531.585731</ele>
        <time>2021-11-14T21:38:31.854Z</time>
      </trkpt>
      <trkpt lat="47.450961" lon="7.930883">
        <ele>533.707799</ele>
        <time>2021-11-14T21:38:42.219Z</time>
      </trkpt>
      <trkpt lat="47.451186" lon="7.931561">
        <ele>539.288415</ele>
        <time>2021-11-14T21:39:12.176Z</time>
      </trkpt>
      <trkpt lat="47.451193" lon="7.931724">
        <ele>540.495270</ele>
        <time>2021-11-14T21:39:16.084Z</time>
      </trkpt>
      <trkpt lat="47.451167" lon="7.931778">
        <ele>540.985094</ele>
        <time>2021-11-14T21:39:20.898Z</time>
      </trkpt>
      <trkpt lat="47.451114" lon="7.931844">
        <ele>541.742218</ele>
        <time>2021-11-14T21:39:21.553Z</time>
      </trkpt>
      <trkpt lat="47.450600" lon="7.931396">
        <ele>544.886545</ele>
        <time>2021-11-14T21:39:52.850Z</time>
      </trkpt>
      <trkpt lat="47.450538" lon="7.931342">
        <ele>545.231184</ele>
        <time>2021-11-14T21:39:59.303Z</time>
      </trkpt>
      <trkpt lat="47.450315" lon="7.931284">
        <ele>546.315676</ele>
        <time>2021-11-14T21:40:01.999Z</time>
      </trkpt>
      <trkpt lat="47.450049" lon="7.931360">
        <ele>547.613293</ele>
        <time>2021-11-14T21:40:09.161Z</time>
      </trkpt>
      <trkpt lat="47.448858" lon="7.932257">
        <ele>554.364370</ele>
        <time>2021-11-14T21:40:40.332Z</time>
      </trkpt>
      <trkpt lat="47.448660" lon="7.932571">
        <ele>555.909301</ele>
        <time>2021-11-14T21:40:50.724Z</time>
      </trkpt>
      <trkpt lat="47.448565" lon="7.932932">
        <ele>557.303250</ele>
        <time>2021-11-14T21:41:00.794Z</time>
      </trkpt>
      <trkpt lat="47.448531" lon="7.933279">
        <ele>558.564968</ele>
        <time>2021-11-14T21:41:11.490Z</time>
      </trkpt>
      <trkpt lat="47.448498" lon="7.933724">
        <ele>560.175899</ele>
        <time>2021-11-14T21:41:27.085Z</time>
      </trkpt>
      <trkpt lat="47.448301" lon="7.935459">
        <ele>568.823738</ele>
        <time>2021-11-14T21:42:27.078Z</time>
      </trkpt>
      <trkpt lat="47.448312" lon="7.935847">
        <ele>570.754777</ele>
        <time>2021-11-14T21:42:38.407Z</time>
      </trkpt>
      <trkpt lat="47.448315" lon="7.935953">
        <ele>571.282328</ele>
        <time>2021-11-14T21:42:40.495Z</time>
      </trkpt>
      <trkpt lat="47.448346" lon="7.936408">
        <ele>573.556285</ele>
        <time>2021-11-14T21:42:50.781Z</time>
      </trkpt>
      <trkpt lat="47.448362" lon="7.936645">
        <ele>574.037942</ele>
        <time>2021-11-14T21:42:55.623Z</time>
      </trkpt>
      <trkpt lat="47.448450" lon="7.937177">
        <ele>574.983854</ele>
        <time>2021-11-14T21:43:06.831Z</time>
      </trkpt>
      <trkpt lat="47.448600" lon="7.937601">
        <ele>575.810301</ele>
        <time>2021-11-14T21:43:16.075Z</time>
      </trkpt>
      <trkpt lat="47.448694" lon="7.937926">
        <ele>576.420794</ele>
        <time>2021-11-14T21:43:22.645Z</time>
      </trkpt>
      <trkpt lat="47.448743" lon="7.938101">
        <ele>576.747921</ele>
        <time>2021-11-14T21:43:24.886Z</time>
      </trkpt>
      <trkpt lat="47.448891" lon="7.938583">
        <ele>577.662177</ele>
        <time>2021-11-14T21:43:30.880Z</time>
      </trkpt>
      <trkpt lat="47.449074" lon="7.939072">
        <ele>578.521175</ele>
        <time>2021-11-14T21:43:37.169Z</time>
      </trkpt>
      <trkpt lat="47.449121" lon="7.939164">
        <ele>578.663097</ele>
        <time>2021-11-14T21:43:38.994Z</time>
      </trkpt>
      <trkpt lat="47.449095" lon="7.939194">
        <ele>578.723123</ele>
        <time>2021-11-14T21:43:39.412Z</time>
      </trkpt>
      <trkpt lat="47.448995" lon="7.939236">
        <ele>578.912339</ele>
        <time>2021-11-14T21:43:40.836Z</time>
      </trkpt>
      <trkpt lat="47.448737" lon="7.939187">
        <ele>579.385798</ele>
        <time>2021-11-14T21:43:45.793Z</time>
      </trkpt>
      <trkpt lat="47.448632" lon="7.939166">
        <ele>579.578656</ele>
        <time>2021-11-14T21:43:47.328Z</time>
      </trkpt>
      <trkpt lat="47.448566" lon="7.939145">
        <ele>579.701536</ele>
        <time>2021-11-14T21:43:48.552Z</time>
      </trkpt>
      <trkpt lat="47.448504" lon="7.939113">
        <ele>579.821063</ele>
        <time>2021-11-14T21:43:49.951Z</time>
      </trkpt>
      <trkpt lat="47.448323" lon="7.938940">
        <ele>580.213341</ele>
        <time>2021-11-14T21:43:54.178Z</time>
      </trkpt>
      <trkpt lat="47.448076" lon="7.938764">
        <ele>580.712395</ele>
        <time>2021-11-14T21:44:01.762Z</time>
      </trkpt>
      <trkpt lat="47.447884" lon="7.938706">
        <ele>581.069084</ele>
        <time>2021-11-14T21:44:07.200Z</time>
      </trkpt>
      <trkpt lat="47.447622" lon="7.938729">
        <ele>581.581035</ele>
        <time>2021-11-14T21:44:12.868Z</time>
      </trkpt>
      <trkpt lat="47.447579" lon="7.938758">
        <ele>581.858773</ele>
        <time>2021-11-14T21:44:14.715Z</time>
      </trkpt>
      <trkpt lat="47.447514" lon="7.938816">
        <ele>582.304915</ele>
        <time>2021-11-14T21:44:17.139Z</time>
      </trkpt>
      <trkpt lat="47.447375" lon="7.938987">
        <ele>583.367503</ele>
        <time>2021-11-14T21:44:21.210Z</time>
      </trkpt>
      <trkpt lat="47.447148" lon="7.939307">
        <ele>585.210571</ele>
        <time>2021-11-14T21:44:33.181Z</time>
      </trkpt>
      <trkpt lat="47.447088" lon="7.939400">
        <ele>585.721387</ele>
        <time>2021-11-14T21:44:36.534Z</time>
      </trkpt>
      <trkpt lat="47.447023" lon="7.939500">
        <ele>586.272618</ele>
        <time>2021-11-14T21:44:41.952Z</time>
      </trkpt>
      <trkpt lat="47.446911" lon="7.939640">
        <ele>587.134465</ele>
        <time>2021-11-14T21:44:46.771Z</time>
      </trkpt>
      <trkpt lat="47.446714" lon="7.939663">
        <ele>588.295772</ele>
        <time>2021-11-14T21:44:55.809Z</time>
      </trkpt>
      <trkpt lat="47.446350" lon="7.939484">
        <ele>590.550069</ele>
        <time>2021-11-14T21:45:12.495Z</time>
      </trkpt>
      <trkpt lat="47.446200" lon="7.939305">
        <ele>591.682821</ele>
        <time>2021-11-14T21:45:19.012Z</time>
      </trkpt>
      <trkpt lat="47.446136" lon="7.939210">
        <ele>592.206927</ele>
        <time>2021-11-14T21:45:24.191Z</time>
      </trkpt>
      <trkpt lat="47.445987" lon="7.938989">
        <ele>593.351471</ele>
        <time>2021-11-14T21:45:33.456Z</time>
      </trkpt>
      <trkpt lat="47.445739" lon="7.938730">
        <ele>594.998083</ele>
        <time>2021-11-14T21:45:47.666Z</time>
      </trkpt>
      <trkpt lat="47.445088" lon="7.938426">
        <ele>598.700522</ele>
        <time>2021-11-14T21:46:14.031Z</time>
      </trkpt>
      <trkpt lat="47.444935" lon="7.938269">
        <ele>599.710519</ele>
        <time>2021-11-14T21:46:20.312Z</time>
      </trkpt>
      <trkpt lat="47.444544" lon="7.937668">
        <ele>601.739892</ele>
        <time>2021-11-14T21:46:35.957Z</time>
      </trkpt>
      <trkpt lat="47.444304" lon="7.937471">
        <ele>601.550556</ele>
        <time>2021-11-14T21:46:41.156Z</time>
      </trkpt>
      <trkpt lat="47.444146" lon="7.937399">
        <ele>601.436518</ele>
        <time>2021-11-14T21:46:44.002Z</time>
      </trkpt>
      <trkpt lat="47.444030" lon="7.937346">
        <ele>601.352774</ele>
        <time>2021-11-14T21:46:45.882Z</time>
      </trkpt>
      <trkpt lat="47.443821" lon="7.937284">
        <ele>601.205744</ele>
        <time>2021-11-14T21:46:48.714Z</time>
      </trkpt>
      <trkpt lat="47.443543" lon="7.937251">
        <ele>601.013378</ele>
        <time>2021-11-14T21:46:52.014Z</time>
      </trkpt>
      <trkpt lat="47.442638" lon="7.937187">
        <ele>598.895773</ele>
        <time>2021-11-14T21:47:01.197Z</time>
      </trkpt>
      <trkpt lat="47.441541" lon="7.937289">
        <ele>593.151902</ele>
        <time>2021-11-14T21:47:11.200Z</time>
      </trkpt>
      <trkpt lat="47.441000" lon="7.937143">
        <ele>590.566587</ele>
        <time>2021-11-14T21:47:16.406Z</time>
      </trkpt>
      <trkpt lat="47.440806" lon="7.937210">
        <ele>589.845617</ele>
        <time>2021-11-14T21:47:18.217Z</time>
      </trkpt>
      <trkpt lat="47.440583" lon="7.937384">
        <ele>588.933110</ele>
        <time>2021-11-14T21:47:20.787Z</time>
      </trkpt>
      <trkpt lat="47.440535" lon="7.937445">
        <ele>588.704052</ele>
        <time>2021-11-14T21:47:21.320Z</time>
      </trkpt>
      <trkpt lat="47.440493" lon="7.937497">
        <ele>588.505804</ele>
        <time>2021-11-14T21:47:22.838Z</time>
      </trkpt>
      <trkpt lat="47.440276" lon="7.938174">
        <ele>586.672056</ele>
        <time>2021-11-14T21:47:28.058Z</time>
      </trkpt>
      <trkpt lat="47.440111" lon="7.938384">
        <ele>585.884168</ele>
        <time>2021-11-14T21:47:30.223Z</time>
      </trkpt>
      <trkpt lat="47.439973" lon="7.938391">
        <ele>585.384463</ele>
        <time>2021-11-14T21:47:31.882Z</time>
      </trkpt>
      <trkpt lat="47.439513" lon="7.938183">
        <ele>584.052591</ele>
        <time>2021-11-14T21:47:36.936Z</time>
      </trkpt>
      <trkpt lat="47.439305" lon="7.937977">
        <ele>583.494956</ele>
        <time>2021-11-14T21:47:39.839Z</time>
      </trkpt>
      <trkpt lat="47.439053" lon="7.937594">
        <ele>582.689977</ele>
        <time>2021-11-14T21:47:44.070Z</time>
      </trkpt>
      <trkpt lat="47.438795" lon="7.937030">
        <ele>581.664201</ele>
        <time>2021-11-14T21:47:49.027Z</time>
      </trkpt>
      <trkpt lat="47.438488" lon="7.936601">
        <ele>580.723292</ele>
        <time>2021-11-14T21:47:53.348Z</time>
      </trkpt>
      <trkpt lat="47.438097" lon="7.936295">
        <ele>580.210509</ele>
        <time>2021-11-14T21:47:57.921Z</time>
      </trkpt>
      <trkpt lat="47.437455" lon="7.935929">
        <ele>579.430049</ele>
        <time>2021-11-14T21:48:05.438Z</time>
      </trkpt>
      <trkpt lat="47.437163" lon="7.935805">
        <ele>579.085452</ele>
        <time>2021-11-14T21:48:09.624Z</time>
      </trkpt>
      <trkpt lat="47.436959" lon="7.935813">
        <ele>578.853981</ele>
        <time>2021-11-14T21:48:15.193Z</time>
      </trkpt>
      <trkpt lat="47.436817" lon="7.935819">
        <ele>578.692850</ele>
        <time>2021-11-14T21:48:16.705Z</time>
      </trkpt>
      <trkpt lat="47.436754" lon="7.935830">
        <ele>578.696495</ele>
        <time>2021-11-14T21:48:19.077Z</time>
      </trkpt>
      <trkpt lat="47.436645" lon="7.935783">
        <ele>578.811832</ele>
        <time>2021-11-14T21:48:22.271Z</time>
      </trkpt>
      <trkpt lat="47.436379" lon="7.935508">
        <ele>579.141552</ele>
        <time>2021-11-14T21:48:28.310Z</time>
      </trkpt>
      <trkpt lat="47.436041" lon="7.935466">
        <ele>579.486108</ele>
        <time>2021-11-14T21:48:34.462Z</time>
      </trkpt>
      <trkpt lat="47.435987" lon="7.935459">
        <ele>579.541172</ele>
        <time>2021-11-14T21:48:36.728Z</time>
      </trkpt>
      <trkpt lat="47.435945" lon="7.935453">
        <ele>579.584035</ele>
        <time>2021-11-14T21:48:37.467Z</time>
      </trkpt>
      <trkpt lat="47.435218" lon="7.935133">
        <ele>580.354570</ele>
        <time>2021-11-14T21:48:51.435Z</time>
      </trkpt>
      <trkpt lat="47.435139" lon="7.935085">
        <ele>580.441333</ele>
        <time>2021-11-14T21:48:52.575Z</time>
      </trkpt>
      <trkpt lat="47.435108" lon="7.935067">
        <ele>580.475165</ele>
        <time>2021-11-14T21:48:52.900Z</time>
      </trkpt>
      <trkpt lat="47.435021" lon="7.934988">
        <ele>580.517118</ele>
        <time>2021-11-14T21:48:54.526Z</time>
      </trkpt>
      <trkpt lat="47.434953" lon="7.934914">
        <ele>580.544685</ele>
        <time>2021-11-14T21:48:57.442Z</time>
      </trkpt>
      <trkpt lat="47.434806" lon="7.934720">
        <ele>580.609020</ele>
        <time>2021-11-14T21:48:59.645Z</time>
      </trkpt>
      <trkpt lat="47.434668" lon="7.934617">
        <ele>580.659492</ele>
        <time>2021-11-14T21:49:03.765Z</time>
      </trkpt>
      <trkpt lat="47.434614" lon="7.934590">
        <ele>580.678103</ele>
        <time>2021-11-14T21:49:04.351Z</time>
      </trkpt>
      <trkpt lat="47.434567" lon="7.934576">
        <ele>580.693756</ele>
        <time>2021-11-14T21:49:04.865Z</time>
      </trkpt>
      <trkpt lat="47.434298" lon="7.934609">
        <ele>580.781883</ele>
        <time>2021-11-14T21:49:08.473Z</time>
      </trkpt>
      <trkpt lat="47.433620" lon="7.934930">
        <ele>581.014316</ele>
        <time>2021-11-14T21:49:17.935Z</time>
      </trkpt>
      <trkpt lat="47.433512" lon="7.934950">
        <ele>581.049852</ele>
        <time>2021-11-14T21:49:19.116Z</time>
      </trkpt>
      <trkpt lat="47.433385" lon="7.935078">
        <ele>581.429804</ele>
        <time>2021-11-14T21:49:23.264Z</time>
      </trkpt>
      <trkpt lat="47.433187" lon="7.935304">
        <ele>582.591475</ele>
        <time>2021-11-14T21:49:29.225Z</time>
      </trkpt>
      <trkpt lat="47.433050" lon="7.935392">
        <ele>583.285149</ele>
        <time>2021-11-14T21:49:33.933Z</time>
      </trkpt>
      <trkpt lat="47.432965" lon="7.935043">
        <ele>584.450379</ele>
        <time>2021-11-14T21:49:43.308Z</time>
      </trkpt>
      <trkpt lat="47.432802" lon="7.934732">
        <ele>585.686276</ele>
        <time>2021-11-14T21:49:52.717Z</time>
      </trkpt>
      <trkpt lat="47.432647" lon="7.934240">
        <ele>587.391228</ele>
        <time>2021-11-14T21:50:07.282Z</time>
      </trkpt>
      <trkpt lat="47.432578" lon="7.933907">
        <ele>588.485285</ele>
        <time>2021-11-14T21:50:16.924Z</time>
      </trkpt>
      <trkpt lat="47.432569" lon="7.933827">
        <ele>588.740048</ele>
        <time>2021-11-14T21:50:18.599Z</time>
      </trkpt>
      <trkpt lat="47.432554" lon="7.933755">
        <ele>588.976711</ele>
        <time>2021-11-14T21:50:21.063Z</time>
      </trkpt>
      <trkpt lat="47.432488" lon="7.933576">
        <ele>589.704658</ele>
        <time>2021-11-14T21:50:25.946Z</time>
      </trkpt>
      <trkpt lat="47.432362" lon="7.933398">
        <ele>590.888159</ele>
        <time>2021-11-14T21:50:32.579Z</time>
      </trkpt>
      <trkpt lat="47.432257" lon="7.933273">
        <ele>591.803644</ele>
        <time>2021-11-14T21:50:38.561Z</time>
      </trkpt>
      <trkpt lat="47.431934" lon="7.932867">
        <ele>594.682757</ele>
        <time>2021-11-14T21:50:55.464Z</time>
      </trkpt>
      <trkpt lat="47.431916" lon="7.932769">
        <ele>595.149235</ele>
        <time>2021-11-14T21:50:59.048Z</time>
      </trkpt>
      <trkpt lat="47.431940" lon="7.932715">
        <ele>595.446042</ele>
        <time>2021-11-14T21:50:59.910Z</time>
      </trkpt>
      <trkpt lat="47.432246" lon="7.932289">
        <ele>598.300395</ele>
        <time>2021-11-14T21:51:18.133Z</time>
      </trkpt>
      <trkpt lat="47.432474" lon="7.931798">
        <ele>601.036145</ele>
        <time>2021-11-14T21:51:35.449Z</time>
      </trkpt>
      <trkpt lat="47.432491" lon="7.931730">
        <ele>601.369161</ele>
        <time>2021-11-14T21:51:37.136Z</time>
      </trkpt>
      <trkpt lat="47.432518" lon="7.931622">
        <ele>601.997154</ele>
        <time>2021-11-14T21:51:40.992Z</time>
      </trkpt>
      <trkpt lat="47.432664" lon="7.930471">
        <ele>609.456622</ele>
        <time>2021-11-14T21:52:18.848Z</time>
      </trkpt>
      <trkpt lat="47.432655" lon="7.930328">
        <ele>610.371441</ele>
        <time>2021-11-14T21:52:24.005Z</time>
      </trkpt>
      <trkpt lat="47.432626" lon="7.930198">
        <ele>611.243384</ele>
        <time>2021-11-14T21:52:29.813Z</time>
      </trkpt>
      <trkpt lat="47.432548" lon="7.929945">
        <ele>613.014435</ele>
        <time>2021-11-14T21:52:38.962Z</time>
      </trkpt>
      <trkpt lat="47.432376" lon="7.929666">
        <ele>615.418933</ele>
        <time>2021-11-14T21:52:53.643Z</time>
      </trkpt>
      <trkpt lat="47.432320" lon="7.929632">
        <ele>615.988998</ele>
        <time>2021-11-14T21:52:57.109Z</time>
      </trkpt>
      <trkpt lat="47.432180" lon="7.929578">
        <ele>617.351439</ele>
        <time>2021-11-14T21:53:05.360Z</time>
      </trkpt>
      <trkpt lat="47.431897" lon="7.929454">
        <ele>620.467601</ele>
        <time>2021-11-14T21:53:22.941Z</time>
      </trkpt>
      <trkpt lat="47.431830" lon="7.929410">
        <ele>621.307712</ele>
        <time>2021-11-14T21:53:28.272Z</time>
      </trkpt>
      <trkpt lat="47.431760" lon="7.929353">
        <ele>622.223491</ele>
        <time>2021-11-14T21:53:34.542Z</time>
      </trkpt>
      <trkpt lat="47.431165" lon="7.928287">
        <ele>632.936590</ele>
        <time>2021-11-14T21:54:32.797Z</time>
      </trkpt>
      <trkpt lat="47.431009" lon="7.928039">
        <ele>635.561735</ele>
        <time>2021-11-14T21:54:47.965Z</time>
      </trkpt>
      <trkpt lat="47.430877" lon="7.927868">
        <ele>637.572971</ele>
        <time>2021-11-14T21:54:57.385Z</time>
      </trkpt>
      <trkpt lat="47.430780" lon="7.927793">
        <ele>638.827370</ele>
        <time>2021-11-14T21:55:05.244Z</time>
      </trkpt>
      <trkpt lat="47.430593" lon="7.927648">
        <ele>640.716337</ele>
        <time>2021-11-14T21:55:14.737Z</time>
      </trkpt>
      <trkpt lat="47.430441" lon="7.927596">
        <ele>642.042966</ele>
        <time>2021-11-14T21:55:23.309Z</time>
      </trkpt>
      <trkpt lat="47.430337" lon="7.927447">
        <ele>643.274473</ele>
        <time>2021-11-14T21:55:29.764Z</time>
      </trkpt>
      <trkpt lat="47.430261" lon="7.927320">
        <ele>644.249817</ele>
        <time>2021-11-14T21:55:37.535Z</time>
      </trkpt>
      <trkpt lat="47.430146" lon="7.927032">
        <ele>646.173528</ele>
        <time>2021-11-14T21:55:47.878Z</time>
      </trkpt>
      <trkpt lat="47.429803" lon="7.926167">
        <ele>651.941017</ele>
        <time>2021-11-14T21:56:21.103Z</time>
      </trkpt>
      <trkpt lat="47.429591" lon="7.925737">
        <ele>654.775533</ele>
        <time>2021-11-14T21:56:36.291Z</time>
      </trkpt>
      <trkpt lat="47.429521" lon="7.925613">
        <ele>655.299088</ele>
        <time>2021-11-14T21:56:40.578Z</time>
      </trkpt>
      <trkpt lat="47.429490" lon="7.925556">
        <ele>655.536179</ele>
        <time>2021-11-14T21:56:43.598Z</time>
      </trkpt>
      <trkpt lat="47.429062" lon="7.924899">
        <ele>658.493010</ele>
        <time>2021-11-14T21:57:03.077Z</time>
      </trkpt>
      <trkpt lat="47.428690" lon="7.923945">
        <ele>662.062683</ele>
        <time>2021-11-14T21:57:27.571Z</time>
      </trkpt>
      <trkpt lat="47.428337" lon="7.923093">
        <ele>664.371551</ele>
        <time>2021-11-14T21:57:47.136Z</time>
      </trkpt>
      <trkpt lat="47.428022" lon="7.922357">
        <ele>666.000820</ele>
        <time>2021-11-14T21:58:01.677Z</time>
      </trkpt>
      <trkpt lat="47.427532" lon="7.921193">
        <ele>668.580433</ele>
        <time>2021-11-14T21:58:23.362Z</time>
      </trkpt>
      <trkpt lat="47.427306" lon="7.920667">
        <ele>669.781637</ele>
        <time>2021-11-14T21:58:34.497Z</time>
      </trkpt>
      <trkpt lat="47.427128" lon="7.920327">
        <ele>670.610403</ele>
        <time>2021-11-14T21:58:42.230Z</time>
      </trkpt>
      <trkpt lat="47.426784" lon="7.919771">
        <ele>672.062870</ele>
        <time>2021-11-14T21:58:55.474Z</time>
      </trkpt>
      <trkpt lat="47.426747" lon="7.919704">
        <ele>672.229597</ele>
        <time>2021-11-14T21:58:57.923Z</time>
      </trkpt>
      <trkpt lat="47.426476" lon="7.919218">
        <ele>673.362040</ele>
        <time>2021-11-14T21:59:10.084Z</time>
      </trkpt>
      <trkpt lat="47.425963" lon="7.918061">
        <ele>675.129286</ele>
        <time>2021-11-14T21:59:33.286Z</time>
      </trkpt>
      <trkpt lat="47.425854" lon="7.917881">
        <ele>675.437903</ele>
        <time>2021-11-14T21:59:38.315Z</time>
      </trkpt>
      <trkpt lat="47.425791" lon="7.917776">
        <ele>675.617196</ele>
        <time>2021-11-14T21:59:39.677Z</time>
      </trkpt>
      <trkpt lat="47.425734" lon="7.917658">
        <ele>675.802427</ele>
        <time>2021-11-14T21:59:41.237Z</time>
      </trkpt>
      <trkpt lat="47.425453" lon="7.916868">
        <ele>676.176769</ele>
        <time>2021-11-14T21:59:51.016Z</time>
      </trkpt>
      <trkpt lat="47.425318" lon="7.916466">
        <ele>675.476063</ele>
        <time>2021-11-14T21:59:55.005Z</time>
      </trkpt>
      <trkpt lat="47.425092" lon="7.916017">
        <ele>674.602311</ele>
        <time>2021-11-14T21:59:59.390Z</time>
      </trkpt>
      <trkpt lat="47.424835" lon="7.915741">
        <ele>673.869207</ele>
        <time>2021-11-14T22:00:02.611Z</time>
      </trkpt>
      <trkpt lat="47.423738" lon="7.915097">
        <ele>669.211991</ele>
        <time>2021-11-14T22:00:13.980Z</time>
      </trkpt>
      <trkpt lat="47.423576" lon="7.915003">
        <ele>668.213989</ele>
        <time>2021-11-14T22:00:15.634Z</time>
      </trkpt>
      <trkpt lat="47.423480" lon="7.914911">
        <ele>667.557892</ele>
        <time>2021-11-14T22:00:16.704Z</time>
      </trkpt>
      <trkpt lat="47.423376" lon="7.914788">
        <ele>666.794084</ele>
        <time>2021-11-14T22:00:17.985Z</time>
      </trkpt>
      <trkpt lat="47.423166" lon="7.914532">
        <ele>665.233098</ele>
        <time>2021-11-14T22:00:20.516Z</time>
      </trkpt>
      <trkpt lat="47.422861" lon="7.914016">
        <ele>662.574723</ele>
        <time>2021-11-14T22:00:24.696Z</time>
      </trkpt>
      <trkpt lat="47.422678" lon="7.913093">
        <ele>656.339494</ele>
        <time>2021-11-14T22:00:30.366Z</time>
      </trkpt>
      <trkpt lat="47.422400" lon="7.912432">
        <ele>651.021934</ele>
        <time>2021-11-14T22:00:34.875Z</time>
      </trkpt>
      <trkpt lat="47.422296" lon="7.912177">
        <ele>648.987643</ele>
        <time>2021-11-14T22:00:36.640Z</time>
      </trkpt>
      <trkpt lat="47.422258" lon="7.912054">
        <ele>648.063803</ele>
        <time>2021-11-14T22:00:37.401Z</time>
      </trkpt>
      <trkpt lat="47.422227" lon="7.911924">
        <ele>647.122049</ele>
        <time>2021-11-14T22:00:38.194Z</time>
      </trkpt>
      <trkpt lat="47.422105" lon="7.911328">
        <ele>642.518454</ele>
        <time>2021-11-14T22:00:41.762Z</time>
      </trkpt>
      <trkpt lat="47.422076" lon="7.911139">
        <ele>640.774836</ele>
        <time>2021-11-14T22:00:42.881Z</time>
      </trkpt>
      <trkpt lat="47.422044" lon="7.910942">
        <ele>638.952055</ele>
        <time>2021-11-14T22:00:44.028Z</time>
      </trkpt>
      <trkpt lat="47.421971" lon="7.910739">
        <ele>636.883712</ele>
        <time>2021-11-14T22:00:45.357Z</time>
      </trkpt>
      <trkpt lat="47.421663" lon="7.910330">
        <ele>631.377775</ele>
        <time>2021-11-14T22:00:48.833Z</time>
      </trkpt>
      <trkpt lat="47.421579" lon="7.910148">
        <ele>629.395604</ele>
        <time>2021-11-14T22:00:50.066Z</time>
      </trkpt>
      <trkpt lat="47.421470" lon="7.909931">
        <ele>626.964012</ele>
        <time>2021-11-14T22:00:51.584Z</time>
      </trkpt>
      <trkpt lat="47.420948" lon="7.908934">
        <ele>614.822986</ele>
        <time>2021-11-14T22:00:58.719Z</time>
      </trkpt>
      <trkpt lat="47.420889" lon="7.908860">
        <ele>613.608487</ele>
        <time>2021-11-14T22:00:59.356Z</time>
      </trkpt>
      <trkpt lat="47.420741" lon="7.908673">
        <ele>610.552492</ele>
        <time>2021-11-14T22:01:00.986Z</time>
      </trkpt>
      <trkpt lat="47.420624" lon="7.908565">
        <ele>608.387453</ele>
        <time>2021-11-14T22:01:02.133Z</time>
      </trkpt>
      <trkpt lat="47.420459" lon="7.908421">
        <ele>605.379996</ele>
        <time>2021-11-14T22:01:03.719Z</time>
      </trkpt>
      <trkpt lat="47.420164" lon="7.908011">
        <ele>599.024365</ele>
        <time>2021-11-14T22:01:07.075Z</time>
      </trkpt>
      <trkpt lat="47.419862" lon="7.907847">
        <ele>593.974654</ele>
        <time>2021-11-14T22:01:09.724Z</time>
      </trkpt>
      <trkpt lat="47.419634" lon="7.907870">
        <ele>590.308792</ele>
        <time>2021-11-14T22:01:11.605Z</time>
      </trkpt>
      <trkpt lat="47.419267" lon="7.908161">
        <ele>583.411832</ele>
        <time>2021-11-14T22:01:15.024Z</time>
      </trkpt>
      <trkpt lat="47.419141" lon="7.908164">
        <ele>581.325000</ele>
        <time>2021-11-14T22:01:16.061Z</time>
      </trkpt>
      <trkpt lat="47.418922" lon="7.907954">
        <ele>577.001876</ele>
        <time>2021-11-14T22:01:18.224Z</time>
      </trkpt>
      <trkpt lat="47.418822" lon="7.907858">
        <ele>575.027176</ele>
        <time>2021-11-14T22:01:19.202Z</time>
      </trkpt>
      <trkpt lat="47.418439" lon="7.907589">
        <ele>568.004900</ele>
        <time>2021-11-14T22:01:22.715Z</time>
      </trkpt>
      <trkpt lat="47.417978" lon="7.907279">
        <ele>560.408852</ele>
        <time>2021-11-14T22:01:26.910Z</time>
      </trkpt>
      <trkpt lat="47.417761" lon="7.907149">
        <ele>557.799295</ele>
        <time>2021-11-14T22:01:28.844Z</time>
      </trkpt>
      <trkpt lat="47.417654" lon="7.907109">
        <ele>556.569247</ele>
        <time>2021-11-14T22:01:29.771Z</time>
      </trkpt>
      <trkpt lat="47.417678" lon="7.906948">
        <ele>555.326017</ele>
        <time>2021-11-14T22:01:31.059Z</time>
      </trkpt>
      <trkpt lat="47.417696" lon="7.905977">
        <ele>548.000874</ele>
        <time>2021-11-14T22:01:39.035Z</time>
      </trkpt>
      <trkpt lat="47.417731" lon="7.905752">
        <ele>546.259871</ele>
        <time>2021-11-14T22:01:40.950Z</time>
      </trkpt>
      <trkpt lat="47.417750" lon="7.905682">
        <ele>545.691108</ele>
        <time>2021-11-14T22:01:41.560Z</time>
      </trkpt>
      <trkpt lat="47.418015" lon="7.905022">
        <ele>541.217131</ele>
        <time>2021-11-14T22:01:48.370Z</time>
      </trkpt>
      <trkpt lat="47.418023" lon="7.904729">
        <ele>540.396751</ele>
        <time>2021-11-14T22:01:50.907Z</time>
      </trkpt>
      <trkpt lat="47.417748" lon="7.904603">
        <ele>539.206346</ele>
        <time>2021-11-14T22:01:55.115Z</time>
      </trkpt>
      <trkpt lat="47.417554" lon="7.904523">
        <ele>538.373593</ele>
        <time>2021-11-14T22:01:58.063Z</time>
      </trkpt>
      <trkpt lat="47.417427" lon="7.904326">
        <ele>537.612355</ele>
        <time>2021-11-14T22:02:00.565Z</time>
      </trkpt>
      <trkpt lat="47.417265" lon="7.904453">
        <ele>536.854145</ele>
        <time>2021-11-14T22:02:02.521Z</time>
      </trkpt>
      <trkpt lat="47.417054" lon="7.904566">
        <ele>535.926229</ele>
        <time>2021-11-14T22:02:04.746Z</time>
      </trkpt>
      <trkpt lat="47.417265" lon="7.904453">
        <ele>534.998313</ele>
        <time>2021-11-14T22:02:07.405Z</time>
      </trkpt>
      <trkpt lat="47.417427" lon="7.904326">
        <ele>534.318598</ele>
        <time>2021-11-14T22:02:09.207Z</time>
      </trkpt>
      <trkpt lat="47.417531" lon="7.904238">
        <ele>533.946576</ele>
        <time>2021-11-14T22:02:10.644Z</time>
      </trkpt>
      <trkpt lat="47.417618" lon="7.904179">
        <ele>533.649422</ele>
        <time>2021-11-14T22:02:11.655Z</time>
      </trkpt>
      <trkpt lat="47.417991" lon="7.904019">
        <ele>532.443721</ele>
        <time>2021-11-14T22:02:15.699Z</time>
      </trkpt>
      <trkpt lat="47.418168" lon="7.903812">
        <ele>531.743028</ele>
        <time>2021-11-14T22:02:18.023Z</time>
      </trkpt>
      <trkpt lat="47.418232" lon="7.903669">
        <ele>531.382894</ele>
        <time>2021-11-14T22:02:19.161Z</time>
      </trkpt>
      <trkpt lat="47.418268" lon="7.903613">
        <ele>531.220641</ele>
        <time>2021-11-14T22:02:19.636Z</time>
      </trkpt>
      <trkpt lat="47.418532" lon="7.903258">
        <ele>530.112630</ele>
        <time>2021-11-14T22:02:23.178Z</time>
      </trkpt>
      <trkpt lat="47.418668" lon="7.903098">
        <ele>529.573008</ele>
        <time>2021-11-14T22:02:24.958Z</time>
      </trkpt>
      <trkpt lat="47.418932" lon="7.902787">
        <ele>528.840100</ele>
        <time>2021-11-14T22:02:28.356Z</time>
      </trkpt>
      <trkpt lat="47.419043" lon="7.902685">
        <ele>528.720674</ele>
        <time>2021-11-14T22:02:29.773Z</time>
      </trkpt>
      <trkpt lat="47.419204" lon="7.902583">
        <ele>528.560624</ele>
        <time>2021-11-14T22:02:31.521Z</time>
      </trkpt>
      <trkpt lat="47.419578" lon="7.902441">
        <ele>528.207808</ele>
        <time>2021-11-14T22:02:35.604Z</time>
      </trkpt>
      <trkpt lat="47.420085" lon="7.902235">
        <ele>527.727380</ele>
        <time>2021-11-14T22:02:41.990Z</time>
      </trkpt>
      <trkpt lat="47.420637" lon="7.901954">
        <ele>528.091610</ele>
        <time>2021-11-14T22:02:55.228Z</time>
      </trkpt>
      <trkpt lat="47.420695" lon="7.901920">
        <ele>528.415965</ele>
        <time>2021-11-14T22:02:56.970Z</time>
      </trkpt>
      <trkpt lat="47.421180" lon="7.901635">
        <ele>531.129134</ele>
        <time>2021-11-14T22:03:12.966Z</time>
      </trkpt>
      <trkpt lat="47.421222" lon="7.901610">
        <ele>531.364506</ele>
        <time>2021-11-14T22:03:14.792Z</time>
      </trkpt>
      <trkpt lat="47.421321" lon="7.901553">
        <ele>531.916814</ele>
        <time>2021-11-14T22:03:19.200Z</time>
      </trkpt>
      <trkpt lat="47.421410" lon="7.901506">
        <ele>532.408113</ele>
        <time>2021-11-14T22:03:22.417Z</time>
      </trkpt>
      <trkpt lat="47.421502" lon="7.901465">
        <ele>532.907629</ele>
        <time>2021-11-14T22:03:25.460Z</time>
      </trkpt>
      <trkpt lat="47.421650" lon="7.901410">
        <ele>533.700933</ele>
        <time>2021-11-14T22:03:32.252Z</time>
      </trkpt>
      <trkpt lat="47.422012" lon="7.901314">
        <ele>535.612788</ele>
        <time>2021-11-14T22:03:47.336Z</time>
      </trkpt>
      <trkpt lat="47.422179" lon="7.901197">
        <ele>536.573506</ele>
        <time>2021-11-14T22:03:54.630Z</time>
      </trkpt>
      <trkpt lat="47.422753" lon="7.900607">
        <ele>542.542999</ele>
        <time>2021-11-14T22:04:30.454Z</time>
      </trkpt>
      <trkpt lat="47.423591" lon="7.899980">
        <ele>550.655407</ele>
        <time>2021-11-14T22:05:16.346Z</time>
      </trkpt>
      <trkpt lat="47.423750" lon="7.899900">
        <ele>552.106087</ele>
        <time>2021-11-14T22:05:26.223Z</time>
      </trkpt>
      <trkpt lat="47.423836" lon="7.899877">
        <ele>552.866669</ele>
        <time>2021-11-14T22:05:30.605Z</time>
      </trkpt>
      <trkpt lat="47.424543" lon="7.899788">
        <ele>559.049412</ele>
        <time>2021-11-14T22:06:07.622Z</time>
      </trkpt>
      <trkpt lat="47.424970" lon="7.899568">
        <ele>562.989637</ele>
        <time>2021-11-14T22:06:30.016Z</time>
      </trkpt>
      <trkpt lat="47.425127" lon="7.899455">
        <ele>564.511226</ele>
        <time>2021-11-14T22:06:40.032Z</time>
      </trkpt>
      <trkpt lat="47.425195" lon="7.899401">
        <ele>565.183844</ele>
        <time>2021-11-14T22:06:43.864Z</time>
      </trkpt>
      <trkpt lat="47.425259" lon="7.899328">
        <ele>565.888249</ele>
        <time>2021-11-14T22:06:46.633Z</time>
      </trkpt>
      <trkpt lat="47.425323" lon="7.899233">
        <ele>566.678584</ele>
        <time>2021-11-14T22:06:51.193Z</time>
      </trkpt>
      <trkpt lat="47.425386" lon="7.899110">
        <ele>567.588042</ele>
        <time>2021-11-14T22:06:55.486Z</time>
      </trkpt>
      <trkpt lat="47.425575" lon="7.898777">
        <ele>569.627254</ele>
        <time>2021-11-14T22:07:08.831Z</time>
      </trkpt>
      <trkpt lat="47.425741" lon="7.898558">
        <ele>571.118205</ele>
        <time>2021-11-14T22:07:17.372Z</time>
      </trkpt>
      <trkpt lat="47.425821" lon="7.898486">
        <ele>571.745818</ele>
        <time>2021-11-14T22:07:22.766Z</time>
      </trkpt>
      <trkpt lat="47.425960" lon="7.898380">
        <ele>572.793878</ele>
        <time>2021-11-14T22:07:28.817Z</time>
      </trkpt>
      <trkpt lat="47.426036" lon="7.898316">
        <ele>573.379984</ele>
        <time>2021-11-14T22:07:32.113Z</time>
      </trkpt>
      <trkpt lat="47.426220" lon="7.898246">
        <ele>574.653105</ele>
        <time>2021-11-14T22:07:41.813Z</time>
      </trkpt>
      <trkpt lat="47.426283" lon="7.898249">
        <ele>575.075471</ele>
        <time>2021-11-14T22:07:44.222Z</time>
      </trkpt>
      <trkpt lat="47.426730" lon="7.898271">
        <ele>578.072368</ele>
        <time>2021-11-14T22:08:01.001Z</time>
      </trkpt>
      <trkpt lat="47.426789" lon="7.898260">
        <ele>578.470844</ele>
        <time>2021-11-14T22:08:03.506Z</time>
      </trkpt>
      <trkpt lat="47.426820" lon="7.898254">
        <ele>578.680341</ele>
        <time>2021-11-14T22:08:05.291Z</time>
      </trkpt>
      <trkpt lat="47.427512" lon="7.897742">
        <ele>582.871584</ele>
        <time>2021-11-14T22:08:32.622Z</time>
      </trkpt>
      <trkpt lat="47.427538" lon="7.897710">
        <ele>583.040911</ele>
        <time>2021-11-14T22:08:34.187Z</time>
      </trkpt>
      <trkpt lat="47.427587" lon="7.897622">
        <ele>583.426811</ele>
        <time>2021-11-14T22:08:36.572Z</time>
      </trkpt>
      <trkpt lat="47.427616" lon="7.897554">
        <ele>583.698979</ele>
        <time>2021-11-14T22:08:38.073Z</time>
      </trkpt>
      <trkpt lat="47.427639" lon="7.897471">
        <ele>584.002667</ele>
        <time>2021-11-14T22:08:39.810Z</time>
      </trkpt>
      <trkpt lat="47.427696" lon="7.897215">
        <ele>584.915184</ele>
        <time>2021-11-14T22:08:46.763Z</time>
      </trkpt>
      <trkpt lat="47.427790" lon="7.896735">
        <ele>586.607116</ele>
        <time>2021-11-14T22:08:58.305Z</time>
      </trkpt>
      <trkpt lat="47.427841" lon="7.896405">
        <ele>587.753230</ele>
        <time>2021-11-14T22:09:06.235Z</time>
      </trkpt>
      <trkpt lat="47.427930" lon="7.896083">
        <ele>588.930955</ele>
        <time>2021-11-14T22:09:14.224Z</time>
      </trkpt>
      <trkpt lat="47.428487" lon="7.894661">
        <ele>593.392930</ele>
        <time>2021-11-14T22:09:50.786Z</time>
      </trkpt>
      <trkpt lat="47.428508" lon="7.894630">
        <ele>593.512012</ele>
        <time>2021-11-14T22:09:52.462Z</time>
      </trkpt>
      <trkpt lat="47.428612" lon="7.894479">
        <ele>594.096928</ele>
        <time>2021-11-14T22:09:56.780Z</time>
      </trkpt>
      <trkpt lat="47.428880" lon="7.894052">
        <ele>595.677974</ele>
        <time>2021-11-14T22:10:07.514Z</time>
      </trkpt>
      <trkpt lat="47.428986" lon="7.893782">
        <ele>596.282327</ele>
        <time>2021-11-14T22:10:12.901Z</time>
      </trkpt>
      <trkpt lat="47.429196" lon="7.892636">
        <ele>597.381516</ele>
        <time>2021-11-14T22:10:30.947Z</time>
      </trkpt>
      <trkpt lat="47.429413" lon="7.891879">
        <ele>598.142657</ele>
        <time>2021-11-14T22:10:40.427Z</time>
      </trkpt>
      <trkpt lat="47.429487" lon="7.891620">
        <ele>598.402943</ele>
        <time>2021-11-14T22:10:43.498Z</time>
      </trkpt>
      <trkpt lat="47.429599" lon="7.891222">
        <ele>598.673184</ele>
        <time>2021-11-14T22:10:48.293Z</time>
      </trkpt>
      <trkpt lat="47.429730" lon="7.890788">
        <ele>598.805159</ele>
        <time>2021-11-14T22:10:53.557Z</time>
      </trkpt>
      <trkpt lat="47.429873" lon="7.890313">
        <ele>598.949539</ele>
        <time>2021-11-14T22:10:59.205Z</time>
      </trkpt>
      <trkpt lat="47.430047" lon="7.889741">
        <ele>599.123703</ele>
        <time>2021-11-14T22:11:05.810Z</time>
      </trkpt>
      <trkpt lat="47.430110" lon="7.889525">
        <ele>599.189023</ele>
        <time>2021-11-14T22:11:08.404Z</time>
      </trkpt>
      <trkpt lat="47.430391" lon="7.888542">
        <ele>599.588608</ele>
        <time>2021-11-14T22:11:20.668Z</time>
      </trkpt>
      <trkpt lat="47.430681" lon="7.887520">
        <ele>600.142577</ele>
        <time>2021-11-14T22:11:34.295Z</time>
      </trkpt>
      <trkpt lat="47.431122" lon="7.886059">
        <ele>600.659823</ele>
        <time>2021-11-14T22:11:53.843Z</time>
      </trkpt>
      <trkpt lat="47.431196" lon="7.885844">
        <ele>600.647851</ele>
        <time>2021-11-14T22:11:56.780Z</time>
      </trkpt>
      <trkpt lat="47.431282" lon="7.885605">
        <ele>600.634416</ele>
        <time>2021-11-14T22:11:59.808Z</time>
      </trkpt>
      <trkpt lat="47.431621" lon="7.884870">
        <ele>600.590267</ele>
        <time>2021-11-14T22:12:09.220Z</time>
      </trkpt>
      <trkpt lat="47.431645" lon="7.884820">
        <ele>600.587224</ele>
        <time>2021-11-14T22:12:09.790Z</time>
      </trkpt>
      <trkpt lat="47.431734" lon="7.884624">
        <ele>600.575508</ele>
        <time>2021-11-14T22:12:11.784Z</time>
      </trkpt>
      <trkpt lat="47.431834" lon="7.884406">
        <ele>600.562436</ele>
        <time>2021-11-14T22:12:13.986Z</time>
      </trkpt>
      <trkpt lat="47.431897" lon="7.884264">
        <ele>600.554009</ele>
        <time>2021-11-14T22:12:15.365Z</time>
      </trkpt>
      <trkpt lat="47.431917" lon="7.884202">
        <ele>600.418685</ele>
        <time>2021-11-14T22:12:15.940Z</time>
      </trkpt>
      <trkpt lat="47.431948" lon="7.883983">
        <ele>599.879888</ele>
        <time>2021-11-14T22:12:17.721Z</time>
      </trkpt>
      <trkpt lat="47.431992" lon="7.883657">
        <ele>599.079374</ele>
        <time>2021-11-14T22:12:20.105Z</time>
      </trkpt>
      <trkpt lat="47.432072" lon="7.883362">
        <ele>598.314027</ele>
        <time>2021-11-14T22:12:22.417Z</time>
      </trkpt>
      <trkpt lat="47.432166" lon="7.883142">
        <ele>597.687416</ele>
        <time>2021-11-14T22:12:24.181Z</time>
      </trkpt>
      <trkpt lat="47.432258" lon="7.882974">
        <ele>597.166909</ele>
        <time>2021-11-14T22:12:25.686Z</time>
      </trkpt>
      <trkpt lat="47.432294" lon="7.882926">
        <ele>596.994328</ele>
        <time>2021-11-14T22:12:26.153Z</time>
      </trkpt>
      <trkpt lat="47.432136" lon="7.882584">
        <ele>595.997024</ele>
        <time>2021-11-14T22:12:28.878Z</time>
      </trkpt>
      <trkpt lat="47.431957" lon="7.882114">
        <ele>594.698169</ele>
        <time>2021-11-14T22:12:32.313Z</time>
      </trkpt>
      <trkpt lat="47.431902" lon="7.881936">
        <ele>594.226928</ele>
        <time>2021-11-14T22:12:33.521Z</time>
      </trkpt>
      <trkpt lat="47.431866" lon="7.881718">
        <ele>593.260334</ele>
        <time>2021-11-14T22:12:34.924Z</time>
      </trkpt>
      <trkpt lat="47.431849" lon="7.881529">
        <ele>592.379417</ele>
        <time>2021-11-14T22:12:36.115Z</time>
      </trkpt>
      <trkpt lat="47.431844" lon="7.881321">
        <ele>591.417794</ele>
        <time>2021-11-14T22:12:37.384Z</time>
      </trkpt>
      <trkpt lat="47.431854" lon="7.880923">
        <ele>589.577658</ele>
        <time>2021-11-14T22:12:39.830Z</time>
      </trkpt>
      <trkpt lat="47.431880" lon="7.879790">
        <ele>584.339881</ele>
        <time>2021-11-14T22:12:46.709Z</time>
      </trkpt>
      <trkpt lat="47.431927" lon="7.878206">
        <ele>576.853956</ele>
        <time>2021-11-14T22:12:56.216Z</time>
      </trkpt>
      <trkpt lat="47.431934" lon="7.877924">
        <ele>575.507062</ele>
        <time>2021-11-14T22:12:57.950Z</time>
      </trkpt>
      <trkpt lat="47.431942" lon="7.877670">
        <ele>574.293405</ele>
        <time>2021-11-14T22:12:59.468Z</time>
      </trkpt>
      <trkpt lat="47.431930" lon="7.877281">
        <ele>572.434776</ele>
        <time>2021-11-14T22:13:01.897Z</time>
      </trkpt>
      <trkpt lat="47.431926" lon="7.877192">
        <ele>572.009041</ele>
        <time>2021-11-14T22:13:02.433Z</time>
      </trkpt>
      <trkpt lat="47.431917" lon="7.877109">
        <ele>571.607824</ele>
        <time>2021-11-14T22:13:02.911Z</time>
      </trkpt>
      <trkpt lat="47.431768" lon="7.876417">
        <ele>568.208852</ele>
        <time>2021-11-14T22:13:07.421Z</time>
      </trkpt>
      <trkpt lat="47.431568" lon="7.875901">
        <ele>565.555034</ele>
        <time>2021-11-14T22:13:11.128Z</time>
      </trkpt>
      <trkpt lat="47.431111" lon="7.874807">
        <ele>559.817278</ele>
        <time>2021-11-14T22:13:19.073Z</time>
      </trkpt>
      <trkpt lat="47.430759" lon="7.874270">
        <ele>556.216581</ele>
        <time>2021-11-14T22:13:23.601Z</time>
      </trkpt>
      <trkpt lat="47.430576" lon="7.874098">
        <ele>554.330895</ele>
        <time>2021-11-14T22:13:25.483Z</time>
      </trkpt>
      <trkpt lat="47.430515" lon="7.874040">
        <ele>553.700220</ele>
        <time>2021-11-14T22:13:26.122Z</time>
      </trkpt>
      <trkpt lat="47.429777" lon="7.873317">
        <ele>546.001583</ele>
        <time>2021-11-14T22:13:33.882Z</time>
      </trkpt>
      <trkpt lat="47.429647" lon="7.873200">
        <ele>544.678136</ele>
        <time>2021-11-14T22:13:35.167Z</time>
      </trkpt>
      <trkpt lat="47.429357" lon="7.872761">
        <ele>541.128169</ele>
        <time>2021-11-14T22:13:38.771Z</time>
      </trkpt>
      <trkpt lat="47.428933" lon="7.871645">
        <ele>534.343333</ele>
        <time>2021-11-14T22:13:46.318Z</time>
      </trkpt>
      <trkpt lat="47.428408" lon="7.869299">
        <ele>523.021470</ele>
        <time>2021-11-14T22:14:01.508Z</time>
      </trkpt>
      <trkpt lat="47.428340" lon="7.868571">
        <ele>520.219027</ele>
        <time>2021-11-14T22:14:06.188Z</time>
      </trkpt>
      <trkpt lat="47.428434" lon="7.867537">
        <ele>516.318329</ele>
        <time>2021-11-14T22:14:12.852Z</time>
      </trkpt>
      <trkpt lat="47.428640" lon="7.866848">
        <ele>513.632330</ele>
        <time>2021-11-14T22:14:17.661Z</time>
      </trkpt>
      <trkpt lat="47.428928" lon="7.866224">
        <ele>510.938860</ele>
        <time>2021-11-14T22:14:22.451Z</time>
      </trkpt>
      <trkpt lat="47.429261" lon="7.865697">
        <ele>508.367560</ele>
        <time>2021-11-14T22:14:26.986Z</time>
      </trkpt>
      <trkpt lat="47.430423" lon="7.864125">
        <ele>499.044905</ele>
        <time>2021-11-14T22:14:41.479Z</time>
      </trkpt>
      <trkpt lat="47.430608" lon="7.863517">
        <ele>496.277594</ele>
        <time>2021-11-14T22:14:45.586Z</time>
      </trkpt>
      <trkpt lat="47.431407" lon="7.862138">
        <ele>488.286412</ele>
        <time>2021-11-14T22:14:56.735Z</time>
      </trkpt>
      <trkpt lat="47.432098" lon="7.860373">
        <ele>478.995866</ele>
        <time>2021-11-14T22:15:09.189Z</time>
      </trkpt>
      <trkpt lat="47.432391" lon="7.859821">
        <ele>475.751716</ele>
        <time>2021-11-14T22:15:13.490Z</time>
      </trkpt>
      <trkpt lat="47.432963" lon="7.859206">
        <ele>470.927699</ele>
        <time>2021-11-14T22:15:19.832Z</time>
      </trkpt>
      <trkpt lat="47.433220" lon="7.858860">
        <ele>468.562280</ele>
        <time>2021-11-14T22:15:22.932Z</time>
      </trkpt>
      <trkpt lat="47.433489" lon="7.858516">
        <ele>466.141903</ele>
        <time>2021-11-14T22:15:26.080Z</time>
      </trkpt>
      <trkpt lat="47.433729" lon="7.858305">
        <ele>464.241742</ele>
        <time>2021-11-14T22:15:28.584Z</time>
      </trkpt>
      <trkpt lat="47.433963" lon="7.858156">
        <ele>462.507966</ele>
        <time>2021-11-14T22:15:30.921Z</time>
      </trkpt>
      <trkpt lat="47.434085" lon="7.858043">
        <ele>461.528280</ele>
        <time>2021-11-14T22:15:32.223Z</time>
      </trkpt>
      <trkpt lat="47.434394" lon="7.857638">
        <ele>459.540626</ele>
        <time>2021-11-14T22:15:36.119Z</time>
      </trkpt>
      <trkpt lat="47.434518" lon="7.857416">
        <ele>458.689690</ele>
        <time>2021-11-14T22:15:37.971Z</time>
      </trkpt>
      <trkpt lat="47.434527" lon="7.857396">
        <ele>458.618692</ele>
        <time>2021-11-14T22:15:38.117Z</time>
      </trkpt>
      <trkpt lat="47.434677" lon="7.857156">
        <ele>457.652905</ele>
        <time>2021-11-14T22:15:40.218Z</time>
      </trkpt>
      <trkpt lat="47.435486" lon="7.855793">
        <ele>452.517945</ele>
        <time>2021-11-14T22:15:52.203Z</time>
      </trkpt>
      <trkpt lat="47.435520" lon="7.855688">
        <ele>452.263317</ele>
        <time>2021-11-14T22:15:53.156Z</time>
      </trkpt>
      <trkpt lat="47.435570" lon="7.855503">
        <ele>451.827559</ele>
        <time>2021-11-14T22:15:54.737Z</time>
      </trkpt>
      <trkpt lat="47.435590" lon="7.855382">
        <ele>451.555106</ele>
        <time>2021-11-14T22:15:55.677Z</time>
      </trkpt>
      <trkpt lat="47.435704" lon="7.854610">
        <ele>449.826733</ele>
        <time>2021-11-14T22:16:01.765Z</time>
      </trkpt>
      <trkpt lat="47.435803" lon="7.854241">
        <ele>448.958446</ele>
        <time>2021-11-14T22:16:04.349Z</time>
      </trkpt>
      <trkpt lat="47.435866" lon="7.853994">
        <ele>448.381050</ele>
        <time>2021-11-14T22:16:06.110Z</time>
      </trkpt>
      <trkpt lat="47.436113" lon="7.853044">
        <ele>445.624823</ele>
        <time>2021-11-14T22:16:12.696Z</time>
      </trkpt>
      <trkpt lat="47.436120" lon="7.853000">
        <ele>445.481770</ele>
        <time>2021-11-14T22:16:12.976Z</time>
      </trkpt>
      <trkpt lat="47.436192" lon="7.852686">
        <ele>444.432460</ele>
        <time>2021-11-14T22:16:15.106Z</time>
      </trkpt>
      <trkpt lat="47.436223" lon="7.852552">
        <ele>443.984253</ele>
        <time>2021-11-14T22:16:16.077Z</time>
      </trkpt>
      <trkpt lat="47.436268" lon="7.852351">
        <ele>443.314181</ele>
        <time>2021-11-14T22:16:17.315Z</time>
      </trkpt>
      <trkpt lat="47.436529" lon="7.850383">
        <ele>438.069123</ele>
        <time>2021-11-14T22:16:30.484Z</time>
      </trkpt>
      <trkpt lat="47.436538" lon="7.850283">
        <ele>437.929521</ele>
        <time>2021-11-14T22:16:31.065Z</time>
      </trkpt>
      <trkpt lat="47.436557" lon="7.850181">
        <ele>437.783115</ele>
        <time>2021-11-14T22:16:32.151Z</time>
      </trkpt>
      <trkpt lat="47.436670" lon="7.850213">
        <ele>437.547731</ele>
        <time>2021-11-14T22:16:33.416Z</time>
      </trkpt>
      <trkpt lat="47.436809" lon="7.850224">
        <ele>437.262950</ele>
        <time>2021-11-14T22:16:34.877Z</time>
      </trkpt>
      <trkpt lat="47.437043" lon="7.850211">
        <ele>436.783882</ele>
        <time>2021-11-14T22:16:37.673Z</time>
      </trkpt>
      <trkpt lat="47.437212" lon="7.850178">
        <ele>436.435129</ele>
        <time>2021-11-14T22:16:39.445Z</time>
      </trkpt>
      <trkpt lat="47.437326" lon="7.850142">
        <ele>436.196641</ele>
        <time>2021-11-14T22:16:41.720Z</time>
      </trkpt>
      <trkpt lat="47.437622" lon="7.849998">
        <ele>435.559125</ele>
        <time>2021-11-14T22:16:45.614Z</time>
      </trkpt>
      <trkpt lat="47.437629" lon="7.849992">
        <ele>435.542571</ele>
        <time>2021-11-14T22:16:45.817Z</time>
      </trkpt>
      <trkpt lat="47.438089" lon="7.849574">
        <ele>435.433905</ele>
        <time>2021-11-14T22:16:54.347Z</time>
      </trkpt>
      <trkpt lat="47.438227" lon="7.849403">
        <ele>435.519819</ele>
        <time>2021-11-14T22:16:58.634Z</time>
      </trkpt>
      <trkpt lat="47.438366" lon="7.849212">
        <ele>435.610364</ele>
        <time>2021-11-14T22:17:01.574Z</time>
      </trkpt>
      <trkpt lat="47.438605" lon="7.848874">
        <ele>435.768171</ele>
        <time>2021-11-14T22:17:07.930Z</time>
      </trkpt>
      <trkpt lat="47.438927" lon="7.848420">
        <ele>435.980474</ele>
        <time>2021-11-14T22:17:15.754Z</time>
      </trkpt>
      <trkpt lat="47.438961" lon="7.848371">
        <ele>436.003129</ele>
        <time>2021-11-14T22:17:17.209Z</time>
      </trkpt>
      <trkpt lat="47.440202" lon="7.846615">
        <ele>435.004739</ele>
        <time>2021-11-14T22:17:40.336Z</time>
      </trkpt>
      <trkpt lat="47.440435" lon="7.846294">
        <ele>434.717931</ele>
        <time>2021-11-14T22:17:43.761Z</time>
      </trkpt>
      <trkpt lat="47.440848" lon="7.845724">
        <ele>433.152122</ele>
        <time>2021-11-14T22:17:49.744Z</time>
      </trkpt>
      <trkpt lat="47.441172" lon="7.845276">
        <ele>431.922677</ele>
        <time>2021-11-14T22:17:54.234Z</time>
      </trkpt>
      <trkpt lat="47.442350" lon="7.843611">
        <ele>427.532574</ele>
        <time>2021-11-14T22:18:10.910Z</time>
      </trkpt>
      <trkpt lat="47.442611" lon="7.843200">
        <ele>426.531472</ele>
        <time>2021-11-14T22:18:15.114Z</time>
      </trkpt>
      <trkpt lat="47.443035" lon="7.842530">
        <ele>424.900526</ele>
        <time>2021-11-14T22:18:21.706Z</time>
      </trkpt>
      <trkpt lat="47.443546" lon="7.841569">
        <ele>422.710419</ele>
        <time>2021-11-14T22:18:30.461Z</time>
      </trkpt>
      <trkpt lat="47.443626" lon="7.841391">
        <ele>422.327528</ele>
        <time>2021-11-14T22:18:31.968Z</time>
      </trkpt>
      <trkpt lat="47.443792" lon="7.841068">
        <ele>421.600736</ele>
        <time>2021-11-14T22:18:34.872Z</time>
      </trkpt>
      <trkpt lat="47.444056" lon="7.840544">
        <ele>420.430113</ele>
        <time>2021-11-14T22:18:39.462Z</time>
      </trkpt>
      <trkpt lat="47.444912" lon="7.838914">
        <ele>415.924696</ele>
        <time>2021-11-14T22:18:53.463Z</time>
      </trkpt>
      <trkpt lat="47.445033" lon="7.838726">
        <ele>415.354993</ele>
        <time>2021-11-14T22:18:55.234Z</time>
      </trkpt>
      <trkpt lat="47.445225" lon="7.838480">
        <ele>414.530381</ele>
        <time>2021-11-14T22:18:57.836Z</time>
      </trkpt>
      <trkpt lat="47.445517" lon="7.838127">
        <ele>413.352222</ele>
        <time>2021-11-14T22:19:01.655Z</time>
      </trkpt>
      <trkpt lat="47.445999" lon="7.837719">
        <ele>411.620144</ele>
        <time>2021-11-14T22:19:07.345Z</time>
      </trkpt>
      <trkpt lat="47.446087" lon="7.837647">
        <ele>411.306490</ele>
        <time>2021-11-14T22:19:08.342Z</time>
      </trkpt>
      <trkpt lat="47.446117" lon="7.837623">
        <ele>411.200115</ele>
        <time>2021-11-14T22:19:08.680Z</time>
      </trkpt>
      <trkpt lat="47.446198" lon="7.837551">
        <ele>410.905373</ele>
        <time>2021-11-14T22:19:09.591Z</time>
      </trkpt>
      <trkpt lat="47.446386" lon="7.837385">
        <ele>410.222486</ele>
        <time>2021-11-14T22:19:11.850Z</time>
      </trkpt>
      <trkpt lat="47.446416" lon="7.837359">
        <ele>410.114040</ele>
        <time>2021-11-14T22:19:12.215Z</time>
      </trkpt>
      <trkpt lat="47.446511" lon="7.837269">
        <ele>409.762175</ele>
        <time>2021-11-14T22:19:13.347Z</time>
      </trkpt>
      <trkpt lat="47.447115" lon="7.836735">
        <ele>407.712226</ele>
        <time>2021-11-14T22:19:20.645Z</time>
      </trkpt>
      <trkpt lat="47.447446" lon="7.836384">
        <ele>406.582817</ele>
        <time>2021-11-14T22:19:24.842Z</time>
      </trkpt>
      <trkpt lat="47.448080" lon="7.835715">
        <ele>404.423153</ele>
        <time>2021-11-14T22:19:32.952Z</time>
      </trkpt>
      <trkpt lat="47.448594" lon="7.835238">
        <ele>403.099520</ele>
        <time>2021-11-14T22:19:39.388Z</time>
      </trkpt>
      <trkpt lat="47.448956" lon="7.834983">
        <ele>402.336349</ele>
        <time>2021-11-14T22:19:43.705Z</time>
      </trkpt>
      <trkpt lat="47.449275" lon="7.834788">
        <ele>401.679369</ele>
        <time>2021-11-14T22:19:47.549Z</time>
      </trkpt>
      <trkpt lat="47.449505" lon="7.834629">
        <ele>401.196139</ele>
        <time>2021-11-14T22:19:50.467Z</time>
      </trkpt>
      <trkpt lat="47.449669" lon="7.834494">
        <ele>400.838897</ele>
        <time>2021-11-14T22:19:52.575Z</time>
      </trkpt>
      <trkpt lat="47.449811" lon="7.834354">
        <ele>400.514069</ele>
        <time>2021-11-14T22:19:54.630Z</time>
      </trkpt>
      <trkpt lat="47.450016" lon="7.834124">
        <ele>400.307740</ele>
        <time>2021-11-14T22:19:57.595Z</time>
      </trkpt>
      <trkpt lat="47.451121" lon="7.832696">
        <ele>399.323315</ele>
        <time>2021-11-14T22:20:16.703Z</time>
      </trkpt>
      <trkpt lat="47.451327" lon="7.832461">
        <ele>399.215051</ele>
        <time>2021-11-14T22:20:20.507Z</time>
      </trkpt>
      <trkpt lat="47.451426" lon="7.832356">
        <ele>399.184104</ele>
        <time>2021-11-14T22:20:22.278Z</time>
      </trkpt>
      <trkpt lat="47.451701" lon="7.832106">
        <ele>399.102105</ele>
        <time>2021-11-14T22:20:27.122Z</time>
      </trkpt>
      <trkpt lat="47.451989" lon="7.831857">
        <ele>399.017362</ele>
        <time>2021-11-14T22:20:32.217Z</time>
      </trkpt>
      <trkpt lat="47.452175" lon="7.831696">
        <ele>398.962616</ele>
        <time>2021-11-14T22:20:35.674Z</time>
      </trkpt>
      <trkpt lat="47.452373" lon="7.831505">
        <ele>398.902566</ele>
        <time>2021-11-14T22:20:38.986Z</time>
      </trkpt>
      <trkpt lat="47.452618" lon="7.831252">
        <ele>398.826660</ele>
        <time>2021-11-14T22:20:43.192Z</time>
      </trkpt>
      <trkpt lat="47.453250" lon="7.830464">
        <ele>397.739021</ele>
        <time>2021-11-14T22:20:53.034Z</time>
      </trkpt>
      <trkpt lat="47.453398" lon="7.830308">
        <ele>397.470066</ele>
        <time>2021-11-14T22:20:55.254Z</time>
      </trkpt>
      <trkpt lat="47.453492" lon="7.830220">
        <ele>397.305432</ele>
        <time>2021-11-14T22:20:56.455Z</time>
      </trkpt>
      <trkpt lat="47.453757" lon="7.829984">
        <ele>396.847657</ele>
        <time>2021-11-14T22:21:00.054Z</time>
      </trkpt>
      <trkpt lat="47.453989" lon="7.829813">
        <ele>396.464055</ele>
        <time>2021-11-14T22:21:02.843Z</time>
      </trkpt>
      <trkpt lat="47.454287" lon="7.829611">
        <ele>395.934715</ele>
        <time>2021-11-14T22:21:06.324Z</time>
      </trkpt>
      <trkpt lat="47.454472" lon="7.829506">
        <ele>395.559327</ele>
        <time>2021-11-14T22:21:08.496Z</time>
      </trkpt>
      <trkpt lat="47.454625" lon="7.829495">
        <ele>395.269140</ele>
        <time>2021-11-14T22:21:10.083Z</time>
      </trkpt>
      <trkpt lat="47.454646" lon="7.829504">
        <ele>395.227721</ele>
        <time>2021-11-14T22:21:10.328Z</time>
      </trkpt>
      <trkpt lat="47.454803" lon="7.829577">
        <ele>394.915946</ele>
        <time>2021-11-14T22:21:12.127Z</time>
      </trkpt>
      <trkpt lat="47.455119" lon="7.829864">
        <ele>394.213442</ele>
        <time>2021-11-14T22:21:16.136Z</time>
      </trkpt>
      <trkpt lat="47.455185" lon="7.829882">
        <ele>394.086303</ele>
        <time>2021-11-14T22:21:16.797Z</time>
      </trkpt>
      <trkpt lat="47.455265" lon="7.829874">
        <ele>393.934404</ele>
        <time>2021-11-14T22:21:17.678Z</time>
      </trkpt>
      <trkpt lat="47.455471" lon="7.829717">
        <ele>393.495386</ele>
        <time>2021-11-14T22:21:20.402Z</time>
      </trkpt>
      <trkpt lat="47.455556" lon="7.829615">
        <ele>393.288023</ele>
        <time>2021-11-14T22:21:21.570Z</time>
      </trkpt>
      <trkpt lat="47.455802" lon="7.829313">
        <ele>392.715922</ele>
        <time>2021-11-14T22:21:25.474Z</time>
      </trkpt>
      <trkpt lat="47.455924" lon="7.829166">
        <ele>392.630185</ele>
        <time>2021-11-14T22:21:27.425Z</time>
      </trkpt>
      <trkpt lat="47.455989" lon="7.829100">
        <ele>392.587228</ele>
        <time>2021-11-14T22:21:28.530Z</time>
      </trkpt>
      <trkpt lat="47.456107" lon="7.828977">
        <ele>392.508573</ele>
        <time>2021-11-14T22:21:30.215Z</time>
      </trkpt>
      <trkpt lat="47.456883" lon="7.828406">
        <ele>392.036345</ele>
        <time>2021-11-14T22:21:41.251Z</time>
      </trkpt>
      <trkpt lat="47.457111" lon="7.828245">
        <ele>391.898690</ele>
        <time>2021-11-14T22:21:45.198Z</time>
      </trkpt>
      <trkpt lat="47.457158" lon="7.828212">
        <ele>391.870343</ele>
        <time>2021-11-14T22:21:45.868Z</time>
      </trkpt>
      <trkpt lat="47.457581" lon="7.827803">
        <ele>391.825912</ele>
        <time>2021-11-14T22:21:54.076Z</time>
      </trkpt>
      <trkpt lat="47.457644" lon="7.827725">
        <ele>391.848048</ele>
        <time>2021-11-14T22:21:55.344Z</time>
      </trkpt>
      <trkpt lat="47.457712" lon="7.827647">
        <ele>391.871233</ele>
        <time>2021-11-14T22:21:56.737Z</time>
      </trkpt>
      <trkpt lat="47.457842" lon="7.827433">
        <ele>391.923639</ele>
        <time>2021-11-14T22:22:00.022Z</time>
      </trkpt>
      <trkpt lat="47.458019" lon="7.827141">
        <ele>391.995078</ele>
        <time>2021-11-14T22:22:04.427Z</time>
      </trkpt>
      <trkpt lat="47.458261" lon="7.826740">
        <ele>392.092991</ele>
        <time>2021-11-14T22:22:10.531Z</time>
      </trkpt>
      <trkpt lat="47.458747" lon="7.825916">
        <ele>391.980762</ele>
        <time>2021-11-14T22:22:21.902Z</time>
      </trkpt>
      <trkpt lat="47.458942" lon="7.825616">
        <ele>391.650092</ele>
        <time>2021-11-14T22:22:26.022Z</time>
      </trkpt>
      <trkpt lat="47.458995" lon="7.825541">
        <ele>391.563887</ele>
        <time>2021-11-14T22:22:27.331Z</time>
      </trkpt>
      <trkpt lat="47.459101" lon="7.825404">
        <ele>391.398452</ele>
        <time>2021-11-14T22:22:29.184Z</time>
      </trkpt>
      <trkpt lat="47.459273" lon="7.825195">
        <ele>391.136843</ele>
        <time>2021-11-14T22:22:32.018Z</time>
      </trkpt>
      <trkpt lat="47.459476" lon="7.824983">
        <ele>390.844794</ele>
        <time>2021-11-14T22:22:34.753Z</time>
      </trkpt>
      <trkpt lat="47.459583" lon="7.824865">
        <ele>390.687938</ele>
        <time>2021-11-14T22:22:36.281Z</time>
      </trkpt>
      <trkpt lat="47.459717" lon="7.824715">
        <ele>390.490439</ele>
        <time>2021-11-14T22:22:38.068Z</time>
      </trkpt>
      <trkpt lat="47.459781" lon="7.824650">
        <ele>390.399199</ele>
        <time>2021-11-14T22:22:38.911Z</time>
      </trkpt>
      <trkpt lat="47.460099" lon="7.824303">
        <ele>389.613526</ele>
        <time>2021-11-14T22:22:43.118Z</time>
      </trkpt>
      <trkpt lat="47.460235" lon="7.824168">
        <ele>389.087701</ele>
        <time>2021-11-14T22:22:44.787Z</time>
      </trkpt>
      <trkpt lat="47.460305" lon="7.824097">
        <ele>388.815210</ele>
        <time>2021-11-14T22:22:45.666Z</time>
      </trkpt>
      <trkpt lat="47.460395" lon="7.824018">
        <ele>388.479225</ele>
        <time>2021-11-14T22:22:46.754Z</time>
      </trkpt>
      <trkpt lat="47.460572" lon="7.823950">
        <ele>387.892132</ele>
        <time>2021-11-14T22:22:48.542Z</time>
      </trkpt>
      <trkpt lat="47.460785" lon="7.823942">
        <ele>387.208101</ele>
        <time>2021-11-14T22:22:50.660Z</time>
      </trkpt>
      <trkpt lat="47.460993" lon="7.824020">
        <ele>386.519215</ele>
        <time>2021-11-14T22:22:52.747Z</time>
      </trkpt>
      <trkpt lat="47.461891" lon="7.824563">
        <ele>383.713937</ele>
        <time>2021-11-14T22:23:02.515Z</time>
      </trkpt>
      <trkpt lat="47.461961" lon="7.824632">
        <ele>383.532605</ele>
        <time>2021-11-14T22:23:03.325Z</time>
      </trkpt>
      <trkpt lat="47.461951" lon="7.824677">
        <ele>383.463572</ele>
        <time>2021-11-14T22:23:03.669Z</time>
      </trkpt>
      <trkpt lat="47.461983" lon="7.824803">
        <ele>383.267413</ele>
        <time>2021-11-14T22:23:04.764Z</time>
      </trkpt>
      <trkpt lat="47.462009" lon="7.824828">
        <ele>383.200565</ele>
        <time>2021-11-14T22:23:05.094Z</time>
      </trkpt>
      <trkpt lat="47.462048" lon="7.824839">
        <ele>383.114981</ele>
        <time>2021-11-14T22:23:05.517Z</time>
      </trkpt>
      <trkpt lat="47.462087" lon="7.824826">
        <ele>383.028803</ele>
        <time>2021-11-14T22:23:05.967Z</time>
      </trkpt>
      <trkpt lat="47.462119" lon="7.824792">
        <ele>382.943870</ele>
        <time>2021-11-14T22:23:06.400Z</time>
      </trkpt>
      <trkpt lat="47.462138" lon="7.824743">
        <ele>382.861548</ele>
        <time>2021-11-14T22:23:06.790Z</time>
      </trkpt>
      <trkpt lat="47.462108" lon="7.824587">
        <ele>382.625179</ele>
        <time>2021-11-14T22:23:07.946Z</time>
      </trkpt>
      <trkpt lat="47.462075" lon="7.824560">
        <ele>382.543885</ele>
        <time>2021-11-14T22:23:08.455Z</time>
      </trkpt>
      <trkpt lat="47.462104" lon="7.824385">
        <ele>382.281295</ele>
        <time>2021-11-14T22:23:09.801Z</time>
      </trkpt>
      <trkpt lat="47.462122" lon="7.824085">
        <ele>381.842365</ele>
        <time>2021-11-14T22:23:12.003Z</time>
      </trkpt>
      <trkpt lat="47.462098" lon="7.823687">
        <ele>381.260028</ele>
        <time>2021-11-14T22:23:14.970Z</time>
      </trkpt>
      <trkpt lat="47.461990" lon="7.821930">
        <ele>380.295974</ele>
        <time>2021-11-14T22:23:29.313Z</time>
      </trkpt>
      <trkpt lat="47.461985" lon="7.821867">
        <ele>380.287000</ele>
        <time>2021-11-14T22:23:29.768Z</time>
      </trkpt>
      <trkpt lat="47.461966" lon="7.821681">
        <ele>380.260388</ele>
        <time>2021-11-14T22:23:31.214Z</time>
      </trkpt>
      <trkpt lat="47.461748" lon="7.820387">
        <ele>380.473432</ele>
        <time>2021-11-14T22:23:45.397Z</time>
      </trkpt>
      <trkpt lat="47.461730" lon="7.820282">
        <ele>380.756123</ele>
        <time>2021-11-14T22:23:47.274Z</time>
      </trkpt>
      <trkpt lat="47.461722" lon="7.820179">
        <ele>381.026691</ele>
        <time>2021-11-14T22:23:49.201Z</time>
      </trkpt>
      <trkpt lat="47.461743" lon="7.820004">
        <ele>381.490529</ele>
        <time>2021-11-14T22:23:53.680Z</time>
      </trkpt>
      <trkpt lat="47.461754" lon="7.819910">
        <ele>381.739489</ele>
        <time>2021-11-14T22:23:55.999Z</time>
      </trkpt>
      <trkpt lat="47.461818" lon="7.819635">
        <ele>382.498489</ele>
        <time>2021-11-14T22:24:03.059Z</time>
      </trkpt>
      <trkpt lat="47.461832" lon="7.819582">
        <ele>382.646985</ele>
        <time>2021-11-14T22:24:04.487Z</time>
      </trkpt>
      <trkpt lat="47.461833" lon="7.819386">
        <ele>383.158502</ele>
        <time>2021-11-14T22:24:09.976Z</time>
      </trkpt>
      <trkpt lat="47.461803" lon="7.819336">
        <ele>383.332962</ele>
        <time>2021-11-14T22:24:11.227Z</time>
      </trkpt>
      <trkpt lat="47.461777" lon="7.819314">
        <ele>383.448586</ele>
        <time>2021-11-14T22:24:12.425Z</time>
      </trkpt>
      <trkpt lat="47.461404" lon="7.819154">
        <ele>384.947709</ele>
        <time>2021-11-14T22:24:25.537Z</time>
      </trkpt>
      <trkpt lat="47.461360" lon="7.819102">
        <ele>385.165108</ele>
        <time>2021-11-14T22:24:27.071Z</time>
      </trkpt>
      <trkpt lat="47.461308" lon="7.819175">
        <ele>385.441845</ele>
        <time>2021-11-14T22:24:29.249Z</time>
      </trkpt>
      <trkpt lat="47.461257" lon="7.819178">
        <ele>385.638864</ele>
        <time>2021-11-14T22:24:31.818Z</time>
      </trkpt>
      <trkpt lat="47.461109" lon="7.819145">
        <ele>386.216606</ele>
        <time>2021-11-14T22:24:36.095Z</time>
      </trkpt>
      <trkpt lat="47.460884" lon="7.819043">
        <ele>387.047020</ele>
        <time>2021-11-14T22:24:43.508Z</time>
      </trkpt>
      <trkpt lat="47.460742" lon="7.818922">
        <ele>387.130097</ele>
        <time>2021-11-14T22:24:47.388Z</time>
      </trkpt>
      <trkpt lat="47.460693" lon="7.818790">
        <ele>387.181709</ele>
        <time>2021-11-14T22:24:50.563Z</time>
      </trkpt>
      <trkpt lat="47.460667" lon="7.818652">
        <ele>387.230809</ele>
        <time>2021-11-14T22:24:54.714Z</time>
      </trkpt>
      <trkpt lat="47.460671" lon="7.818440">
        <ele>387.303498</ele>
        <time>2021-11-14T22:24:58.723Z</time>
      </trkpt>
      <trkpt lat="47.460676" lon="7.818389">
        <ele>387.321160</ele>
        <time>2021-11-14T22:24:59.535Z</time>
      </trkpt>
      <trkpt lat="47.460728" lon="7.817819">
        <ele>387.518291</ele>
        <time>2021-11-14T22:25:10.698Z</time>
      </trkpt>
      <trkpt lat="47.460971" lon="7.816845">
        <ele>387.874120</ele>
        <time>2021-11-14T22:25:23.737Z</time>
      </trkpt>
      <trkpt lat="47.461270" lon="7.815892">
        <ele>385.866572</ele>
        <time>2021-11-14T22:25:33.212Z</time>
      </trkpt>
      <trkpt lat="47.461799" lon="7.814690">
        <ele>382.305414</ele>
        <time>2021-11-14T22:25:46.719Z</time>
      </trkpt>
      <trkpt lat="47.462091" lon="7.813502">
        <ele>380.655242</ele>
        <time>2021-11-14T22:26:00.216Z</time>
      </trkpt>
      <trkpt lat="47.462100" lon="7.813332">
        <ele>380.521650</ele>
        <time>2021-11-14T22:26:02.117Z</time>
      </trkpt>
      <trkpt lat="47.462031" lon="7.813253">
        <ele>380.420539</ele>
        <time>2021-11-14T22:26:03.788Z</time>
      </trkpt>
      <trkpt lat="47.461508" lon="7.813077">
        <ele>379.799003</ele>
        <time>2021-11-14T22:26:13.569Z</time>
      </trkpt>
      <trkpt lat="47.461669" lon="7.812101">
        <ele>379.106575</ele>
        <time>2021-11-14T22:26:26.632Z</time>
      </trkpt>
      <trkpt lat="47.461789" lon="7.811377">
        <ele>378.747983</ele>
        <time>2021-11-14T22:26:36.275Z</time>
      </trkpt>
      <trkpt lat="47.462198" lon="7.811410">
        <ele>378.456538</ele>
        <time>2021-11-14T22:26:43.361Z</time>
      </trkpt>
      <trkpt lat="47.462236" lon="7.811407">
        <ele>378.429462</ele>
        <time>2021-11-14T22:26:44.011Z</time>
      </trkpt>
      <trkpt lat="47.462267" lon="7.811397">
        <ele>378.406886</ele>
        <time>2021-11-14T22:26:44.509Z</time>
      </trkpt>
      <trkpt lat="47.462292" lon="7.811346">
        <ele>378.376583</ele>
        <time>2021-11-14T22:26:45.179Z</time>
      </trkpt>
      <trkpt lat="47.462316" lon="7.811277">
        <ele>378.339256</ele>
        <time>2021-11-14T22:26:46.087Z</time>
      </trkpt>
      <trkpt lat="47.462504" lon="7.810674">
        <ele>378.019830</ele>
        <time>2021-11-14T22:26:53.989Z</time>
      </trkpt>
      <trkpt lat="47.462665" lon="7.810186">
        <ele>377.854507</ele>
        <time>2021-11-14T22:27:00.638Z</time>
      </trkpt>
      <trkpt lat="47.462720" lon="7.810020">
        <ele>377.804562</ele>
        <time>2021-11-14T22:27:02.995Z</time>
      </trkpt>
      <trkpt lat="47.462773" lon="7.809839">
        <ele>377.751272</ele>
        <time>2021-11-14T22:27:05.508Z</time>
      </trkpt>
      <trkpt lat="47.462926" lon="7.809392">
        <ele>377.615909</ele>
        <time>2021-11-14T22:27:11.822Z</time>
      </trkpt>
      <trkpt lat="47.463007" lon="7.809215">
        <ele>377.558164</ele>
        <time>2021-11-14T22:27:14.662Z</time>
      </trkpt>
      <trkpt lat="47.462918" lon="7.809150">
        <ele>377.518498</ele>
        <time>2021-11-14T22:27:15.911Z</time>
      </trkpt>
      <trkpt lat="47.462879" lon="7.809121">
        <ele>377.501055</ele>
        <time>2021-11-14T22:27:16.821Z</time>
      </trkpt>
      <trkpt lat="47.462185" lon="7.808547">
        <ele>377.274329</ele>
        <time>2021-11-14T22:27:27.795Z</time>
      </trkpt>
      <trkpt lat="47.462087" lon="7.808494">
        <ele>377.283052</ele>
        <time>2021-11-14T22:27:29.369Z</time>
      </trkpt>
      <trkpt lat="47.462189" lon="7.808427">
        <ele>377.292382</ele>
        <time>2021-11-14T22:27:30.762Z</time>
      </trkpt>
      <trkpt lat="47.463004" lon="7.808201">
        <ele>377.361698</ele>
        <time>2021-11-14T22:27:43.740Z</time>
      </trkpt>
      <trkpt lat="47.463084" lon="7.808172">
        <ele>377.368583</ele>
        <time>2021-11-14T22:27:44.933Z</time>
      </trkpt>
      <trkpt lat="47.463139" lon="7.808153">
        <ele>377.373304</ele>
        <time>2021-11-14T22:27:45.986Z</time>
      </trkpt>
      <trkpt lat="47.463234" lon="7.808119">
        <ele>377.381475</ele>
        <time>2021-11-14T22:27:47.253Z</time>
      </trkpt>
      <trkpt lat="47.463497" lon="7.808007">
        <ele>377.404353</ele>
        <time>2021-11-14T22:27:51.711Z</time>
      </trkpt>
      <trkpt lat="47.463812" lon="7.807759">
        <ele>377.637417</ele>
        <time>2021-11-14T22:27:57.284Z</time>
      </trkpt>
      <trkpt lat="47.463974" lon="7.807443">
        <ele>377.840261</ele>
        <time>2021-11-14T22:28:02.059Z</time>
      </trkpt>
      <trkpt lat="47.464472" lon="7.806296">
        <ele>378.537493</ele>
        <time>2021-11-14T22:28:20.052Z</time>
      </trkpt>
      <trkpt lat="47.464656" lon="7.805873">
        <ele>378.759434</ele>
        <time>2021-11-14T22:28:26.392Z</time>
      </trkpt>
      <trkpt lat="47.464756" lon="7.805345">
        <ele>378.644032</ele>
        <time>2021-11-14T22:28:31.861Z</time>
      </trkpt>
      <trkpt lat="47.464762" lon="7.804988">
        <ele>378.568874</ele>
        <time>2021-11-14T22:28:35.928Z</time>
      </trkpt>
      <trkpt lat="47.464766" lon="7.804635">
        <ele>378.494570</ele>
        <time>2021-11-14T22:28:38.964Z</time>
      </trkpt>
      <trkpt lat="47.464804" lon="7.804045">
        <ele>378.369836</ele>
        <time>2021-11-14T22:28:44.303Z</time>
      </trkpt>
      <trkpt lat="47.464718" lon="7.804029">
        <ele>378.342852</ele>
        <time>2021-11-14T22:28:46.429Z</time>
      </trkpt>
      <trkpt lat="47.464724" lon="7.803957">
        <ele>378.327584</ele>
        <time>2021-11-14T22:28:47.123Z</time>
      </trkpt>
      <trkpt lat="47.464755" lon="7.803732">
        <ele>378.279257</ele>
        <time>2021-11-14T22:28:50.116Z</time>
      </trkpt>
      <trkpt lat="47.464763" lon="7.803640">
        <ele>378.259735</ele>
        <time>2021-11-14T22:28:51.127Z</time>
      </trkpt>
      <trkpt lat="47.464816" lon="7.803453">
        <ele>378.217060</ele>
        <time>2021-11-14T22:28:53.464Z</time>
      </trkpt>
      <trkpt lat="47.464934" lon="7.802707">
        <ele>377.516342</ele>
        <time>2021-11-14T22:29:02.144Z</time>
      </trkpt>
      <trkpt lat="47.464978" lon="7.802422">
        <ele>377.239254</ele>
        <time>2021-11-14T22:29:05.194Z</time>
      </trkpt>
      <trkpt lat="47.465028" lon="7.802107">
        <ele>376.932566</ele>
        <time>2021-11-14T22:29:08.789Z</time>
      </trkpt>
      <trkpt lat="47.465048" lon="7.801503">
        <ele>376.359387</ele>
        <time>2021-11-14T22:29:15.550Z</time>
      </trkpt>
      <trkpt lat="47.464989" lon="7.800859">
        <ele>375.743401</ele>
        <time>2021-11-14T22:29:23.032Z</time>
      </trkpt>
      <trkpt lat="47.464730" lon="7.799511">
        <ele>374.243955</ele>
        <time>2021-11-14T22:29:38.722Z</time>
      </trkpt>
      <trkpt lat="47.464712" lon="7.798976">
        <ele>373.667963</ele>
        <time>2021-11-14T22:29:44.496Z</time>
      </trkpt>
      <trkpt lat="47.464835" lon="7.798369">
        <ele>372.986572</ele>
        <time>2021-11-14T22:29:51.307Z</time>
      </trkpt>
      <trkpt lat="47.465256" lon="7.797400">
        <ele>371.759531</ele>
        <time>2021-11-14T22:30:03.874Z</time>
      </trkpt>
      <trkpt lat="47.465410" lon="7.796884">
        <ele>371.159505</ele>
        <time>2021-11-14T22:30:10.096Z</time>
      </trkpt>
      <trkpt lat="47.465480" lon="7.796373">
        <ele>370.604862</ele>
        <time>2021-11-14T22:30:15.882Z</time>
      </trkpt>
      <trkpt lat="47.465496" lon="7.795371">
        <ele>369.680238</ele>
        <time>2021-11-14T22:30:27.230Z</time>
      </trkpt>
      <trkpt lat="47.465496" lon="7.795149">
        <ele>369.517049</ele>
        <time>2021-11-14T22:30:29.994Z</time>
      </trkpt>
      <trkpt lat="47.465510" lon="7.794776">
        <ele>369.242440</ele>
        <time>2021-11-14T22:30:33.946Z</time>
      </trkpt>
      <trkpt lat="47.465607" lon="7.794086">
        <ele>368.724381</ele>
        <time>2021-11-14T22:30:42.296Z</time>
      </trkpt>
      <trkpt lat="47.465839" lon="7.793005">
        <ele>368.023325</ele>
        <time>2021-11-14T22:30:55.759Z</time>
      </trkpt>
      <trkpt lat="47.465907" lon="7.792914">
        <ele>368.011532</ele>
        <time>2021-11-14T22:30:57.132Z</time>
      </trkpt>
      <trkpt lat="47.466109" lon="7.792088">
        <ele>367.935161</ele>
        <time>2021-11-14T22:31:06.377Z</time>
      </trkpt>
      <trkpt lat="47.466412" lon="7.790700">
        <ele>367.805982</ele>
        <time>2021-11-14T22:31:20.838Z</time>
      </trkpt>
      <trkpt lat="47.466432" lon="7.790596">
        <ele>367.781222</ele>
        <time>2021-11-14T22:31:22.700Z</time>
      </trkpt>
      <trkpt lat="47.466514" lon="7.790156">
        <ele>367.676706</ele>
        <time>2021-11-14T22:31:27.437Z</time>
      </trkpt>
      <trkpt lat="47.466603" lon="7.789598">
        <ele>367.545419</ele>
        <time>2021-11-14T22:31:33.563Z</time>
      </trkpt>
      <trkpt lat="47.466719" lon="7.788592">
        <ele>367.311725</ele>
        <time>2021-11-14T22:31:42.549Z</time>
      </trkpt>
      <trkpt lat="47.466734" lon="7.788459">
        <ele>367.280848</ele>
        <time>2021-11-14T22:31:43.974Z</time>
      </trkpt>
      <trkpt lat="47.466939" lon="7.786723">
        <ele>366.214910</ele>
        <time>2021-11-14T22:31:57.983Z</time>
      </trkpt>
      <trkpt lat="47.466949" lon="7.786640">
        <ele>366.156042</ele>
        <time>2021-11-14T22:31:58.678Z</time>
      </trkpt>
      <trkpt lat="47.466956" lon="7.786579">
        <ele>366.112838</ele>
        <time>2021-11-14T22:31:59.121Z</time>
      </trkpt>
      <trkpt lat="47.467094" lon="7.785323">
        <ele>365.209557</ele>
        <time>2021-11-14T22:32:10.095Z</time>
      </trkpt>
      <trkpt lat="47.467119" lon="7.785066">
        <ele>365.005652</ele>
        <time>2021-11-14T22:32:12.290Z</time>
      </trkpt>
      <trkpt lat="47.467092" lon="7.784779">
        <ele>364.778095</ele>
        <time>2021-11-14T22:32:14.716Z</time>
      </trkpt>
      <trkpt lat="47.467074" lon="7.784580">
        <ele>364.620425</ele>
        <time>2021-11-14T22:32:16.438Z</time>
      </trkpt>
      <trkpt lat="47.467114" lon="7.784127">
        <ele>364.261655</ele>
        <time>2021-11-14T22:32:20.183Z</time>
      </trkpt>
      <trkpt lat="47.467275" lon="7.783266">
        <ele>363.560110</ele>
        <time>2021-11-14T22:32:27.601Z</time>
      </trkpt>
      <trkpt lat="47.467308" lon="7.783125">
        <ele>363.442933</ele>
        <time>2021-11-14T22:32:28.735Z</time>
      </trkpt>
      <trkpt lat="47.467374" lon="7.782864">
        <ele>363.178483</ele>
        <time>2021-11-14T22:32:30.955Z</time>
      </trkpt>
      <trkpt lat="47.467411" lon="7.782717">
        <ele>362.862515</ele>
        <time>2021-11-14T22:32:32.152Z</time>
      </trkpt>
      <trkpt lat="47.467673" lon="7.781405">
        <ele>360.106801</ele>
        <time>2021-11-14T22:32:41.786Z</time>
      </trkpt>
      <trkpt lat="47.467837" lon="7.780341">
        <ele>357.908545</ele>
        <time>2021-11-14T22:32:49.051Z</time>
      </trkpt>
      <trkpt lat="47.467858" lon="7.780201">
        <ele>357.573205</ele>
        <time>2021-11-14T22:32:49.962Z</time>
      </trkpt>
      <trkpt lat="47.468054" lon="7.778980">
        <ele>354.616610</ele>
        <time>2021-11-14T22:32:58.300Z</time>
      </trkpt>
      <trkpt lat="47.468174" lon="7.778263">
        <ele>352.876405</ele>
        <time>2021-11-14T22:33:03.233Z</time>
      </trkpt>
      <trkpt lat="47.468193" lon="7.778169">
        <ele>352.645260</ele>
        <time>2021-11-14T22:33:03.865Z</time>
      </trkpt>
      <trkpt lat="47.468501" lon="7.776957">
        <ele>351.448662</ele>
        <time>2021-11-14T22:33:13.303Z</time>
      </trkpt>
      <trkpt lat="47.468600" lon="7.776294">
        <ele>351.309544</ele>
        <time>2021-11-14T22:33:19.036Z</time>
      </trkpt>
      <trkpt lat="47.468932" lon="7.773715">
        <ele>352.672959</ele>
        <time>2021-11-14T22:33:57.858Z</time>
      </trkpt>
      <trkpt lat="47.468986" lon="7.773126">
        <ele>353.301866</ele>
        <time>2021-11-14T22:34:07.523Z</time>
      </trkpt>
      <trkpt lat="47.468989" lon="7.772749">
        <ele>353.700785</ele>
        <time>2021-11-14T22:34:12.788Z</time>
      </trkpt>
      <trkpt lat="47.468967" lon="7.772389">
        <ele>353.699032</ele>
        <time>2021-11-14T22:34:17.219Z</time>
      </trkpt>
      <trkpt lat="47.468873" lon="7.771700">
        <ele>352.922016</ele>
        <time>2021-11-14T22:34:23.791Z</time>
      </trkpt>
      <trkpt lat="47.468826" lon="7.771365">
        <ele>352.543795</ele>
        <time>2021-11-14T22:34:26.504Z</time>
      </trkpt>
      <trkpt lat="47.468999" lon="7.771285">
        <ele>352.247386</ele>
        <time>2021-11-14T22:34:28.509Z</time>
      </trkpt>
      <trkpt lat="47.469111" lon="7.771200">
        <ele>352.041534</ele>
        <time>2021-11-14T22:34:29.995Z</time>
      </trkpt>
      <trkpt lat="47.469171" lon="7.771143">
        <ele>351.924925</ele>
        <time>2021-11-14T22:34:30.667Z</time>
      </trkpt>
      <trkpt lat="47.469300" lon="7.771016">
        <ele>351.671524</ele>
        <time>2021-11-14T22:34:32.344Z</time>
      </trkpt>
      <trkpt lat="47.469570" lon="7.770605">
        <ele>351.037981</ele>
        <time>2021-11-14T22:34:36.200Z</time>
      </trkpt>
      <trkpt lat="47.469747" lon="7.770161">
        <ele>349.970934</ele>
        <time>2021-11-14T22:34:39.599Z</time>
      </trkpt>
      <trkpt lat="47.469786" lon="7.769986">
        <ele>349.558761</ele>
        <time>2021-11-14T22:34:40.865Z</time>
      </trkpt>
      <trkpt lat="47.469806" lon="7.769893">
        <ele>349.340460</ele>
        <time>2021-11-14T22:34:41.457Z</time>
      </trkpt>
      <trkpt lat="47.469837" lon="7.769674">
        <ele>348.839966</ele>
        <time>2021-11-14T22:34:42.964Z</time>
      </trkpt>
      <trkpt lat="47.469884" lon="7.769306">
        <ele>348.002244</ele>
        <time>2021-11-14T22:34:45.410Z</time>
      </trkpt>
      <trkpt lat="47.469983" lon="7.768339">
        <ele>345.814552</ele>
        <time>2021-11-14T22:34:52.102Z</time>
      </trkpt>
      <trkpt lat="47.470034" lon="7.767703">
        <ele>344.740716</ele>
        <time>2021-11-14T22:34:56.774Z</time>
      </trkpt>
      <trkpt lat="47.470087" lon="7.766902">
        <ele>343.981765</ele>
        <time>2021-11-14T22:35:03.167Z</time>
      </trkpt>
      <trkpt lat="47.470120" lon="7.766825">
        <ele>343.895790</ele>
        <time>2021-11-14T22:35:03.904Z</time>
      </trkpt>
      <trkpt lat="47.470149" lon="7.766753">
        <ele>343.816755</ele>
        <time>2021-11-14T22:35:04.559Z</time>
      </trkpt>
      <trkpt lat="47.470181" lon="7.766714">
        <ele>343.758917</ele>
        <time>2021-11-14T22:35:05.042Z</time>
      </trkpt>
      <trkpt lat="47.470212" lon="7.766722">
        <ele>343.715018</ele>
        <time>2021-11-14T22:35:05.408Z</time>
      </trkpt>
      <trkpt lat="47.470242" lon="7.766716">
        <ele>343.672787</ele>
        <time>2021-11-14T22:35:05.778Z</time>
      </trkpt>
      <trkpt lat="47.470270" lon="7.766695">
        <ele>343.628993</ele>
        <time>2021-11-14T22:35:06.143Z</time>
      </trkpt>
      <trkpt lat="47.470293" lon="7.766664">
        <ele>343.585587</ele>
        <time>2021-11-14T22:35:06.572Z</time>
      </trkpt>
      <trkpt lat="47.470307" lon="7.766623">
        <ele>343.542272</ele>
        <time>2021-11-14T22:35:06.949Z</time>
      </trkpt>
      <trkpt lat="47.470313" lon="7.766578">
        <ele>343.499020</ele>
        <time>2021-11-14T22:35:07.578Z</time>
      </trkpt>
      <trkpt lat="47.470246" lon="7.766437">
        <ele>343.336493</ele>
        <time>2021-11-14T22:35:08.924Z</time>
      </trkpt>
      <trkpt lat="47.470215" lon="7.766429">
        <ele>343.292594</ele>
        <time>2021-11-14T22:35:09.291Z</time>
      </trkpt>
      <trkpt lat="47.470191" lon="7.766370">
        <ele>343.227661</ele>
        <time>2021-11-14T22:35:09.852Z</time>
      </trkpt>
      <trkpt lat="47.470150" lon="7.766224">
        <ele>343.078575</ele>
        <time>2021-11-14T22:35:11.188Z</time>
      </trkpt>
      <trkpt lat="47.470139" lon="7.766059">
        <ele>342.922226</ele>
        <time>2021-11-14T22:35:12.860Z</time>
      </trkpt>
      <trkpt lat="47.470162" lon="7.765840">
        <ele>342.713232</ele>
        <time>2021-11-14T22:35:14.539Z</time>
      </trkpt>
      <trkpt lat="47.470203" lon="7.765481">
        <ele>342.400610</ele>
        <time>2021-11-14T22:35:17.658Z</time>
      </trkpt>
      <trkpt lat="47.470213" lon="7.765394">
        <ele>342.338143</ele>
        <time>2021-11-14T22:35:18.277Z</time>
      </trkpt>
      <trkpt lat="47.470230" lon="7.765246">
        <ele>342.231879</ele>
        <time>2021-11-14T22:35:19.422Z</time>
      </trkpt>
      <trkpt lat="47.470267" lon="7.764925">
        <ele>342.001380</ele>
        <time>2021-11-14T22:35:22.113Z</time>
      </trkpt>
      <trkpt lat="47.470296" lon="7.764673">
        <ele>341.820436</ele>
        <time>2021-11-14T22:35:24.055Z</time>
      </trkpt>
      <trkpt lat="47.470323" lon="7.764439">
        <ele>341.652403</ele>
        <time>2021-11-14T22:35:26.161Z</time>
      </trkpt>
      <trkpt lat="47.470330" lon="7.764383">
        <ele>341.612092</ele>
        <time>2021-11-14T22:35:26.539Z</time>
      </trkpt>
      <trkpt lat="47.470377" lon="7.763914">
        <ele>341.276483</ele>
        <time>2021-11-14T22:35:30.625Z</time>
      </trkpt>
      <trkpt lat="47.470406" lon="7.763555">
        <ele>341.020557</ele>
        <time>2021-11-14T22:35:33.455Z</time>
      </trkpt>
      <trkpt lat="47.470433" lon="7.763337">
        <ele>340.863678</ele>
        <time>2021-11-14T22:35:35.225Z</time>
      </trkpt>
      <trkpt lat="47.470461" lon="7.763125">
        <ele>340.710777</ele>
        <time>2021-11-14T22:35:36.992Z</time>
      </trkpt>
      <trkpt lat="47.470687" lon="7.762459">
        <ele>340.390877</ele>
        <time>2021-11-14T22:35:43.907Z</time>
      </trkpt>
      <trkpt lat="47.470716" lon="7.762408">
        <ele>340.366675</ele>
        <time>2021-11-14T22:35:44.425Z</time>
      </trkpt>
      <trkpt lat="47.471053" lon="7.761797">
        <ele>340.080293</ele>
        <time>2021-11-14T22:35:52.049Z</time>
      </trkpt>
      <trkpt lat="47.471113" lon="7.761649">
        <ele>340.017620</ele>
        <time>2021-11-14T22:35:54.091Z</time>
      </trkpt>
      <trkpt lat="47.471212" lon="7.761364">
        <ele>339.901254</ele>
        <time>2021-11-14T22:35:56.973Z</time>
      </trkpt>
      <trkpt lat="47.471270" lon="7.761194">
        <ele>339.832100</ele>
        <time>2021-11-14T22:35:58.971Z</time>
      </trkpt>
      <trkpt lat="47.471311" lon="7.760992">
        <ele>339.755506</ele>
        <time>2021-11-14T22:36:00.660Z</time>
      </trkpt>
      <trkpt lat="47.471314" lon="7.760905">
        <ele>339.723871</ele>
        <time>2021-11-14T22:36:01.369Z</time>
      </trkpt>
      <trkpt lat="47.471180" lon="7.760462">
        <ele>339.243452</ele>
        <time>2021-11-14T22:36:05.335Z</time>
      </trkpt>
      <trkpt lat="47.471136" lon="7.760336">
        <ele>339.028198</ele>
        <time>2021-11-14T22:36:06.448Z</time>
      </trkpt>
      <trkpt lat="47.471129" lon="7.760229">
        <ele>338.865035</ele>
        <time>2021-11-14T22:36:07.385Z</time>
      </trkpt>
      <trkpt lat="47.471202" lon="7.759897">
        <ele>338.335138</ele>
        <time>2021-11-14T22:36:10.013Z</time>
      </trkpt>
      <trkpt lat="47.471272" lon="7.759692">
        <ele>337.986544</ele>
        <time>2021-11-14T22:36:11.812Z</time>
      </trkpt>
      <trkpt lat="47.471350" lon="7.759462">
        <ele>337.595981</ele>
        <time>2021-11-14T22:36:13.607Z</time>
      </trkpt>
      <trkpt lat="47.471447" lon="7.759511">
        <ele>337.365831</ele>
        <time>2021-11-14T22:36:14.718Z</time>
      </trkpt>
      <trkpt lat="47.471498" lon="7.759525">
        <ele>337.249361</ele>
        <time>2021-11-14T22:36:15.330Z</time>
      </trkpt>
      <trkpt lat="47.471636" lon="7.759559">
        <ele>336.935230</ele>
        <time>2021-11-14T22:36:16.799Z</time>
      </trkpt>
      <trkpt lat="47.471703" lon="7.759564">
        <ele>336.784597</ele>
        <time>2021-11-14T22:36:17.432Z</time>
      </trkpt>
      <trkpt lat="47.471986" lon="7.759588">
        <ele>336.148109</ele>
        <time>2021-11-14T22:36:20.457Z</time>
      </trkpt>
      <trkpt lat="47.472143" lon="7.759609">
        <ele>335.794145</ele>
        <time>2021-11-14T22:36:21.995Z</time>
      </trkpt>
      <trkpt lat="47.472224" lon="7.759637">
        <ele>335.607370</ele>
        <time>2021-11-14T22:36:22.902Z</time>
      </trkpt>
      <trkpt lat="47.472362" lon="7.759703">
        <ele>335.163749</ele>
        <time>2021-11-14T22:36:24.345Z</time>
      </trkpt>
      <trkpt lat="47.472497" lon="7.759804">
        <ele>334.699973</ele>
        <time>2021-11-14T22:36:25.820Z</time>
      </trkpt>
      <trkpt lat="47.472569" lon="7.759848">
        <ele>334.461154</ele>
        <time>2021-11-14T22:36:26.646Z</time>
      </trkpt>
      <trkpt lat="47.472620" lon="7.759830">
        <ele>334.300417</ele>
        <time>2021-11-14T22:36:27.170Z</time>
      </trkpt>
      <trkpt lat="47.472654" lon="7.759799">
        <ele>334.177979</ele>
        <time>2021-11-14T22:36:27.590Z</time>
      </trkpt>
      <trkpt lat="47.472673" lon="7.759770">
        <ele>334.094289</ele>
        <time>2021-11-14T22:36:27.846Z</time>
      </trkpt>
      <trkpt lat="47.472721" lon="7.759684">
        <ele>333.863177</ele>
        <time>2021-11-14T22:36:28.533Z</time>
      </trkpt>
      <trkpt lat="47.472910" lon="7.759412">
        <ele>333.054840</ele>
        <time>2021-11-14T22:36:31.216Z</time>
      </trkpt>
      <trkpt lat="47.472958" lon="7.759389">
        <ele>332.900162</ele>
        <time>2021-11-14T22:36:31.675Z</time>
      </trkpt>
      <trkpt lat="47.473017" lon="7.759397">
        <ele>332.718530</ele>
        <time>2021-11-14T22:36:32.249Z</time>
      </trkpt>
      <trkpt lat="47.473147" lon="7.759438">
        <ele>332.311037</ele>
        <time>2021-11-14T22:36:33.635Z</time>
      </trkpt>
      <trkpt lat="47.473193" lon="7.759452">
        <ele>332.167064</ele>
        <time>2021-11-14T22:36:34.133Z</time>
      </trkpt>
      <trkpt lat="47.473230" lon="7.759464">
        <ele>332.050940</ele>
        <time>2021-11-14T22:36:34.536Z</time>
      </trkpt>
      <trkpt lat="47.473405" lon="7.759519">
        <ele>331.502476</ele>
        <time>2021-11-14T22:36:36.352Z</time>
      </trkpt>
      <trkpt lat="47.473501" lon="7.759549">
        <ele>331.201678</ele>
        <time>2021-11-14T22:36:37.385Z</time>
      </trkpt>
      <trkpt lat="47.473605" lon="7.759576">
        <ele>330.877976</ele>
        <time>2021-11-14T22:36:38.536Z</time>
      </trkpt>
      <trkpt lat="47.473843" lon="7.759664">
        <ele>330.125905</ele>
        <time>2021-11-14T22:36:41.124Z</time>
      </trkpt>
      <trkpt lat="47.473929" lon="7.759701">
        <ele>329.988903</ele>
        <time>2021-11-14T22:36:42.138Z</time>
      </trkpt>
      <trkpt lat="47.473985" lon="7.759729">
        <ele>329.911884</ele>
        <time>2021-11-14T22:36:42.751Z</time>
      </trkpt>
      <trkpt lat="47.474199" lon="7.759893">
        <ele>329.597866</ele>
        <time>2021-11-14T22:36:45.471Z</time>
      </trkpt>
      <trkpt lat="47.474306" lon="7.759972">
        <ele>329.442054</ele>
        <time>2021-11-14T22:36:46.834Z</time>
      </trkpt>
      <trkpt lat="47.474320" lon="7.759982">
        <ele>329.421798</ele>
        <time>2021-11-14T22:36:46.989Z</time>
      </trkpt>
      <trkpt lat="47.474441" lon="7.760070">
        <ele>329.246122</ele>
        <time>2021-11-14T22:36:48.622Z</time>
      </trkpt>
      <trkpt lat="47.474480" lon="7.760098">
        <ele>329.189640</ele>
        <time>2021-11-14T22:36:49.132Z</time>
      </trkpt>
      <trkpt lat="47.474806" lon="7.760337">
        <ele>328.715589</ele>
        <time>2021-11-14T22:36:53.525Z</time>
      </trkpt>
      <trkpt lat="47.474883" lon="7.760139">
        <ele>328.514412</ele>
        <time>2021-11-14T22:36:55.397Z</time>
      </trkpt>
      <trkpt lat="47.474958" lon="7.759930">
        <ele>328.306018</ele>
        <time>2021-11-14T22:36:57.408Z</time>
      </trkpt>
      <trkpt lat="47.475046" lon="7.759685">
        <ele>328.061679</ele>
        <time>2021-11-14T22:36:59.715Z</time>
      </trkpt>
      <trkpt lat="47.475348" lon="7.758845">
        <ele>327.516456</ele>
        <time>2021-11-14T22:37:07.903Z</time>
      </trkpt>
      <trkpt lat="47.475392" lon="7.758644">
        <ele>327.434461</ele>
        <time>2021-11-14T22:37:09.684Z</time>
      </trkpt>
      <trkpt lat="47.475409" lon="7.758564">
        <ele>327.401915</ele>
        <time>2021-11-14T22:37:10.451Z</time>
      </trkpt>
      <trkpt lat="47.475449" lon="7.758380">
        <ele>327.326904</ele>
        <time>2021-11-14T22:37:12.190Z</time>
      </trkpt>
      <trkpt lat="47.475488" lon="7.758203">
        <ele>327.254655</ele>
        <time>2021-11-14T22:37:13.732Z</time>
      </trkpt>
      <trkpt lat="47.475520" lon="7.758077">
        <ele>327.202418</ele>
        <time>2021-11-14T22:37:14.913Z</time>
      </trkpt>
      <trkpt lat="47.475557" lon="7.757925">
        <ele>327.139719</ele>
        <time>2021-11-14T22:37:16.409Z</time>
      </trkpt>
      <trkpt lat="47.475603" lon="7.757741">
        <ele>327.063583</ele>
        <time>2021-11-14T22:37:18.173Z</time>
      </trkpt>
      <trkpt lat="47.475737" lon="7.757382">
        <ele>326.904427</ele>
        <time>2021-11-14T22:37:21.937Z</time>
      </trkpt>
      <trkpt lat="47.475904" lon="7.756920">
        <ele>326.722044</ele>
        <time>2021-11-14T22:37:26.528Z</time>
      </trkpt>
      <trkpt lat="47.476212" lon="7.756308">
        <ele>326.895261</ele>
        <time>2021-11-14T22:37:33.825Z</time>
      </trkpt>
      <trkpt lat="47.476445" lon="7.755868">
        <ele>327.022154</ele>
        <time>2021-11-14T22:37:40.628Z</time>
      </trkpt>
      <trkpt lat="47.476484" lon="7.755798">
        <ele>327.042748</ele>
        <time>2021-11-14T22:37:42.083Z</time>
      </trkpt>
      <trkpt lat="47.476692" lon="7.755399">
        <ele>327.157138</ele>
        <time>2021-11-14T22:37:47.689Z</time>
      </trkpt>
      <trkpt lat="47.476783" lon="7.755264">
        <ele>327.200420</ele>
        <time>2021-11-14T22:37:49.721Z</time>
      </trkpt>
      <trkpt lat="47.476974" lon="7.755024">
        <ele>327.284586</ele>
        <time>2021-11-14T22:37:54.158Z</time>
      </trkpt>
      <trkpt lat="47.477048" lon="7.754949">
        <ele>327.314713</ele>
        <time>2021-11-14T22:37:55.382Z</time>
      </trkpt>
      <trkpt lat="47.477137" lon="7.754852">
        <ele>327.391596</ele>
        <time>2021-11-14T22:37:57.238Z</time>
      </trkpt>
      <trkpt lat="47.477223" lon="7.754751">
        <ele>327.472357</ele>
        <time>2021-11-14T22:37:58.580Z</time>
      </trkpt>
      <trkpt lat="47.477267" lon="7.754687">
        <ele>327.517740</ele>
        <time>2021-11-14T22:38:00.234Z</time>
      </trkpt>
      <trkpt lat="47.477301" lon="7.754559">
        <ele>327.586111</ele>
        <time>2021-11-14T22:38:01.878Z</time>
      </trkpt>
      <trkpt lat="47.477350" lon="7.754380">
        <ele>327.682119</ele>
        <time>2021-11-14T22:38:04.171Z</time>
      </trkpt>
      <trkpt lat="47.477452" lon="7.754002">
        <ele>327.884457</ele>
        <time>2021-11-14T22:38:09.473Z</time>
      </trkpt>
      <trkpt lat="47.477528" lon="7.753761">
        <ele>328.016665</ele>
        <time>2021-11-14T22:38:12.281Z</time>
      </trkpt>
      <trkpt lat="47.477874" lon="7.753054">
        <ele>328.450598</ele>
        <time>2021-11-14T22:38:23.934Z</time>
      </trkpt>
      <trkpt lat="47.477934" lon="7.752929">
        <ele>328.526815</ele>
        <time>2021-11-14T22:38:25.356Z</time>
      </trkpt>
      <trkpt lat="47.478014" lon="7.752783">
        <ele>328.620251</ele>
        <time>2021-11-14T22:38:28.592Z</time>
      </trkpt>
      <trkpt lat="47.478161" lon="7.752537">
        <ele>328.981117</ele>
        <time>2021-11-14T22:38:31.542Z</time>
      </trkpt>
      <trkpt lat="47.478207" lon="7.752396">
        <ele>329.167197</ele>
        <time>2021-11-14T22:38:33.426Z</time>
      </trkpt>
      <trkpt lat="47.478264" lon="7.751962">
        <ele>329.692654</ele>
        <time>2021-11-14T22:38:37.499Z</time>
      </trkpt>
      <trkpt lat="47.478384" lon="7.751580">
        <ele>330.193303</ele>
        <time>2021-11-14T22:38:43.781Z</time>
      </trkpt>
      <trkpt lat="47.478818" lon="7.751073">
        <ele>331.165684</ele>
        <time>2021-11-14T22:38:57.073Z</time>
      </trkpt>
      <trkpt lat="47.479129" lon="7.750447">
        <ele>331.882447</ele>
        <time>2021-11-14T22:39:13.416Z</time>
      </trkpt>
      <trkpt lat="47.479338" lon="7.750333">
        <ele>331.989994</ele>
        <time>2021-11-14T22:39:17.271Z</time>
      </trkpt>
      <trkpt lat="47.479402" lon="7.750327">
        <ele>332.020956</ele>
        <time>2021-11-14T22:39:18.263Z</time>
      </trkpt>
      <trkpt lat="47.479511" lon="7.750321">
        <ele>332.073619</ele>
        <time>2021-11-14T22:39:23.139Z</time>
      </trkpt>
      <trkpt lat="47.480127" lon="7.750289">
        <ele>332.371217</ele>
        <time>2021-11-14T22:39:31.064Z</time>
      </trkpt>
      <trkpt lat="47.480235" lon="7.750248">
        <ele>332.425050</ele>
        <time>2021-11-14T22:39:34.765Z</time>
      </trkpt>
      <trkpt lat="47.480296" lon="7.750222">
        <ele>332.455699</ele>
        <time>2021-11-14T22:39:35.353Z</time>
      </trkpt>
      <trkpt lat="47.480540" lon="7.750098">
        <ele>332.580261</ele>
        <time>2021-11-14T22:39:39.306Z</time>
      </trkpt>
      <trkpt lat="47.480659" lon="7.750034">
        <ele>332.641394</ele>
        <time>2021-11-14T22:39:40.574Z</time>
      </trkpt>
      <trkpt lat="47.481025" lon="7.749823">
        <ele>331.585031</ele>
        <time>2021-11-14T22:39:45.126Z</time>
      </trkpt>
      <trkpt lat="47.481177" lon="7.749723">
        <ele>331.033485</ele>
        <time>2021-11-14T22:39:46.997Z</time>
      </trkpt>
      <trkpt lat="47.481292" lon="7.749655">
        <ele>330.622870</ele>
        <time>2021-11-14T22:39:48.162Z</time>
      </trkpt>
      <trkpt lat="47.481543" lon="7.749455">
        <ele>329.677652</ele>
        <time>2021-11-14T22:39:51.084Z</time>
      </trkpt>
      <trkpt lat="47.481759" lon="7.749275">
        <ele>328.855710</ele>
        <time>2021-11-14T22:39:53.448Z</time>
      </trkpt>
      <trkpt lat="47.481794" lon="7.749243">
        <ele>328.719297</ele>
        <time>2021-11-14T22:39:53.842Z</time>
      </trkpt>
      <trkpt lat="47.481894" lon="7.749135">
        <ele>328.308811</ele>
        <time>2021-11-14T22:39:54.940Z</time>
      </trkpt>
      <trkpt lat="47.482027" lon="7.748951">
        <ele>327.705111</ele>
        <time>2021-11-14T22:39:56.769Z</time>
      </trkpt>
      <trkpt lat="47.482244" lon="7.748624">
        <ele>326.682080</ele>
        <time>2021-11-14T22:39:59.741Z</time>
      </trkpt>
      <trkpt lat="47.482282" lon="7.748562">
        <ele>326.518147</ele>
        <time>2021-11-14T22:40:00.424Z</time>
      </trkpt>
      <trkpt lat="47.482360" lon="7.748410">
        <ele>326.144344</ele>
        <time>2021-11-14T22:40:01.654Z</time>
      </trkpt>
      <trkpt lat="47.482518" lon="7.748063">
        <ele>325.324851</ele>
        <time>2021-11-14T22:40:04.525Z</time>
      </trkpt>
      <trkpt lat="47.482512" lon="7.748007">
        <ele>325.213801</ele>
        <time>2021-11-14T22:40:04.893Z</time>
      </trkpt>
      <trkpt lat="47.482614" lon="7.747938">
        <ele>324.888767</ele>
        <time>2021-11-14T22:40:06.057Z</time>
      </trkpt>
      <trkpt lat="47.482770" lon="7.747781">
        <ele>324.342002</ele>
        <time>2021-11-14T22:40:08.030Z</time>
      </trkpt>
      <trkpt lat="47.482853" lon="7.747696">
        <ele>324.049468</ele>
        <time>2021-11-14T22:40:09.042Z</time>
      </trkpt>
      <trkpt lat="47.483011" lon="7.747520">
        <ele>323.476322</ele>
        <time>2021-11-14T22:40:11.126Z</time>
      </trkpt>
      <trkpt lat="47.483152" lon="7.747308">
        <ele>322.893755</ele>
        <time>2021-11-14T22:40:13.269Z</time>
      </trkpt>
      <trkpt lat="47.483410" lon="7.746842">
        <ele>321.713896</ele>
        <time>2021-11-14T22:40:17.661Z</time>
      </trkpt>
      <trkpt lat="47.483497" lon="7.746673">
        <ele>321.367281</ele>
        <time>2021-11-14T22:40:19.197Z</time>
      </trkpt>
      <trkpt lat="47.483614" lon="7.746441">
        <ele>320.998671</ele>
        <time>2021-11-14T22:40:21.348Z</time>
      </trkpt>
      <trkpt lat="47.483713" lon="7.746215">
        <ele>320.655723</ele>
        <time>2021-11-14T22:40:23.320Z</time>
      </trkpt>
      <trkpt lat="47.483804" lon="7.745885">
        <ele>320.201878</ele>
        <time>2021-11-14T22:40:26.102Z</time>
      </trkpt>
      <trkpt lat="47.483854" lon="7.745616">
        <ele>319.846625</ele>
        <time>2021-11-14T22:40:28.169Z</time>
      </trkpt>
      <trkpt lat="47.483913" lon="7.745229">
        <ele>319.341453</ele>
        <time>2021-11-14T22:40:31.132Z</time>
      </trkpt>
      <trkpt lat="47.483929" lon="7.745053">
        <ele>319.115324</ele>
        <time>2021-11-14T22:40:32.442Z</time>
      </trkpt>
      <trkpt lat="47.483992" lon="7.744594">
        <ele>318.518922</ele>
        <time>2021-11-14T22:40:35.929Z</time>
      </trkpt>
      <trkpt lat="47.484001" lon="7.744530">
        <ele>318.435682</ele>
        <time>2021-11-14T22:40:36.402Z</time>
      </trkpt>
      <trkpt lat="47.484090" lon="7.744165">
        <ele>317.975671</ele>
        <time>2021-11-14T22:40:39.398Z</time>
      </trkpt>
      <trkpt lat="47.484222" lon="7.743858">
        <ele>317.607624</ele>
        <time>2021-11-14T22:40:42.328Z</time>
      </trkpt>
      <trkpt lat="47.484603" lon="7.743451">
        <ele>316.904304</ele>
        <time>2021-11-14T22:40:47.798Z</time>
      </trkpt>
      <trkpt lat="47.484808" lon="7.743185">
        <ele>316.496221</ele>
        <time>2021-11-14T22:40:50.918Z</time>
      </trkpt>
      <trkpt lat="47.485062" lon="7.742828">
        <ele>315.971897</ele>
        <time>2021-11-14T22:40:54.960Z</time>
      </trkpt>
      <trkpt lat="47.485225" lon="7.742596">
        <ele>315.633395</ele>
        <time>2021-11-14T22:40:57.582Z</time>
      </trkpt>
      <trkpt lat="47.485965" lon="7.741433">
        <ele>314.164631</ele>
        <time>2021-11-14T22:41:10.145Z</time>
      </trkpt>
      <trkpt lat="47.486112" lon="7.741219">
        <ele>313.888439</ele>
        <time>2021-11-14T22:41:12.508Z</time>
      </trkpt>
      <trkpt lat="47.486369" lon="7.741026">
        <ele>313.502431</ele>
        <time>2021-11-14T22:41:15.700Z</time>
      </trkpt>
      <trkpt lat="47.486469" lon="7.741035">
        <ele>313.368245</ele>
        <time>2021-11-14T22:41:17.134Z</time>
      </trkpt>
      <trkpt lat="47.486493" lon="7.740755">
        <ele>313.112786</ele>
        <time>2021-11-14T22:41:19.303Z</time>
      </trkpt>
      <trkpt lat="47.486498" lon="7.740674">
        <ele>313.039168</ele>
        <time>2021-11-14T22:41:19.878Z</time>
      </trkpt>
      <trkpt lat="47.486546" lon="7.739919">
        <ele>312.872040</ele>
        <time>2021-11-14T22:41:26.677Z</time>
      </trkpt>
      <trkpt lat="47.486574" lon="7.739389">
        <ele>312.773238</ele>
        <time>2021-11-14T22:41:31.632Z</time>
      </trkpt>
      <trkpt lat="47.486588" lon="7.739167">
        <ele>312.731801</ele>
        <time>2021-11-14T22:41:33.681Z</time>
      </trkpt>
      <trkpt lat="47.486599" lon="7.738994">
        <ele>312.699506</ele>
        <time>2021-11-14T22:41:35.229Z</time>
      </trkpt>
      <trkpt lat="47.486652" lon="7.738745">
        <ele>312.650989</ele>
        <time>2021-11-14T22:41:38.081Z</time>
      </trkpt>
      <trkpt lat="47.486688" lon="7.738613">
        <ele>312.624534</ele>
        <time>2021-11-14T22:41:39.384Z</time>
      </trkpt>
      <trkpt lat="47.486696" lon="7.738489">
        <ele>312.601384</ele>
        <time>2021-11-14T22:41:40.531Z</time>
      </trkpt>
      <trkpt lat="47.486689" lon="7.738358">
        <ele>312.576961</ele>
        <time>2021-11-14T22:41:41.963Z</time>
      </trkpt>
      <trkpt lat="47.486827" lon="7.738319">
        <ele>312.538322</ele>
        <time>2021-11-14T22:41:44.286Z</time>
      </trkpt>
      <trkpt lat="47.487288" lon="7.738117">
        <ele>312.711906</ele>
        <time>2021-11-14T22:41:52.234Z</time>
      </trkpt>
      <trkpt lat="47.487552" lon="7.737858">
        <ele>312.877434</ele>
        <time>2021-11-14T22:41:57.814Z</time>
      </trkpt>
      <trkpt lat="47.487621" lon="7.737779">
        <ele>312.923025</ele>
        <time>2021-11-14T22:41:59.535Z</time>
      </trkpt>
      <trkpt lat="47.487864" lon="7.737500">
        <ele>313.083754</ele>
        <time>2021-11-14T22:42:05.418Z</time>
      </trkpt>
      <trkpt lat="47.488046" lon="7.737266">
        <ele>313.209749</ele>
        <time>2021-11-14T22:42:10.105Z</time>
      </trkpt>
      <trkpt lat="47.488606" lon="7.735964">
        <ele>312.931973</ele>
        <time>2021-11-14T22:42:25.723Z</time>
      </trkpt>
      <trkpt lat="47.488804" lon="7.735382">
        <ele>312.537793</ele>
        <time>2021-11-14T22:42:31.115Z</time>
      </trkpt>
      <trkpt lat="47.488949" lon="7.734979">
        <ele>312.261597</ele>
        <time>2021-11-14T22:42:34.760Z</time>
      </trkpt>
      <trkpt lat="47.489032" lon="7.734791">
        <ele>312.125747</ele>
        <time>2021-11-14T22:42:36.453Z</time>
      </trkpt>
      <trkpt lat="47.489918" lon="7.732395">
        <ele>309.126734</ele>
        <time>2021-11-14T22:42:56.929Z</time>
      </trkpt>
      <trkpt lat="47.489972" lon="7.732312">
        <ele>308.988408</ele>
        <time>2021-11-14T22:42:57.748Z</time>
      </trkpt>
      <trkpt lat="47.491123" lon="7.730521">
        <ele>306.639819</ele>
        <time>2021-11-14T22:43:17.343Z</time>
      </trkpt>
      <trkpt lat="47.491189" lon="7.730425">
        <ele>306.514164</ele>
        <time>2021-11-14T22:43:18.436Z</time>
      </trkpt>
      <trkpt lat="47.491229" lon="7.730369">
        <ele>306.439399</ele>
        <time>2021-11-14T22:43:19.121Z</time>
      </trkpt>
      <trkpt lat="47.491274" lon="7.730304">
        <ele>306.354016</ele>
        <time>2021-11-14T22:43:19.894Z</time>
      </trkpt>
      <trkpt lat="47.491352" lon="7.730195">
        <ele>306.208351</ele>
        <time>2021-11-14T22:43:21.211Z</time>
      </trkpt>
      <trkpt lat="47.491749" lon="7.729641">
        <ele>305.567429</ele>
        <time>2021-11-14T22:43:27.654Z</time>
      </trkpt>
      <trkpt lat="47.491764" lon="7.729620">
        <ele>305.543201</ele>
        <time>2021-11-14T22:43:27.897Z</time>
      </trkpt>
      <trkpt lat="47.492018" lon="7.729265">
        <ele>305.133273</ele>
        <time>2021-11-14T22:43:32.025Z</time>
      </trkpt>
      <trkpt lat="47.492160" lon="7.729079">
        <ele>304.910770</ele>
        <time>2021-11-14T22:43:34.229Z</time>
      </trkpt>
      <trkpt lat="47.492253" lon="7.728955">
        <ele>304.763893</ele>
        <time>2021-11-14T22:43:35.689Z</time>
      </trkpt>
      <trkpt lat="47.492640" lon="7.728394">
        <ele>304.128266</ele>
        <time>2021-11-14T22:43:42.300Z</time>
      </trkpt>
      <trkpt lat="47.493051" lon="7.727844">
        <ele>303.734807</ele>
        <time>2021-11-14T22:43:49.166Z</time>
      </trkpt>
      <trkpt lat="47.493304" lon="7.727627">
        <ele>303.534953</ele>
        <time>2021-11-14T22:43:52.738Z</time>
      </trkpt>
      <trkpt lat="47.493736" lon="7.727441">
        <ele>303.227458</ele>
        <time>2021-11-14T22:43:58.534Z</time>
      </trkpt>
      <trkpt lat="47.493928" lon="7.727382">
        <ele>303.093436</ele>
        <time>2021-11-14T22:44:01.114Z</time>
      </trkpt>
      <trkpt lat="47.495388" lon="7.727405">
        <ele>302.422624</ele>
        <time>2021-11-14T22:44:21.673Z</time>
      </trkpt>
      <trkpt lat="47.495736" lon="7.727409">
        <ele>302.286062</ele>
        <time>2021-11-14T22:44:26.279Z</time>
      </trkpt>
      <trkpt lat="47.495777" lon="7.727410">
        <ele>302.269971</ele>
        <time>2021-11-14T22:44:26.830Z</time>
      </trkpt>
      <trkpt lat="47.495921" lon="7.727411">
        <ele>302.213464</ele>
        <time>2021-11-14T22:44:28.683Z</time>
      </trkpt>
      <trkpt lat="47.496039" lon="7.727411">
        <ele>302.167160</ele>
        <time>2021-11-14T22:44:30.207Z</time>
      </trkpt>
      <trkpt lat="47.496162" lon="7.727414">
        <ele>302.090792</ele>
        <time>2021-11-14T22:44:31.804Z</time>
      </trkpt>
      <trkpt lat="47.496367" lon="7.727420">
        <ele>301.952282</ele>
        <time>2021-11-14T22:44:34.397Z</time>
      </trkpt>
      <trkpt lat="47.496689" lon="7.727441">
        <ele>301.734551</ele>
        <time>2021-11-14T22:44:38.449Z</time>
      </trkpt>
      <trkpt lat="47.498171" lon="7.727736">
        <ele>300.793310</ele>
        <time>2021-11-14T22:44:57.556Z</time>
      </trkpt>
      <trkpt lat="47.499222" lon="7.727694">
        <ele>300.307162</ele>
        <time>2021-11-14T22:45:11.918Z</time>
      </trkpt>
      <trkpt lat="47.500808" lon="7.727366">
        <ele>298.826032</ele>
        <time>2021-11-14T22:45:33.405Z</time>
      </trkpt>
      <trkpt lat="47.501683" lon="7.727114">
        <ele>297.685592</ele>
        <time>2021-11-14T22:45:42.919Z</time>
      </trkpt>
      <trkpt lat="47.502070" lon="7.727002">
        <ele>297.010719</ele>
        <time>2021-11-14T22:45:47.251Z</time>
      </trkpt>
      <trkpt lat="47.502089" lon="7.726997">
        <ele>296.977692</ele>
        <time>2021-11-14T22:45:47.505Z</time>
      </trkpt>
      <trkpt lat="47.502204" lon="7.726964">
        <ele>296.777210</ele>
        <time>2021-11-14T22:45:48.988Z</time>
      </trkpt>
      <trkpt lat="47.502189" lon="7.726824">
        <ele>296.613320</ele>
        <time>2021-11-14T22:45:50.034Z</time>
      </trkpt>
      <trkpt lat="47.502177" lon="7.726706">
        <ele>296.475352</ele>
        <time>2021-11-14T22:45:50.897Z</time>
      </trkpt>
      <trkpt lat="47.502177" lon="7.726706">
        <ele>296.475352</ele>
        <time>2021-11-14T22:45:50.909Z</time>
      </trkpt>
      <trkpt lat="47.502122" lon="7.726303">
        <ele>295.999993</ele>
        <time>2021-11-14T22:45:54.286Z</time>
      </trkpt>
      <trkpt lat="47.502115" lon="7.726246">
        <ele>295.933010</ele>
        <time>2021-11-14T22:45:54.697Z</time>
      </trkpt>
      <trkpt lat="47.502048" lon="7.725782">
        <ele>295.384417</ele>
        <time>2021-11-14T22:45:58.435Z</time>
      </trkpt>
      <trkpt lat="47.502031" lon="7.725427">
        <ele>295.060156</ele>
        <time>2021-11-14T22:46:01.260Z</time>
      </trkpt>
      <trkpt lat="47.502031" lon="7.725298">
        <ele>295.045413</ele>
        <time>2021-11-14T22:46:02.354Z</time>
      </trkpt>
      <trkpt lat="47.502029" lon="7.725074">
        <ele>295.019811</ele>
        <time>2021-11-14T22:46:04.007Z</time>
      </trkpt>
      <trkpt lat="47.502040" lon="7.724902">
        <ele>295.000066</ele>
        <time>2021-11-14T22:46:05.966Z</time>
      </trkpt>
      <trkpt lat="47.502055" lon="7.724669">
        <ele>294.973317</ele>
        <time>2021-11-14T22:46:07.946Z</time>
      </trkpt>
      <trkpt lat="47.502172" lon="7.724685">
        <ele>294.953439</ele>
        <time>2021-11-14T22:46:09.848Z</time>
      </trkpt>
      <trkpt lat="47.502179" lon="7.724686">
        <ele>294.952250</ele>
        <time>2021-11-14T22:46:10.007Z</time>
      </trkpt>
      <trkpt lat="47.502205" lon="7.724690">
        <ele>294.947828</ele>
        <time>2021-11-14T22:46:10.566Z</time>
      </trkpt>
      <trkpt lat="47.502283" lon="7.724703">
        <ele>294.934549</ele>
        <time>2021-11-14T22:46:12.331Z</time>
      </trkpt>
      <trkpt lat="47.502584" lon="7.724671">
        <ele>294.883498</ele>
        <time>2021-11-14T22:46:19.085Z</time>
      </trkpt>
      <trkpt lat="47.502794" lon="7.724635">
        <ele>294.847735</ele>
        <time>2021-11-14T22:46:24.137Z</time>
      </trkpt>
      <trkpt lat="47.503201" lon="7.724541">
        <ele>294.778049</ele>
        <time>2021-11-14T22:46:33.627Z</time>
      </trkpt>
      <trkpt lat="47.503333" lon="7.724502">
        <ele>294.703641</ele>
        <time>2021-11-14T22:46:36.520Z</time>
      </trkpt>
      <trkpt lat="47.503457" lon="7.724469">
        <ele>294.574081</ele>
        <time>2021-11-14T22:46:39.134Z</time>
      </trkpt>
      <trkpt lat="47.503494" lon="7.724462">
        <ele>294.535723</ele>
        <time>2021-11-14T22:46:39.941Z</time>
      </trkpt>
      <trkpt lat="47.503945" lon="7.724377">
        <ele>294.068194</ele>
        <time>2021-11-14T22:46:48.189Z</time>
      </trkpt>
      <trkpt lat="47.504048" lon="7.724357">
        <ele>293.961367</ele>
        <time>2021-11-14T22:46:49.909Z</time>
      </trkpt>
      <trkpt lat="47.504396" lon="7.724291">
        <ele>293.600577</ele>
        <time>2021-11-14T22:46:55.821Z</time>
      </trkpt>
      <trkpt lat="47.504514" lon="7.724269">
        <ele>293.478273</ele>
        <time>2021-11-14T22:46:57.841Z</time>
      </trkpt>
      <trkpt lat="47.504610" lon="7.724250">
        <ele>293.378674</ele>
        <time>2021-11-14T22:46:59.505Z</time>
      </trkpt>
      <trkpt lat="47.504856" lon="7.724220">
        <ele>293.124843</ele>
        <time>2021-11-14T22:47:03.415Z</time>
      </trkpt>
      <trkpt lat="47.505012" lon="7.724231">
        <ele>292.964239</ele>
        <time>2021-11-14T22:47:05.971Z</time>
      </trkpt>
      <trkpt lat="47.505073" lon="7.724246">
        <ele>292.883072</ele>
        <time>2021-11-14T22:47:06.863Z</time>
      </trkpt>
      <trkpt lat="47.505161" lon="7.724267">
        <ele>292.685166</ele>
        <time>2021-11-14T22:47:08.282Z</time>
      </trkpt>
      <trkpt lat="47.505365" lon="7.724317">
        <ele>292.226065</ele>
        <time>2021-11-14T22:47:11.636Z</time>
      </trkpt>
      <trkpt lat="47.505646" lon="7.724350">
        <ele>291.600209</ele>
        <time>2021-11-14T22:47:15.935Z</time>
      </trkpt>
      <trkpt lat="47.505783" lon="7.724344">
        <ele>291.295899</ele>
        <time>2021-11-14T22:47:17.969Z</time>
      </trkpt>
      <trkpt lat="47.505851" lon="7.724341">
        <ele>291.144854</ele>
        <time>2021-11-14T22:47:19.051Z</time>
      </trkpt>
      <trkpt lat="47.505891" lon="7.724339">
        <ele>291.055992</ele>
        <time>2021-11-14T22:47:19.646Z</time>
      </trkpt>
      <trkpt lat="47.505930" lon="7.724337">
        <ele>290.969350</ele>
        <time>2021-11-14T22:47:20.249Z</time>
      </trkpt>
      <trkpt lat="47.506453" lon="7.724284">
        <ele>289.805431</ele>
        <time>2021-11-14T22:47:28.218Z</time>
      </trkpt>
      <trkpt lat="47.506607" lon="7.724268">
        <ele>289.462669</ele>
        <time>2021-11-14T22:47:30.535Z</time>
      </trkpt>
      <trkpt lat="47.506921" lon="7.724257">
        <ele>288.811232</ele>
        <time>2021-11-14T22:47:35.532Z</time>
      </trkpt>
      <trkpt lat="47.506945" lon="7.724261">
        <ele>288.773290</ele>
        <time>2021-11-14T22:47:35.911Z</time>
      </trkpt>
      <trkpt lat="47.507064" lon="7.724278">
        <ele>288.585475</ele>
        <time>2021-11-14T22:47:37.787Z</time>
      </trkpt>
      <trkpt lat="47.507444" lon="7.724343">
        <ele>287.984532</ele>
        <time>2021-11-14T22:47:43.911Z</time>
      </trkpt>
      <trkpt lat="47.507810" lon="7.724326">
        <ele>287.409272</ele>
        <time>2021-11-14T22:47:49.894Z</time>
      </trkpt>
      <trkpt lat="47.508175" lon="7.724311">
        <ele>286.835644</ele>
        <time>2021-11-14T22:47:55.934Z</time>
      </trkpt>
      <trkpt lat="47.508425" lon="7.724317">
        <ele>286.442848</ele>
        <time>2021-11-14T22:48:00.159Z</time>
      </trkpt>
      <trkpt lat="47.508629" lon="7.724301">
        <ele>286.121919</ele>
        <time>2021-11-14T22:48:03.528Z</time>
      </trkpt>
      <trkpt lat="47.508823" lon="7.724215">
        <ele>286.020352</ele>
        <time>2021-11-14T22:48:06.010Z</time>
      </trkpt>
      <trkpt lat="47.509150" lon="7.724070">
        <ele>285.880559</ele>
        <time>2021-11-14T22:48:10.185Z</time>
      </trkpt>
      <trkpt lat="47.509672" lon="7.723906">
        <ele>285.662026</ele>
        <time>2021-11-14T22:48:17.108Z</time>
      </trkpt>
      <trkpt lat="47.509849" lon="7.723882">
        <ele>285.589236</ele>
        <time>2021-11-14T22:48:20.712Z</time>
      </trkpt>
      <trkpt lat="47.510349" lon="7.724011">
        <ele>285.381387</ele>
        <time>2021-11-14T22:48:31.680Z</time>
      </trkpt>
      <trkpt lat="47.510952" lon="7.724263">
        <ele>285.457805</ele>
        <time>2021-11-14T22:48:45.740Z</time>
      </trkpt>
      <trkpt lat="47.511606" lon="7.724590">
        <ele>285.575144</ele>
        <time>2021-11-14T22:48:58.210Z</time>
      </trkpt>
      <trkpt lat="47.511791" lon="7.724622">
        <ele>285.606805</ele>
        <time>2021-11-14T22:49:01.779Z</time>
      </trkpt>
      <trkpt lat="47.511979" lon="7.724618">
        <ele>285.638766</ele>
        <time>2021-11-14T22:49:05.621Z</time>
      </trkpt>
      <trkpt lat="47.512214" lon="7.724543">
        <ele>285.773778</ele>
        <time>2021-11-14T22:49:11.689Z</time>
      </trkpt>
      <trkpt lat="47.512277" lon="7.724501">
        <ele>285.865866</ele>
        <time>2021-11-14T22:49:12.790Z</time>
      </trkpt>
      <trkpt lat="47.512857" lon="7.723931">
        <ele>286.793706</ele>
        <time>2021-11-14T22:49:33.546Z</time>
      </trkpt>
      <trkpt lat="47.512888" lon="7.724074">
        <ele>286.928905</ele>
        <time>2021-11-14T22:49:35.644Z</time>
      </trkpt>
      <trkpt lat="47.512910" lon="7.724174">
        <ele>287.023582</ele>
        <time>2021-11-14T22:49:37.499Z</time>
      </trkpt>
      <trkpt lat="47.512976" lon="7.724418">
        <ele>287.260195</ele>
        <time>2021-11-14T22:49:40.893Z</time>
      </trkpt>
      <trkpt lat="47.513078" lon="7.724821">
        <ele>287.647619</ele>
        <time>2021-11-14T22:49:46.806Z</time>
      </trkpt>
      <trkpt lat="47.513150" lon="7.725105">
        <ele>287.920697</ele>
        <time>2021-11-14T22:49:49.180Z</time>
      </trkpt>
      <trkpt lat="47.513193" lon="7.725244">
        <ele>288.058327</ele>
        <time>2021-11-14T22:49:52.176Z</time>
      </trkpt>
      <trkpt lat="47.513232" lon="7.725318">
        <ele>288.064093</ele>
        <time>2021-11-14T22:49:53.332Z</time>
      </trkpt>
      <trkpt lat="47.513538" lon="7.725582">
        <ele>288.069749</ele>
        <time>2021-11-14T22:50:00.430Z</time>
      </trkpt>
      <trkpt lat="47.513681" lon="7.725617">
        <ele>288.072064</ele>
        <time>2021-11-14T22:50:02.758Z</time>
      </trkpt>
      <trkpt lat="47.514143" lon="7.725538">
        <ele>288.079492</ele>
        <time>2021-11-14T22:50:12.394Z</time>
      </trkpt>
      <trkpt lat="47.515140" lon="7.725368">
        <ele>287.579418</ele>
        <time>2021-11-14T22:50:24.310Z</time>
      </trkpt>
      <trkpt lat="47.515697" lon="7.725255">
        <ele>286.320828</ele>
        <time>2021-11-14T22:50:30.112Z</time>
      </trkpt>
      <trkpt lat="47.515959" lon="7.725102">
        <ele>285.690326</ele>
        <time>2021-11-14T22:50:33.095Z</time>
      </trkpt>
      <trkpt lat="47.516416" lon="7.724623">
        <ele>284.436858</ele>
        <time>2021-11-14T22:50:39.052Z</time>
      </trkpt>
      <trkpt lat="47.517269" lon="7.723372">
        <ele>282.139145</ele>
        <time>2021-11-14T22:50:52.115Z</time>
      </trkpt>
      <trkpt lat="47.517885" lon="7.722793">
        <ele>280.780800</ele>
        <time>2021-11-14T22:51:00.449Z</time>
      </trkpt>
      <trkpt lat="47.518038" lon="7.722700">
        <ele>280.615711</ele>
        <time>2021-11-14T22:51:02.329Z</time>
      </trkpt>
      <trkpt lat="47.518237" lon="7.722578">
        <ele>280.449524</ele>
        <time>2021-11-14T22:51:04.947Z</time>
      </trkpt>
      <trkpt lat="47.519305" lon="7.722165">
        <ele>279.597828</ele>
        <time>2021-11-14T22:51:18.547Z</time>
      </trkpt>
      <trkpt lat="47.520760" lon="7.721667">
        <ele>281.229688</ele>
        <time>2021-11-14T22:51:42.545Z</time>
      </trkpt>
      <trkpt lat="47.521121" lon="7.721544">
        <ele>281.844643</ele>
        <time>2021-11-14T22:51:51.986Z</time>
      </trkpt>
      <trkpt lat="47.521455" lon="7.721426">
        <ele>282.683049</ele>
        <time>2021-11-14T22:52:03.157Z</time>
      </trkpt>
      <trkpt lat="47.521722" lon="7.721283">
        <ele>284.422275</ele>
        <time>2021-11-14T22:52:12.755Z</time>
      </trkpt>
      <trkpt lat="47.521846" lon="7.721211">
        <ele>285.238157</ele>
        <time>2021-11-14T22:52:19.030Z</time>
      </trkpt>
      <trkpt lat="47.521984" lon="7.721168">
        <ele>286.102003</ele>
        <time>2021-11-14T22:52:23.785Z</time>
      </trkpt>
      <trkpt lat="47.522249" lon="7.721165">
        <ele>287.725335</ele>
        <time>2021-11-14T22:52:35.841Z</time>
      </trkpt>
      <trkpt lat="47.522498" lon="7.721207">
        <ele>289.260474</ele>
        <time>2021-11-14T22:52:46.478Z</time>
      </trkpt>
      <trkpt lat="47.522682" lon="7.721170">
        <ele>290.397930</ele>
        <time>2021-11-14T22:52:53.930Z</time>
      </trkpt>
      <trkpt lat="47.522888" lon="7.721170">
        <ele>291.659804</ele>
        <time>2021-11-14T22:53:03.663Z</time>
      </trkpt>
      <trkpt lat="47.523111" lon="7.721224">
        <ele>293.043957</ele>
        <time>2021-11-14T22:53:12.027Z</time>
      </trkpt>
      <trkpt lat="47.523300" lon="7.721328">
        <ele>293.944578</ele>
        <time>2021-11-14T22:53:21.352Z</time>
      </trkpt>
      <trkpt lat="47.523671" lon="7.721634">
        <ele>295.626536</ele>
        <time>2021-11-14T22:53:37.268Z</time>
      </trkpt>
      <trkpt lat="47.523902" lon="7.721670">
        <ele>296.546504</ele>
        <time>2021-11-14T22:53:46.083Z</time>
      </trkpt>
      <trkpt lat="47.524263" lon="7.721598">
        <ele>297.989216</ele>
        <time>2021-11-14T22:53:57.426Z</time>
      </trkpt>
      <trkpt lat="47.524632" lon="7.721805">
        <ele>299.552051</ele>
        <time>2021-11-14T22:54:06.786Z</time>
      </trkpt>
      <trkpt lat="47.524884" lon="7.722022">
        <ele>300.403034</ele>
        <time>2021-11-14T22:54:12.033Z</time>
      </trkpt>
      <trkpt lat="47.525258" lon="7.722384">
        <ele>300.024555</ele>
        <time>2021-11-14T22:54:18.171Z</time>
      </trkpt>
      <trkpt lat="47.525373" lon="7.722545">
        <ele>299.890500</ele>
        <time>2021-11-14T22:54:20.178Z</time>
      </trkpt>
      <trkpt lat="47.526099" lon="7.723563">
        <ele>299.043577</ele>
        <time>2021-11-14T22:54:31.577Z</time>
      </trkpt>
      <trkpt lat="47.526744" lon="7.724750">
        <ele>298.311832</ele>
        <time>2021-11-14T22:54:43.512Z</time>
      </trkpt>
      <trkpt lat="47.526894" lon="7.725042">
        <ele>298.140520</ele>
        <time>2021-11-14T22:54:46.549Z</time>
      </trkpt>
      <trkpt lat="47.527862" lon="7.727114">
        <ele>298.155899</ele>
        <time>2021-11-14T22:55:14.762Z</time>
      </trkpt>
      <trkpt lat="47.528009" lon="7.727429">
        <ele>298.270980</ele>
        <time>2021-11-14T22:55:19.616Z</time>
      </trkpt>
      <trkpt lat="47.528065" lon="7.727556">
        <ele>298.316567</ele>
        <time>2021-11-14T22:55:21.371Z</time>
      </trkpt>
      <trkpt lat="47.528164" lon="7.727824">
        <ele>298.408379</ele>
        <time>2021-11-14T22:55:24.985Z</time>
      </trkpt>
      <trkpt lat="47.528320" lon="7.728136">
        <ele>298.444162</ele>
        <time>2021-11-14T22:55:29.136Z</time>
      </trkpt>
      <trkpt lat="47.528408" lon="7.728307">
        <ele>298.360754</ele>
        <time>2021-11-14T22:55:31.274Z</time>
      </trkpt>
      <trkpt lat="47.528552" lon="7.728411">
        <ele>298.268707</ele>
        <time>2021-11-14T22:55:33.515Z</time>
      </trkpt>
      <trkpt lat="47.528614" lon="7.728431">
        <ele>298.232250</ele>
        <time>2021-11-14T22:55:34.430Z</time>
      </trkpt>
      <trkpt lat="47.528688" lon="7.728441">
        <ele>298.189558</ele>
        <time>2021-11-14T22:55:35.437Z</time>
      </trkpt>
      <trkpt lat="47.528715" lon="7.728334">
        <ele>298.145245</ele>
        <time>2021-11-14T22:55:36.431Z</time>
      </trkpt>
      <trkpt lat="47.528746" lon="7.728265">
        <ele>298.113093</ele>
        <time>2021-11-14T22:55:37.178Z</time>
      </trkpt>
      <trkpt lat="47.528803" lon="7.728159">
        <ele>298.060524</ele>
        <time>2021-11-14T22:55:38.425Z</time>
      </trkpt>
      <trkpt lat="47.528848" lon="7.728118">
        <ele>298.030169</ele>
        <time>2021-11-14T22:55:39.139Z</time>
      </trkpt>
      <trkpt lat="47.528941" lon="7.728048">
        <ele>297.970233</ele>
        <time>2021-11-14T22:55:40.502Z</time>
      </trkpt>
      <trkpt lat="47.529047" lon="7.727982">
        <ele>297.904168</ele>
        <time>2021-11-14T22:55:41.947Z</time>
      </trkpt>
      <trkpt lat="47.529269" lon="7.727844">
        <ele>297.765841</ele>
        <time>2021-11-14T22:55:44.966Z</time>
      </trkpt>
      <trkpt lat="47.529976" lon="7.727410">
        <ele>297.247646</ele>
        <time>2021-11-14T22:55:54.124Z</time>
      </trkpt>
      <trkpt lat="47.530372" lon="7.727161">
        <ele>296.851497</ele>
        <time>2021-11-14T22:55:59.232Z</time>
      </trkpt>
      <trkpt lat="47.530756" lon="7.726844">
        <ele>296.446682</ele>
        <time>2021-11-14T22:56:04.601Z</time>
      </trkpt>
      <trkpt lat="47.531031" lon="7.726569">
        <ele>296.141139</ele>
        <time>2021-11-14T22:56:08.764Z</time>
      </trkpt>
      <trkpt lat="47.531193" lon="7.726888">
        <ele>295.892970</ele>
        <time>2021-11-14T22:56:12.200Z</time>
      </trkpt>
      <trkpt lat="47.531296" lon="7.727089">
        <ele>295.774184</ele>
        <time>2021-11-14T22:56:14.535Z</time>
      </trkpt>
      <trkpt lat="47.531623" lon="7.727725">
        <ele>295.572854</ele>
        <time>2021-11-14T22:56:21.746Z</time>
      </trkpt>
      <trkpt lat="47.531815" lon="7.728165">
        <ele>295.440913</ele>
        <time>2021-11-14T22:56:26.495Z</time>
      </trkpt>
      <trkpt lat="47.531944" lon="7.728603">
        <ele>295.320566</ele>
        <time>2021-11-14T22:56:30.832Z</time>
      </trkpt>
      <trkpt lat="47.532193" lon="7.730459">
        <ele>295.224033</ele>
        <time>2021-11-14T22:56:49.105Z</time>
      </trkpt>
      <trkpt lat="47.532405" lon="7.731493">
        <ele>295.314504</ele>
        <time>2021-11-14T22:57:01.062Z</time>
      </trkpt>
      <trkpt lat="47.532473" lon="7.731703">
        <ele>295.334003</ele>
        <time>2021-11-14T22:57:03.530Z</time>
      </trkpt>
      <trkpt lat="47.532665" lon="7.732105">
        <ele>295.323742</ele>
        <time>2021-11-14T22:57:09.014Z</time>
      </trkpt>
      <trkpt lat="47.532776" lon="7.732283">
        <ele>295.298578</ele>
        <time>2021-11-14T22:57:11.589Z</time>
      </trkpt>
      <trkpt lat="47.532853" lon="7.732416">
        <ele>295.280383</ele>
        <time>2021-11-14T22:57:13.506Z</time>
      </trkpt>
      <trkpt lat="47.532961" lon="7.732599">
        <ele>295.255142</ele>
        <time>2021-11-14T22:57:15.796Z</time>
      </trkpt>
      <trkpt lat="47.533220" lon="7.733022">
        <ele>295.195838</ele>
        <time>2021-11-14T22:57:21.331Z</time>
      </trkpt>
      <trkpt lat="47.533324" lon="7.733190">
        <ele>295.172168</ele>
        <time>2021-11-14T22:57:23.635Z</time>
      </trkpt>
      <trkpt lat="47.533436" lon="7.733399">
        <ele>295.144457</ele>
        <time>2021-11-14T22:57:25.980Z</time>
      </trkpt>
      <trkpt lat="47.533577" lon="7.733712">
        <ele>295.105381</ele>
        <time>2021-11-14T22:57:29.493Z</time>
      </trkpt>
      <trkpt lat="47.533685" lon="7.734026">
        <ele>295.039873</ele>
        <time>2021-11-14T22:57:32.605Z</time>
      </trkpt>
      <trkpt lat="47.533860" lon="7.734479">
        <ele>294.755337</ele>
        <time>2021-11-14T22:57:37.099Z</time>
      </trkpt>
      <trkpt lat="47.534301" lon="7.735625">
        <ele>294.036207</ele>
        <time>2021-11-14T22:57:47.936Z</time>
      </trkpt>
      <trkpt lat="47.534450" lon="7.736026">
        <ele>293.786671</ele>
        <time>2021-11-14T22:57:51.713Z</time>
      </trkpt>
      <trkpt lat="47.534670" lon="7.736644">
        <ele>294.194672</ele>
        <time>2021-11-14T22:57:57.739Z</time>
      </trkpt>
      <trkpt lat="47.534765" lon="7.736911">
        <ele>294.627146</ele>
        <time>2021-11-14T22:58:00.400Z</time>
      </trkpt>
      <trkpt lat="47.534876" lon="7.737218">
        <ele>295.126170</ele>
        <time>2021-11-14T22:58:04.200Z</time>
      </trkpt>
      <trkpt lat="47.535216" lon="7.738157">
        <ele>296.652989</ele>
        <time>2021-11-14T22:58:19.827Z</time>
      </trkpt>
      <trkpt lat="47.534755" lon="7.738529">
        <ele>298.634097</ele>
        <time>2021-11-14T22:58:40.042Z</time>
      </trkpt>
      <trkpt lat="47.534011" lon="7.739126">
        <ele>305.198128</ele>
        <time>2021-11-14T22:59:21.827Z</time>
      </trkpt>
      <trkpt lat="47.533446" lon="7.739598">
        <ele>310.230142</ele>
        <time>2021-11-14T22:59:53.746Z</time>
      </trkpt>
      <trkpt lat="47.533226" lon="7.739781">
        <ele>311.826331</ele>
        <time>2021-11-14T23:00:05.082Z</time>
      </trkpt>
      <trkpt lat="47.533191" lon="7.739816">
        <ele>312.004923</ele>
        <time>2021-11-14T23:00:08.334Z</time>
      </trkpt>
      <trkpt lat="47.533352" lon="7.740430">
        <ele>313.885619</ele>
        <time>2021-11-14T23:00:27.017Z</time>
      </trkpt>
      <trkpt lat="47.533707" lon="7.742025">
        <ele>318.680794</ele>
        <time>2021-11-14T23:00:59.302Z</time>
      </trkpt>
      <trkpt lat="47.533870" lon="7.743466">
        <ele>318.828109</ele>
        <time>2021-11-14T23:01:11.380Z</time>
      </trkpt>
      <trkpt lat="47.534043" lon="7.744207">
        <ele>318.728289</ele>
        <time>2021-11-14T23:01:18.463Z</time>
      </trkpt>
      <trkpt lat="47.534097" lon="7.744343">
        <ele>318.708202</ele>
        <time>2021-11-14T23:01:19.911Z</time>
      </trkpt>
      <trkpt lat="47.534179" lon="7.744495">
        <ele>318.683431</ele>
        <time>2021-11-14T23:01:21.790Z</time>
      </trkpt>
      <trkpt lat="47.534370" lon="7.744709">
        <ele>318.655190</ele>
        <time>2021-11-14T23:01:25.084Z</time>
      </trkpt>
      <trkpt lat="47.534429" lon="7.744856">
        <ele>318.649821</ele>
        <time>2021-11-14T23:01:26.846Z</time>
      </trkpt>
      <trkpt lat="47.534874" lon="7.746551">
        <ele>318.592730</ele>
        <time>2021-11-14T23:01:44.396Z</time>
      </trkpt>
      <trkpt lat="47.535912" lon="7.749669">
        <ele>319.253930</ele>
        <time>2021-11-14T23:02:22.736Z</time>
      </trkpt>
      <trkpt lat="47.537134" lon="7.752309">
        <ele>320.213088</ele>
        <time>2021-11-14T23:02:56.889Z</time>
      </trkpt>
      <trkpt lat="47.537371" lon="7.752851">
        <ele>320.627443</ele>
        <time>2021-11-14T23:03:03.538Z</time>
      </trkpt>
      <trkpt lat="47.537564" lon="7.753073">
        <ele>320.859693</ele>
        <time>2021-11-14T23:03:07.353Z</time>
      </trkpt>
      <trkpt lat="47.537715" lon="7.753194">
        <ele>321.022866</ele>
        <time>2021-11-14T23:03:11.198Z</time>
      </trkpt>
      <trkpt lat="47.538052" lon="7.753460">
        <ele>321.420739</ele>
        <time>2021-11-14T23:03:20.281Z</time>
      </trkpt>
      <trkpt lat="47.538359" lon="7.753900">
        <ele>323.356187</ele>
        <time>2021-11-14T23:03:31.536Z</time>
      </trkpt>
      <trkpt lat="47.538494" lon="7.754103">
        <ele>324.227766</ele>
        <time>2021-11-14T23:03:37.319Z</time>
      </trkpt>
      <trkpt lat="47.538723" lon="7.754445">
        <ele>325.701111</ele>
        <time>2021-11-14T23:03:47.483Z</time>
      </trkpt>
      <trkpt lat="47.538792" lon="7.754549">
        <ele>326.147116</ele>
        <time>2021-11-14T23:03:51.473Z</time>
      </trkpt>
      <trkpt lat="47.539079" lon="7.754976">
        <ele>327.990102</ele>
        <time>2021-11-14T23:04:07.263Z</time>
      </trkpt>
      <trkpt lat="47.539230" lon="7.755294">
        <ele>329.179260</ele>
        <time>2021-11-14T23:04:17.732Z</time>
      </trkpt>
      <trkpt lat="47.539266" lon="7.755431">
        <ele>329.626750</ele>
        <time>2021-11-14T23:04:22.253Z</time>
      </trkpt>
      <trkpt lat="47.539318" lon="7.755630">
        <ele>330.265714</ele>
        <time>2021-11-14T23:04:27.583Z</time>
      </trkpt>
      <trkpt lat="47.539346" lon="7.755736">
        <ele>330.606551</ele>
        <time>2021-11-14T23:04:31.022Z</time>
      </trkpt>
      <trkpt lat="47.539595" lon="7.757548">
        <ele>336.143618</ele>
        <time>2021-11-14T23:05:15.044Z</time>
      </trkpt>
      <trkpt lat="47.539722" lon="7.758107">
        <ele>337.340422</ele>
        <time>2021-11-14T23:05:23.953Z</time>
      </trkpt>
      <trkpt lat="47.539949" lon="7.758688">
        <ele>336.531938</ele>
        <time>2021-11-14T23:05:31.164Z</time>
      </trkpt>
      <trkpt lat="47.540447" lon="7.759585">
        <ele>335.133209</ele>
        <time>2021-11-14T23:05:39.689Z</time>
      </trkpt>
      <trkpt lat="47.540567" lon="7.759901">
        <ele>334.696548</ele>
        <time>2021-11-14T23:05:42.074Z</time>
      </trkpt>
      <trkpt lat="47.540921" lon="7.761599">
        <ele>327.178747</ele>
        <time>2021-11-14T23:05:53.198Z</time>
      </trkpt>
      <trkpt lat="47.541004" lon="7.762306">
        <ele>323.641326</ele>
        <time>2021-11-14T23:05:57.418Z</time>
      </trkpt>
      <trkpt lat="47.541023" lon="7.762922">
        <ele>320.470287</ele>
        <time>2021-11-14T23:06:01.001Z</time>
      </trkpt>
      <trkpt lat="47.541219" lon="7.763853">
        <ele>314.533867</ele>
        <time>2021-11-14T23:06:06.625Z</time>
      </trkpt>
      <trkpt lat="47.541334" lon="7.764020">
        <ele>313.081710</ele>
        <time>2021-11-14T23:06:08.091Z</time>
      </trkpt>
      <trkpt lat="47.541377" lon="7.764045">
        <ele>312.665171</ele>
        <time>2021-11-14T23:06:08.464Z</time>
      </trkpt>
      <trkpt lat="47.541364" lon="7.764150">
        <ele>312.015352</ele>
        <time>2021-11-14T23:06:09.075Z</time>
      </trkpt>
      <trkpt lat="47.541443" lon="7.764512">
        <ele>309.699497</ele>
        <time>2021-11-14T23:06:11.386Z</time>
      </trkpt>
      <trkpt lat="47.541552" lon="7.764869">
        <ele>307.314426</ele>
        <time>2021-11-14T23:06:13.680Z</time>
      </trkpt>
      <trkpt lat="47.541697" lon="7.765479">
        <ele>304.204055</ele>
        <time>2021-11-14T23:06:17.562Z</time>
      </trkpt>
      <trkpt lat="47.542317" lon="7.768533">
        <ele>296.764212</ele>
        <time>2021-11-14T23:06:39.035Z</time>
      </trkpt>
      <trkpt lat="47.542450" lon="7.769311">
        <ele>296.223149</ele>
        <time>2021-11-14T23:06:46.750Z</time>
      </trkpt>
      <trkpt lat="47.542720" lon="7.770771">
        <ele>295.606333</ele>
        <time>2021-11-14T23:07:03.294Z</time>
      </trkpt>
      <trkpt lat="47.543108" lon="7.773069">
        <ele>296.191590</ele>
        <time>2021-11-14T23:07:30.146Z</time>
      </trkpt>
      <trkpt lat="47.543145" lon="7.773277">
        <ele>296.209414</ele>
        <time>2021-11-14T23:07:32.272Z</time>
      </trkpt>
      <trkpt lat="47.543350" lon="7.774507">
        <ele>296.314395</ele>
        <time>2021-11-14T23:07:44.735Z</time>
      </trkpt>
      <trkpt lat="47.543402" lon="7.775016">
        <ele>296.357052</ele>
        <time>2021-11-14T23:07:49.798Z</time>
      </trkpt>
      <trkpt lat="47.543449" lon="7.775478">
        <ele>296.395766</ele>
        <time>2021-11-14T23:07:54.491Z</time>
      </trkpt>
      <trkpt lat="47.543482" lon="7.776095">
        <ele>296.978739</ele>
        <time>2021-11-14T23:08:01.199Z</time>
      </trkpt>
      <trkpt lat="47.543527" lon="7.776532">
        <ele>297.437918</ele>
        <time>2021-11-14T23:08:06.358Z</time>
      </trkpt>
      <trkpt lat="47.543707" lon="7.777394">
        <ele>298.375169</ele>
        <time>2021-11-14T23:08:18.644Z</time>
      </trkpt>
      <trkpt lat="47.543933" lon="7.778374">
        <ele>300.130121</ele>
        <time>2021-11-14T23:08:36.971Z</time>
      </trkpt>
      <trkpt lat="47.544100" lon="7.779438">
        <ele>303.996117</ele>
        <time>2021-11-14T23:09:01.172Z</time>
      </trkpt>
      <trkpt lat="47.544461" lon="7.782254">
        <ele>312.659138</ele>
        <time>2021-11-14T23:10:21.773Z</time>
      </trkpt>
      <trkpt lat="47.544469" lon="7.782455">
        <ele>313.181270</ele>
        <time>2021-11-14T23:10:26.807Z</time>
      </trkpt>
      <trkpt lat="47.544474" lon="7.782623">
        <ele>313.617346</ele>
        <time>2021-11-14T23:10:29.194Z</time>
      </trkpt>
      <trkpt lat="47.544490" lon="7.783060">
        <ele>314.752227</ele>
        <time>2021-11-14T23:10:33.086Z</time>
      </trkpt>
      <trkpt lat="47.544555" lon="7.783372">
        <ele>315.390100</ele>
        <time>2021-11-14T23:10:35.571Z</time>
      </trkpt>
      <trkpt lat="47.544627" lon="7.783499">
        <ele>314.827669</ele>
        <time>2021-11-14T23:10:36.968Z</time>
      </trkpt>
      <trkpt lat="47.544950" lon="7.784008">
        <ele>312.458564</ele>
        <time>2021-11-14T23:10:43.780Z</time>
      </trkpt>
      <trkpt lat="47.545054" lon="7.784227">
        <ele>311.550521</ele>
        <time>2021-11-14T23:10:46.352Z</time>
      </trkpt>
      <trkpt lat="47.545240" lon="7.784746">
        <ele>309.557829</ele>
        <time>2021-11-14T23:10:51.507Z</time>
      </trkpt>
      <trkpt lat="47.545250" lon="7.784778">
        <ele>309.438247</ele>
        <time>2021-11-14T23:10:51.780Z</time>
      </trkpt>
      <trkpt lat="47.545624" lon="7.785548">
        <ele>306.283182</ele>
        <time>2021-11-14T23:10:59.944Z</time>
      </trkpt>
      <trkpt lat="47.545672" lon="7.785654">
        <ele>305.957027</ele>
        <time>2021-11-14T23:11:00.953Z</time>
      </trkpt>
      <trkpt lat="47.545856" lon="7.785973">
        <ele>304.884850</ele>
        <time>2021-11-14T23:11:04.794Z</time>
      </trkpt>
      <trkpt lat="47.546102" lon="7.786217">
        <ele>303.764178</ele>
        <time>2021-11-14T23:11:08.780Z</time>
      </trkpt>
      <trkpt lat="47.546417" lon="7.786331">
        <ele>302.536684</ele>
        <time>2021-11-14T23:11:13.358Z</time>
      </trkpt>
      <trkpt lat="47.546464" lon="7.786335">
        <ele>302.358473</ele>
        <time>2021-11-14T23:11:14.123Z</time>
      </trkpt>
      <trkpt lat="47.546526" lon="7.786353">
        <ele>302.119308</ele>
        <time>2021-11-14T23:11:15.123Z</time>
      </trkpt>
      <trkpt lat="47.546913" lon="7.786470">
        <ele>300.624130</ele>
        <time>2021-11-14T23:11:21.286Z</time>
      </trkpt>
      <trkpt lat="47.546952" lon="7.786540">
        <ele>300.392210</ele>
        <time>2021-11-14T23:11:22.224Z</time>
      </trkpt>
      <trkpt lat="47.546959" lon="7.786598">
        <ele>300.241660</ele>
        <time>2021-11-14T23:11:22.923Z</time>
      </trkpt>
      <trkpt lat="47.546897" lon="7.787133">
        <ele>299.701458</ele>
        <time>2021-11-14T23:11:30.089Z</time>
      </trkpt>
      <trkpt lat="47.546777" lon="7.788096">
        <ele>299.818746</ele>
        <time>2021-11-14T23:11:43.982Z</time>
      </trkpt>
      <trkpt lat="47.546695" lon="7.788763">
        <ele>299.899948</ele>
        <time>2021-11-14T23:11:53.782Z</time>
      </trkpt>
      <trkpt lat="47.546673" lon="7.788921">
        <ele>299.919271</ele>
        <time>2021-11-14T23:11:56.387Z</time>
      </trkpt>
      <trkpt lat="47.546445" lon="7.790591">
        <ele>300.810137</ele>
        <time>2021-11-14T23:12:23.702Z</time>
      </trkpt>
      <trkpt lat="47.546253" lon="7.791998">
        <ele>301.821640</ele>
        <time>2021-11-14T23:12:48.663Z</time>
      </trkpt>
      <trkpt lat="47.546027" lon="7.793254">
        <ele>301.860227</ele>
        <time>2021-11-14T23:13:08.346Z</time>
      </trkpt>
      <trkpt lat="47.545971" lon="7.793644">
        <ele>301.860182</ele>
        <time>2021-11-14T23:13:13.330Z</time>
      </trkpt>
      <trkpt lat="47.545969" lon="7.793663">
        <ele>301.860180</ele>
        <time>2021-11-14T23:13:13.538Z</time>
      </trkpt>
      <trkpt lat="47.545921" lon="7.794468">
        <ele>301.860088</ele>
        <time>2021-11-14T23:13:23.422Z</time>
      </trkpt>
      <trkpt lat="47.545947" lon="7.794710">
        <ele>301.851516</ele>
        <time>2021-11-14T23:13:26.264Z</time>
      </trkpt>
      <trkpt lat="47.546019" lon="7.795020">
        <ele>301.796952</ele>
        <time>2021-11-14T23:13:30.284Z</time>
      </trkpt>
      <trkpt lat="47.546165" lon="7.795511">
        <ele>301.707654</ele>
        <time>2021-11-14T23:13:37.197Z</time>
      </trkpt>
      <trkpt lat="47.546170" lon="7.795612">
        <ele>301.690798</ele>
        <time>2021-11-14T23:13:38.251Z</time>
      </trkpt>
      <trkpt lat="47.546154" lon="7.795747">
        <ele>301.667986</ele>
        <time>2021-11-14T23:13:40.024Z</time>
      </trkpt>
      <trkpt lat="47.546105" lon="7.795928">
        <ele>301.635528</ele>
        <time>2021-11-14T23:13:43.173Z</time>
      </trkpt>
      <trkpt lat="47.546038" lon="7.796107">
        <ele>301.601462</ele>
        <time>2021-11-14T23:13:45.487Z</time>
      </trkpt>
      <trkpt lat="47.545889" lon="7.796500">
        <ele>301.526441</ele>
        <time>2021-11-14T23:13:52.366Z</time>
      </trkpt>
      <trkpt lat="47.545838" lon="7.796626">
        <ele>301.501988</ele>
        <time>2021-11-14T23:13:54.199Z</time>
      </trkpt>
      <trkpt lat="47.545788" lon="7.796748">
        <ele>301.478233</ele>
        <time>2021-11-14T23:13:56.022Z</time>
      </trkpt>
      <trkpt lat="47.545728" lon="7.796950">
        <ele>301.441502</ele>
        <time>2021-11-14T23:13:59.343Z</time>
      </trkpt>
      <trkpt lat="47.545689" lon="7.797076">
        <ele>301.418431</ele>
        <time>2021-11-14T23:14:00.801Z</time>
      </trkpt>
      <trkpt lat="47.545670" lon="7.797142">
        <ele>301.416880</ele>
        <time>2021-11-14T23:14:01.862Z</time>
      </trkpt>
      <trkpt lat="47.545645" lon="7.797258">
        <ele>301.417507</ele>
        <time>2021-11-14T23:14:03.626Z</time>
      </trkpt>
      <trkpt lat="47.545637" lon="7.797310">
        <ele>301.417782</ele>
        <time>2021-11-14T23:14:04.974Z</time>
      </trkpt>
      <trkpt lat="47.545558" lon="7.798144">
        <ele>301.422118</ele>
        <time>2021-11-14T23:14:16.250Z</time>
      </trkpt>
      <trkpt lat="47.545511" lon="7.798680">
        <ele>301.424901</ele>
        <time>2021-11-14T23:14:24.319Z</time>
      </trkpt>
      <trkpt lat="47.545581" lon="7.798713">
        <ele>301.425461</ele>
        <time>2021-11-14T23:14:25.831Z</time>
      </trkpt>
      <trkpt lat="47.545731" lon="7.798810">
        <ele>301.426709</ele>
        <time>2021-11-14T23:14:29.837Z</time>
      </trkpt>
      <trkpt lat="47.545807" lon="7.798846">
        <ele>301.427318</ele>
        <time>2021-11-14T23:14:31.175Z</time>
      </trkpt>
      <trkpt lat="47.546418" lon="7.798980">
        <ele>301.299029</ele>
        <time>2021-11-14T23:14:43.230Z</time>
      </trkpt>
      <trkpt lat="47.547540" lon="7.799538">
        <ele>300.618617</ele>
        <time>2021-11-14T23:15:03.871Z</time>
      </trkpt>
      <trkpt lat="47.547912" lon="7.799646">
        <ele>300.400687</ele>
        <time>2021-11-14T23:15:11.252Z</time>
      </trkpt>
      <trkpt lat="47.548459" lon="7.799691">
        <ele>300.336161</ele>
        <time>2021-11-14T23:15:22.190Z</time>
      </trkpt>
      <trkpt lat="47.548535" lon="7.799720">
        <ele>300.327430</ele>
        <time>2021-11-14T23:15:23.710Z</time>
      </trkpt>
      <trkpt lat="47.548514" lon="7.799795">
        <ele>300.321334</ele>
        <time>2021-11-14T23:15:24.774Z</time>
      </trkpt>
      <trkpt lat="47.548519" lon="7.799896">
        <ele>300.313729</ele>
        <time>2021-11-14T23:15:26.128Z</time>
      </trkpt>
      <trkpt lat="47.548545" lon="7.800404">
        <ele>300.275476</ele>
        <time>2021-11-14T23:15:32.919Z</time>
      </trkpt>
      <trkpt lat="47.548560" lon="7.800672">
        <ele>300.255283</ele>
        <time>2021-11-14T23:15:36.613Z</time>
      </trkpt>
      <trkpt lat="47.548569" lon="7.800838">
        <ele>300.242779</ele>
        <time>2021-11-14T23:15:38.856Z</time>
      </trkpt>
      <trkpt lat="47.548576" lon="7.800968">
        <ele>300.232986</ele>
        <time>2021-11-14T23:15:40.631Z</time>
      </trkpt>
      <trkpt lat="47.548596" lon="7.801213">
        <ele>300.214456</ele>
        <time>2021-11-14T23:15:44.012Z</time>
      </trkpt>
      <trkpt lat="47.548607" lon="7.801690">
        <ele>300.161948</ele>
        <time>2021-11-14T23:15:50.512Z</time>
      </trkpt>
      <trkpt lat="47.548626" lon="7.802129">
        <ele>300.097519</ele>
        <time>2021-11-14T23:15:56.429Z</time>
      </trkpt>
      <trkpt lat="47.548626" lon="7.802129">
        <ele>300.097519</ele>
        <time>2021-11-14T23:15:56.434Z</time>
      </trkpt>
      <trkpt lat="47.548626" lon="7.802129">
        <ele>300.097519</ele>
        <time>2021-11-14T23:15:56.441Z</time>
      </trkpt>
      <trkpt lat="47.548760" lon="7.802150">
        <ele>300.068279</ele>
        <time>2021-11-14T23:15:59.135Z</time>
      </trkpt>
      <trkpt lat="47.548877" lon="7.802168">
        <ele>300.042755</ele>
        <time>2021-11-14T23:16:01.434Z</time>
      </trkpt>
      <trkpt lat="47.549410" lon="7.802226">
        <ele>299.926785</ele>
        <time>2021-11-14T23:16:11.849Z</time>
      </trkpt>
      <trkpt lat="47.549481" lon="7.802234">
        <ele>299.911334</ele>
        <time>2021-11-14T23:16:13.187Z</time>
      </trkpt>
      <trkpt lat="47.549879" lon="7.802247">
        <ele>299.824949</ele>
        <time>2021-11-14T23:16:20.653Z</time>
      </trkpt>
      <trkpt lat="47.550146" lon="7.802262">
        <ele>299.749527</ele>
        <time>2021-11-14T23:16:25.727Z</time>
      </trkpt>
      <trkpt lat="47.550134" lon="7.803051">
        <ele>299.582096</ele>
        <time>2021-11-14T23:16:35.950Z</time>
      </trkpt>
      <trkpt lat="47.550196" lon="7.803120">
        <ele>299.557722</ele>
        <time>2021-11-14T23:16:37.409Z</time>
      </trkpt>
      <trkpt lat="47.550981" lon="7.803132">
        <ele>299.310964</ele>
        <time>2021-11-14T23:16:52.056Z</time>
      </trkpt>
      <trkpt lat="47.551163" lon="7.803129">
        <ele>299.253753</ele>
        <time>2021-11-14T23:16:55.459Z</time>
      </trkpt>
      <trkpt lat="47.551598" lon="7.803160">
        <ele>299.459114</ele>
        <time>2021-11-14T23:17:04.051Z</time>
      </trkpt>
      <trkpt lat="47.551666" lon="7.803144">
        <ele>299.497380</ele>
        <time>2021-11-14T23:17:08.796Z</time>
      </trkpt>
      <trkpt lat="47.551732" lon="7.803125">
        <ele>299.534748</ele>
        <time>2021-11-14T23:17:13.463Z</time>
      </trkpt>
      <trkpt lat="47.551744" lon="7.803277">
        <ele>299.592153</ele>
        <time>2021-11-14T23:17:15.157Z</time>
      </trkpt>
      <trkpt lat="47.551751" lon="7.803369">
        <ele>299.626881</ele>
        <time>2021-11-14T23:17:16.231Z</time>
      </trkpt>
      <trkpt lat="47.551692" lon="7.803510">
        <ele>299.689111</ele>
        <time>2021-11-14T23:17:18.825Z</time>
      </trkpt>
      <trkpt lat="47.551741" lon="7.804294">
        <ele>299.984454</ele>
        <time>2021-11-14T23:17:31.843Z</time>
      </trkpt>
      <trkpt lat="47.551744" lon="7.804473">
        <ele>300.051619</ele>
        <time>2021-11-14T23:17:34.362Z</time>
      </trkpt>
      <trkpt lat="47.551731" lon="7.804667">
        <ele>300.124747</ele>
        <time>2021-11-14T23:17:38.342Z</time>
      </trkpt>
      <trkpt lat="47.551709" lon="7.805000">
        <ele>300.248138</ele>
        <time>2021-11-14T23:17:42.834Z</time>
      </trkpt>
      <trkpt lat="47.551681" lon="7.805477">
        <ele>300.390137</ele>
        <time>2021-11-14T23:17:50.570Z</time>
      </trkpt>
      <trkpt lat="47.551671" lon="7.806117">
        <ele>300.579994</ele>
        <time>2021-11-14T23:18:00.659Z</time>
      </trkpt>
      <trkpt lat="47.551651" lon="7.806246">
        <ele>300.619248</ele>
        <time>2021-11-14T23:18:03.562Z</time>
      </trkpt>
      <trkpt lat="47.551895" lon="7.806278">
        <ele>300.726884</ele>
        <time>2021-11-14T23:18:07.088Z</time>
      </trkpt>
      <trkpt lat="47.552015" lon="7.806307">
        <ele>300.780310</ele>
        <time>2021-11-14T23:18:09.958Z</time>
      </trkpt>
      <trkpt lat="47.552068" lon="7.806445">
        <ele>300.827399</ele>
        <time>2021-11-14T23:18:11.415Z</time>
      </trkpt>
      <trkpt lat="47.552398" lon="7.808880">
        <ele>300.366024</ele>
        <time>2021-11-14T23:18:33.558Z</time>
      </trkpt>
      <trkpt lat="47.552566" lon="7.810386">
        <ele>299.748290</ele>
        <time>2021-11-14T23:18:46.569Z</time>
      </trkpt>
      <trkpt lat="47.552711" lon="7.812955">
        <ele>298.597854</ele>
        <time>2021-11-14T23:19:09.177Z</time>
      </trkpt>
      <trkpt lat="47.552844" lon="7.816432">
        <ele>297.464295</ele>
        <time>2021-11-14T23:19:39.511Z</time>
      </trkpt>
      <trkpt lat="47.552935" lon="7.818997">
        <ele>297.631114</ele>
        <time>2021-11-14T23:20:06.385Z</time>
      </trkpt>
      <trkpt lat="47.552948" lon="7.819358">
        <ele>297.737780</ele>
        <time>2021-11-14T23:20:10.684Z</time>
      </trkpt>
      <trkpt lat="47.552896" lon="7.820699">
        <ele>298.215925</ele>
        <time>2021-11-14T23:20:26.899Z</time>
      </trkpt>
      <trkpt lat="47.552567" lon="7.824508">
        <ele>300.206160</ele>
        <time>2021-11-14T23:21:13.597Z</time>
      </trkpt>
      <trkpt lat="47.552491" lon="7.827227">
        <ele>301.757825</ele>
        <time>2021-11-14T23:21:45.336Z</time>
      </trkpt>
      <trkpt lat="47.552515" lon="7.828094">
        <ele>302.307381</ele>
        <time>2021-11-14T23:21:57.046Z</time>
      </trkpt>
      <trkpt lat="47.552477" lon="7.828294">
        <ele>302.438971</ele>
        <time>2021-11-14T23:21:59.663Z</time>
      </trkpt>
      <trkpt lat="47.552421" lon="7.828481">
        <ele>302.721692</ele>
        <time>2021-11-14T23:22:02.595Z</time>
      </trkpt>
      <trkpt lat="47.552404" lon="7.828582">
        <ele>302.875947</ele>
        <time>2021-11-14T23:22:04.279Z</time>
      </trkpt>
      <trkpt lat="47.552416" lon="7.828822">
        <ele>303.232573</ele>
        <time>2021-11-14T23:22:07.513Z</time>
      </trkpt>
      <trkpt lat="47.552554" lon="7.829266">
        <ele>303.956944</ele>
        <time>2021-11-14T23:22:14.865Z</time>
      </trkpt>
      <trkpt lat="47.552645" lon="7.830686">
        <ele>306.070673</ele>
        <time>2021-11-14T23:22:38.170Z</time>
      </trkpt>
      <trkpt lat="47.552690" lon="7.832598">
        <ele>309.816102</ele>
        <time>2021-11-14T23:23:13.648Z</time>
      </trkpt>
      <trkpt lat="47.552616" lon="7.832891">
        <ele>310.448356</ele>
        <time>2021-11-14T23:23:19.011Z</time>
      </trkpt>
      <trkpt lat="47.552556" lon="7.832977">
        <ele>310.698333</ele>
        <time>2021-11-14T23:23:21.743Z</time>
      </trkpt>
      <trkpt lat="47.552511" lon="7.833072">
        <ele>310.932896</ele>
        <time>2021-11-14T23:23:23.768Z</time>
      </trkpt>
      <trkpt lat="47.552467" lon="7.833198">
        <ele>311.219609</ele>
        <time>2021-11-14T23:23:26.170Z</time>
      </trkpt>
      <trkpt lat="47.552452" lon="7.833284">
        <ele>311.399125</ele>
        <time>2021-11-14T23:23:27.781Z</time>
      </trkpt>
      <trkpt lat="47.552696" lon="7.833789">
        <ele>312.459637</ele>
        <time>2021-11-14T23:23:38.813Z</time>
      </trkpt>
      <trkpt lat="47.552700" lon="7.833938">
        <ele>312.693175</ele>
        <time>2021-11-14T23:23:41.757Z</time>
      </trkpt>
      <trkpt lat="47.552714" lon="7.835010">
        <ele>314.372380</ele>
        <time>2021-11-14T23:24:00.234Z</time>
      </trkpt>
      <trkpt lat="47.552719" lon="7.836790">
        <ele>316.729848</ele>
        <time>2021-11-14T23:24:25.395Z</time>
      </trkpt>
      <trkpt lat="47.552697" lon="7.838068">
        <ele>318.012322</ele>
        <time>2021-11-14T23:24:43.152Z</time>
      </trkpt>
      <trkpt lat="47.552736" lon="7.838578">
        <ele>318.527215</ele>
        <time>2021-11-14T23:24:50.286Z</time>
      </trkpt>
      <trkpt lat="47.552790" lon="7.838933">
        <ele>318.915199</ele>
        <time>2021-11-14T23:24:55.286Z</time>
      </trkpt>
      <trkpt lat="47.552802" lon="7.839009">
        <ele>319.000519</ele>
        <time>2021-11-14T23:24:56.505Z</time>
      </trkpt>
      <trkpt lat="47.552939" lon="7.839526">
        <ele>319.607659</ele>
        <time>2021-11-14T23:25:04.295Z</time>
      </trkpt>
      <trkpt lat="47.553231" lon="7.841529">
        <ele>321.767779</ele>
        <time>2021-11-14T23:25:34.425Z</time>
      </trkpt>
      <trkpt lat="47.553216" lon="7.841849">
        <ele>322.024402</ele>
        <time>2021-11-14T23:25:38.949Z</time>
      </trkpt>
      <trkpt lat="47.553123" lon="7.842222">
        <ele>322.342521</ele>
        <time>2021-11-14T23:25:44.179Z</time>
      </trkpt>
      <trkpt lat="47.553133" lon="7.842431">
        <ele>322.510145</ele>
        <time>2021-11-14T23:25:47.308Z</time>
      </trkpt>
      <trkpt lat="47.552833" lon="7.842495">
        <ele>322.869426</ele>
        <time>2021-11-14T23:25:54.617Z</time>
      </trkpt>
      <trkpt lat="47.552380" lon="7.842592">
        <ele>323.411981</ele>
        <time>2021-11-14T23:26:05.665Z</time>
      </trkpt>
      <trkpt lat="47.551922" lon="7.842704">
        <ele>323.873570</ele>
        <time>2021-11-14T23:26:16.231Z</time>
      </trkpt>
      <trkpt lat="47.551668" lon="7.842770">
        <ele>324.082598</ele>
        <time>2021-11-14T23:26:22.190Z</time>
      </trkpt>
      <trkpt lat="47.551454" lon="7.842815">
        <ele>324.257799</ele>
        <time>2021-11-14T23:26:26.877Z</time>
      </trkpt>
      <trkpt lat="47.551344" lon="7.844621">
        <ele>325.316414</ele>
        <time>2021-11-14T23:26:49.392Z</time>
      </trkpt>
      <trkpt lat="47.551205" lon="7.846694">
        <ele>327.145380</ele>
        <time>2021-11-14T23:27:17.379Z</time>
      </trkpt>
      <trkpt lat="47.551184" lon="7.847206">
        <ele>327.618974</ele>
        <time>2021-11-14T23:27:24.765Z</time>
      </trkpt>
      <trkpt lat="47.551196" lon="7.847517">
        <ele>327.947155</ele>
        <time>2021-11-14T23:27:29.329Z</time>
      </trkpt>
      <trkpt lat="47.551669" lon="7.848083">
        <ele>328.896202</ele>
        <time>2021-11-14T23:27:42.414Z</time>
      </trkpt>
      <trkpt lat="47.551242" lon="7.848702">
        <ele>329.828684</ele>
        <time>2021-11-14T23:27:54.998Z</time>
      </trkpt>
      <trkpt lat="47.550975" lon="7.849066">
        <ele>330.369558</ele>
        <time>2021-11-14T23:28:02.313Z</time>
      </trkpt>
      <trkpt lat="47.550810" lon="7.849346">
        <ele>330.668774</ele>
        <time>2021-11-14T23:28:08.706Z</time>
      </trkpt>
      <trkpt lat="47.550488" lon="7.850081">
        <ele>331.374149</ele>
        <time>2021-11-14T23:28:24.172Z</time>
      </trkpt>
      <trkpt lat="47.550333" lon="7.850434">
        <ele>331.713152</ele>
        <time>2021-11-14T23:28:31.503Z</time>
      </trkpt>
      <trkpt lat="47.550009" lon="7.851173">
        <ele>332.422532</ele>
        <time>2021-11-14T23:28:46.026Z</time>
      </trkpt>
      <trkpt lat="47.549652" lon="7.851969">
        <ele>332.442020</ele>
        <time>2021-11-14T23:28:59.915Z</time>
      </trkpt>
      <trkpt lat="47.549535" lon="7.852225">
        <ele>332.445225</ele>
        <time>2021-11-14T23:29:03.969Z</time>
      </trkpt>
      <trkpt lat="47.549285" lon="7.852784">
        <ele>332.452177</ele>
        <time>2021-11-14T23:29:12.620Z</time>
      </trkpt>
      <trkpt lat="47.549413" lon="7.852933">
        <ele>332.454678</ele>
        <time>2021-11-14T23:29:15.671Z</time>
      </trkpt>
      <trkpt lat="47.549708" lon="7.853279">
        <ele>332.438555</ele>
        <time>2021-11-14T23:29:22.992Z</time>
      </trkpt>
      <trkpt lat="47.550221" lon="7.853833">
        <ele>332.087991</ele>
        <time>2021-11-14T23:29:34.923Z</time>
      </trkpt>
      <trkpt lat="47.549883" lon="7.854434">
        <ele>331.796409</ele>
        <time>2021-11-14T23:29:41.604Z</time>
      </trkpt>
      <trkpt lat="47.549566" lon="7.855225">
        <ele>331.460767</ele>
        <time>2021-11-14T23:29:52.787Z</time>
      </trkpt>
      <trkpt lat="47.549362" lon="7.855774">
        <ele>331.356642</ele>
        <time>2021-11-14T23:30:00.709Z</time>
      </trkpt>
      <trkpt lat="47.548887" lon="7.857308">
        <ele>331.076226</ele>
        <time>2021-11-14T23:30:22.817Z</time>
      </trkpt>
      <trkpt lat="47.548743" lon="7.857692">
        <ele>331.079037</ele>
        <time>2021-11-14T23:30:28.789Z</time>
      </trkpt>
      <trkpt lat="47.548701" lon="7.857893">
        <ele>331.172753</ele>
        <time>2021-11-14T23:30:31.760Z</time>
      </trkpt>
      <trkpt lat="47.548686" lon="7.857973">
        <ele>331.209733</ele>
        <time>2021-11-14T23:30:32.884Z</time>
      </trkpt>
      <trkpt lat="47.548611" lon="7.858381">
        <ele>331.398071</ele>
        <time>2021-11-14T23:30:39.098Z</time>
      </trkpt>
      <trkpt lat="47.548334" lon="7.859801">
        <ele>332.056411</ele>
        <time>2021-11-14T23:31:02.135Z</time>
      </trkpt>
      <trkpt lat="47.548049" lon="7.860929">
        <ele>333.164419</ele>
        <time>2021-11-14T23:31:23.153Z</time>
      </trkpt>
      <trkpt lat="47.547930" lon="7.861711">
        <ele>334.055462</ele>
        <time>2021-11-14T23:31:37.917Z</time>
      </trkpt>
      <trkpt lat="47.547568" lon="7.863151">
        <ele>335.489028</ele>
        <time>2021-11-14T23:32:07.045Z</time>
      </trkpt>
      <trkpt lat="47.547320" lon="7.863864">
        <ele>335.966396</ele>
        <time>2021-11-14T23:32:20.985Z</time>
      </trkpt>
      <trkpt lat="47.546974" lon="7.864423">
        <ele>336.417786</ele>
        <time>2021-11-14T23:32:31.808Z</time>
      </trkpt>
      <trkpt lat="47.546885" lon="7.864500">
        <ele>336.508661</ele>
        <time>2021-11-14T23:32:34.893Z</time>
      </trkpt>
      <trkpt lat="47.546894" lon="7.864837">
        <ele>336.709384</ele>
        <time>2021-11-14T23:32:38.777Z</time>
      </trkpt>
      <trkpt lat="47.546889" lon="7.865225">
        <ele>336.587478</ele>
        <time>2021-11-14T23:32:44.202Z</time>
      </trkpt>
      <trkpt lat="47.546819" lon="7.865489">
        <ele>336.428508</ele>
        <time>2021-11-14T23:32:48.147Z</time>
      </trkpt>
      <trkpt lat="47.546510" lon="7.865766">
        <ele>336.128619</ele>
        <time>2021-11-14T23:32:54.781Z</time>
      </trkpt>
      <trkpt lat="47.546327" lon="7.865959">
        <ele>335.942097</ele>
        <time>2021-11-14T23:32:58.296Z</time>
      </trkpt>
      <trkpt lat="47.546096" lon="7.866147">
        <ele>335.723253</ele>
        <time>2021-11-14T23:33:02.852Z</time>
      </trkpt>
      <trkpt lat="47.545240" lon="7.866887">
        <ele>335.447738</ele>
        <time>2021-11-14T23:33:19.525Z</time>
      </trkpt>
      <trkpt lat="47.545160" lon="7.866985">
        <ele>335.490882</ele>
        <time>2021-11-14T23:33:21.481Z</time>
      </trkpt>
      <trkpt lat="47.545003" lon="7.867278">
        <ele>335.595833</ele>
        <time>2021-11-14T23:33:27.149Z</time>
      </trkpt>
      <trkpt lat="47.544568" lon="7.867693">
        <ele>335.810873</ele>
        <time>2021-11-14T23:33:39.940Z</time>
      </trkpt>
      <trkpt lat="47.544469" lon="7.867776">
        <ele>335.858151</ele>
        <time>2021-11-14T23:33:42.802Z</time>
      </trkpt>
      <trkpt lat="47.544410" lon="7.867825">
        <ele>335.886263</ele>
        <time>2021-11-14T23:33:44.891Z</time>
      </trkpt>
      <trkpt lat="47.544246" lon="7.867967">
        <ele>335.965213</ele>
        <time>2021-11-14T23:33:49.574Z</time>
      </trkpt>
      <trkpt lat="47.544214" lon="7.867988">
        <ele>335.979760</ele>
        <time>2021-11-14T23:33:50.422Z</time>
      </trkpt>
      <trkpt lat="47.543801" lon="7.868269">
        <ele>336.552638</ele>
        <time>2021-11-14T23:34:02.025Z</time>
      </trkpt>
      <trkpt lat="47.543657" lon="7.868359">
        <ele>336.777525</ele>
        <time>2021-11-14T23:34:06.374Z</time>
      </trkpt>
      <trkpt lat="47.543201" lon="7.868657">
        <ele>337.494668</ele>
        <time>2021-11-14T23:34:16.575Z</time>
      </trkpt>
      <trkpt lat="47.543105" lon="7.868711">
        <ele>337.642424</ele>
        <time>2021-11-14T23:34:19.159Z</time>
      </trkpt>
      <trkpt lat="47.543049" lon="7.868759">
        <ele>337.735518</ele>
        <time>2021-11-14T23:34:20.536Z</time>
      </trkpt>
      <trkpt lat="47.542722" lon="7.869201">
        <ele>338.372466</ele>
        <time>2021-11-14T23:34:30.368Z</time>
      </trkpt>
      <trkpt lat="47.542696" lon="7.869257">
        <ele>338.438483</ele>
        <time>2021-11-14T23:34:31.198Z</time>
      </trkpt>
      <trkpt lat="47.542657" lon="7.869354">
        <ele>338.548146</ele>
        <time>2021-11-14T23:34:32.633Z</time>
      </trkpt>
      <trkpt lat="47.542372" lon="7.869746">
        <ele>338.600743</ele>
        <time>2021-11-14T23:34:39.710Z</time>
      </trkpt>
      <trkpt lat="47.542329" lon="7.869820">
        <ele>338.600743</ele>
        <time>2021-11-14T23:34:40.892Z</time>
      </trkpt>
      <trkpt lat="47.542348" lon="7.869983">
        <ele>338.600743</ele>
        <time>2021-11-14T23:34:42.441Z</time>
      </trkpt>
      <trkpt lat="47.542317" lon="7.870012">
        <ele>338.600743</ele>
        <time>2021-11-14T23:34:43.124Z</time>
      </trkpt>
      <trkpt lat="47.542181" lon="7.870131">
        <ele>338.600743</ele>
        <time>2021-11-14T23:34:45.640Z</time>
      </trkpt>
      <trkpt lat="47.542118" lon="7.870135">
        <ele>338.600743</ele>
        <time>2021-11-14T23:34:46.644Z</time>
      </trkpt>
      <trkpt lat="47.542014" lon="7.870126">
        <ele>338.600743</ele>
        <time>2021-11-14T23:34:48.007Z</time>
      </trkpt>
      <trkpt lat="47.541910" lon="7.870106">
        <ele>338.600743</ele>
        <time>2021-11-14T23:34:49.608Z</time>
      </trkpt>
      <trkpt lat="47.541606" lon="7.870424">
        <ele>338.600743</ele>
        <time>2021-11-14T23:34:54.829Z</time>
      </trkpt>
      <trkpt lat="47.541521" lon="7.870517">
        <ele>338.600743</ele>
        <time>2021-11-14T23:34:56.273Z</time>
      </trkpt>
      <trkpt lat="47.541550" lon="7.870601">
        <ele>338.600743</ele>
        <time>2021-11-14T23:34:57.133Z</time>
      </trkpt>
      <trkpt lat="47.541576" lon="7.870664">
        <ele>338.600743</ele>
        <time>2021-11-14T23:34:57.805Z</time>
      </trkpt>
      <trkpt lat="47.541420" lon="7.870783">
        <ele>338.600743</ele>
        <time>2021-11-14T23:35:00.717Z</time>
      </trkpt>
    </trkseg>
  </trk>
</gpx>